[[{"header":{"parameterUnit":"m.s-1","parameterCategory":1,"la1":31.0,"la2":29.5877,"lo1":-88.7671,"lo2":-86.6584,"dy":0.0162,"dx":0.0185,"nx":115,"ny":88,"refTime":"2025-04-09T12:00:00:Z","depth":0,"parameterNumber":2,"parameterNumberName":"U-component_of_WINDS"},"data":[0.0,0.0,0.0,0.0,0.0,0.0,0.0,0.0,0.0,0.0,0.0,0.0,0.0,0.0,0.0,0.0,0.0,0.0,0.0,0.0,0.0,0.0,0.0,0.0,0.0,0.0,0.0,0.0,0.0,0.0,0.0,0.0,0.0,0.0,0.0,0.0,0.0,0.0,0.0,0.0,0.0,0.0,0.0,0.0,0.0,0.0,0.0,0.0,0.0,0.0,0.0,0.0,0.0,0.0,0.0,0.0,0.0,0.0,0.0,0.0,0.0,0.0,0.0,0.0,0.0,0.0,0.0,0.0,0.0,0.0,0.0,0.0,0.0,0.0,0.0,0.0,0.0,0.0,0.0,0.0,0.0,0.0,0.0,0.0,0.0,0.0,0.0,0.0,0.0,0.0,0.0,0.0,0.0,0.0,0.0,0.0,0.0,0.0,0.0,0.0,0.0,0.0,0.0,0.0,0.0,0.0,0.0,0.0,0.0,0.0,0.0,0.0,0.0,0.0,0.0,0.0,0.0,0.0,0.0,0.0,0.0,0.0,0.0,0.0,0.0,0.0,0.0,0.0,0.0,0.0,0.0,0.0,0.0,0.0,0.0,0.0,0.0,0.0,0.0,0.0,0.0,0.0,0.0,0.0,0.0,0.0,0.0,0.0,0.0,0.0,0.0,0.0,0.0,0.0,0.0,0.0,0.0,0.0,0.0,0.0,0.0,0.0,0.0,0.0,0.0,0.0,0.0,0.0,0.0,0.0,0.0,0.0,0.0,0.0,0.0,0.0,0.0,0.0,0.0,0.0,0.0,0.0,0.0,0.0,0.0,0.0,0.0,0.0,0.0,0.0,0.0,0.0,0.0,0.0,0.0,0.0,0.0,0.0,0.0,0.0,0.0,0.0,0.0,0.0,0.0,0.0,0.0,0.0,0.0,0.0,0.0,0.0,0.0,0.0,0.0,0.0,0.0,0.0,0.0,0.0,0.0,0.0,0.0,0.0,0.0,0.0,0.0,0.0,0.0,0.0,0.0,0.0,0.0,0.0,0.0,0.0,0.0,0.0,0.0,0.0,0.0,0.0,0.0,0.0,0.0,0.0,0.0,0.0,0.0,0.0,0.0,0.0,0.0,0.0,0.0,0.0,0.0,0.0,0.0,0.0,0.0,0.0,0.0,0.0,0.0,0.0,0.0,0.0,0.0,0.0,0.0,0.0,0.0,0.0,0.0,0.0,0.0,0.0,0.0,0.0,0.0,0.0,0.0,0.0,0.0,0.0,0.0,0.0,0.0,0.0,0.0,0.0,0.0,0.0,0.0,0.0,0.0,0.0,0.0,0.0,0.0,0.0,0.0,0.0,0.0,0.0,0.0,0.0,0.0,0.0,0.0,0.0,0.0,0.0,0.0,0.0,0.0,0.0,0.0,0.0,0.0,0.0,0.0,0.0,0.0,0.0,0.0,0.0,0.0,0.0,0.0,0.0,0.0,0.0,0.0,0.0,0.0,0.0,0.0,0.0,0.0,0.0,0.0,0.0,0.0,0.0,0.0,0.0,0.0,0.0,0.0,0.0,0.0,0.0,0.0,0.0,0.0,0.0,0.0,0.0,0.0,0.0,0.0,0.0,0.0,0.0,0.0,0.0,0.0,0.0,0.0,0.0,0.0,0.0,0.0,0.0,0.0,0.0,0.0,0.0,0.0,0.0,0.0,0.0,0.0,0.0,0.0,0.0,0.0,0.0,0.0,0.0,0.0,0.0,0.0,0.0,0.0,0.0,0.0,0.0,0.0,0.0,0.0,0.0,0.0,0.0,0.0,0.0,0.0,0.0,0.0,0.0,0.0,0.0,0.0,0.0,0.0,0.0,0.0,0.0,0.0,0.0,0.0,0.0,0.0,0.0,0.0,0.0,0.0,0.0,0.0,0.0,0.0,0.0,0.0,0.0,0.0,0.0,0.0,0.0,0.0,0.0,0.0,0.0,0.0,0.0,0.0,0.0,0.0,0.0,0.0,0.0,0.0,0.0,0.0,0.0,0.0,0.0,0.0,0.0,0.0,0.0,0.0,0.0,0.0,0.0,0.0,0.0,0.0,0.0,0.0,0.0,0.0,0.0,0.0,0.0,0.0,0.0,0.0,0.0,0.0,0.0,0.0,0.0,0.0,0.0,0.0,0.0,0.0,0.0,0.0,0.0,0.0,0.0,0.0,0.0,0.0,0.0,0.0,0.0,0.0,0.0,0.0,0.0,0.0,0.0,0.0,0.0,0.0,0.0,0.0,0.0,0.0,0.0,0.0,0.0,0.0,0.0,0.0,0.0,0.0,0.0,0.0,0.0,0.0,0.0,0.0,0.0,0.0,0.0,0.0,0.0,0.0,0.0,0.0,0.0,0.0,0.0,0.0,0.0,0.0,0.0,0.0,0.0,0.0,0.0,0.0,0.0,0.0,0.0,0.0,0.0,0.0,0.0,0.0,0.0,0.0,0.0,0.0,0.0,0.0,0.0,0.0,0.0,0.0,0.0,0.0,0.0,0.0,0.0,0.0,0.0,0.0,0.0,0.0,0.0,0.0,0.0,0.0,0.0,0.0,0.0,0.0,0.0,0.0,0.0,0.0,0.0,0.0,0.0,0.0,0.0,0.0,0.0,0.0,0.0,0.0,0.0,0.0,0.0,0.0,0.0,0.0,0.0,0.0,0.0,0.0,0.0,0.0,0.0,0.0,0.0,0.0,0.0,0.0,0.0,0.0,0.0,0.0,0.0,0.0,0.0,0.0,0.0,0.0,0.0,0.0,0.0,0.0,0.0,0.0,0.0,0.0,0.0,0.0,0.0,0.0,0.0,0.0,0.0,0.0,0.0,0.0,0.0,0.0,0.0,0.0,0.0,0.0,0.0,0.0,0.0,0.0,0.0,0.0,0.0,0.0,0.0,0.0,0.0,0.0,0.0,0.0,0.0,0.0,0.0,0.0,0.0,0.0,0.0,0.0,0.0,0.0,0.0,0.0,0.0,0.0,0.0,0.0,0.0,0.0,0.0,0.0,0.0,0.0,0.0,0.0,0.0,0.0,0.0,0.0,0.0,0.0,0.0,0.0,0.0,0.0,0.0,0.0,0.0,0.0,0.0,0.0,0.0,0.0,0.0,0.0,0.0,0.0,0.0,0.0,0.0,0.0,0.0,0.0,0.0,0.0,0.0,0.0,0.0,0.0,0.0,0.0,0.0,0.0,0.0,0.0,0.0,0.0,0.0,0.0,0.0,0.0,0.0,0.0,0.0,0.0,0.0,0.0,0.0,0.0,0.0,0.0,0.0,0.0,0.0,0.0,0.0,0.0,0.0,0.0,0.0,0.0,0.0,0.0,0.0,0.0,0.0,0.0,0.0,0.0,0.0,0.0,0.0,0.0,0.0,0.0,0.0,0.0,0.0,0.0,0.0,0.0,0.0,0.0,0.0,0.0,0.0,0.0,0.0,0.0,0.0,0.0,0.0,0.0,0.0,0.0,0.0,0.0,0.0,0.0,0.0,0.0,0.0,0.0,0.0,0.0,0.0,0.0,0.0,0.0,0.0,0.0,0.0,0.0,0.0,0.0,0.0,0.0,0.0,0.0,0.0,0.0,0.0,0.0,0.0,0.0,0.0,0.0,0.0,0.0,0.0,0.0,0.0,0.0,0.0,0.0,0.0,0.0,0.0,0.0,0.0,0.0,0.0,0.0,0.0,0.0,0.0,0.0,0.0,0.0,0.0,0.0,0.0,0.0,0.0,0.0,0.0,0.0,0.0,0.0,0.0,0.0,0.0,0.0,0.0,0.0,0.0,0.0,0.0,0.0,0.0,0.0,0.0,0.0,0.0,0.0,0.0,0.0,0.0,0.0,0.0,0.0,0.0,0.0,0.0,0.0,0.0,0.0,0.0,0.0,0.0,0.0,0.0,0.0,0.0,0.0,0.0,0.0,0.0,0.0,0.0,0.0,0.0,0.0,0.0,0.0,0.0,0.0,0.0,0.0,0.0,0.0,0.0,0.0,0.0,0.0,0.0,0.0,0.0,0.0,0.0,0.0,0.0,0.0,0.0,0.0,0.0,0.0,0.0,0.0,0.0,0.0,0.0,0.0,0.0,0.0,0.0,0.0,0.0,0.0,0.0,0.0,0.0,0.0,0.0,0.0,0.0,0.0,0.0,0.0,0.0,0.0,0.0,0.0,0.0,0.0,0.0,0.0,0.0,0.0,0.0,0.0,0.0,0.0,0.0,0.0,0.0,0.0,0.0,0.0,0.0,0.0,0.0,0.0,0.0,-1.8547,0.0,0.0,0.0,0.0,0.0,0.0,0.0,0.0,0.0,0.0,0.0,0.0,0.0,0.0,0.0,0.0,0.0,0.0,0.0,0.0,0.0,0.0,0.0,0.0,0.0,0.0,0.0,0.0,0.0,0.0,0.0,0.0,0.0,0.0,0.0,0.0,0.0,0.0,0.0,0.0,0.0,0.0,0.0,0.0,0.0,0.0,0.0,0.0,0.0,0.0,0.0,0.0,0.0,0.0,0.0,0.0,0.0,0.0,0.0,0.0,0.0,0.0,0.0,0.0,0.0,0.0,0.0,0.0,0.0,0.0,0.0,0.0,0.0,0.0,0.0,0.0,0.0,0.0,0.0,0.0,0.0,0.0,0.0,0.0,0.0,0.0,0.0,0.0,0.0,0.0,0.0,0.0,0.0,0.0,0.0,0.0,0.0,0.0,0.0,0.0,0.0,0.0,0.0,0.0,0.0,0.0,0.0,0.0,0.0,0.0,-1.9865,-2.0198,-1.9872,-1.931,-1.8565,0.0,0.0,0.0,0.0,0.0,0.0,0.0,0.0,0.0,0.0,0.0,0.0,0.0,0.0,0.0,0.0,0.0,0.0,0.0,0.0,0.0,0.0,0.0,0.0,0.0,0.0,0.0,0.0,0.0,0.0,0.0,0.0,0.0,0.0,0.0,0.0,0.0,0.0,0.0,0.0,0.0,0.0,0.0,0.0,0.0,0.0,0.0,0.0,0.0,0.0,0.0,0.0,0.0,0.0,0.0,0.0,0.0,0.0,0.0,0.0,0.0,0.0,0.0,0.0,0.0,0.0,0.0,0.0,0.0,0.0,0.0,0.0,0.0,0.0,0.0,0.0,0.0,0.0,0.0,0.0,0.0,0.0,0.0,0.0,0.0,0.0,0.0,0.0,0.0,0.0,0.0,0.0,0.0,0.0,0.0,0.0,0.0,0.0,0.0,0.0,0.0,0.0,0.0,0.0,0.0,0.0,0.0,0.0,0.0,0.0,0.0,0.0,-2.0234,-1.9837,-1.9109,0.0,0.0,0.0,0.0,0.0,0.0,0.0,0.0,0.0,0.0,0.0,0.0,0.0,0.0,0.0,0.0,0.0,0.0,0.0,0.0,0.0,0.0,0.0,0.0,0.0,0.0,0.0,0.0,0.0,0.0,0.0,0.0,0.0,0.0,0.0,0.0,0.0,0.0,0.0,0.0,0.0,0.0,0.0,0.0,0.0,0.0,0.0,0.0,0.0,0.0,0.0,0.0,0.0,0.0,0.0,0.0,0.0,0.0,0.0,0.0,0.0,0.0,0.0,0.0,0.0,0.0,0.0,0.0,0.0,0.0,0.0,0.0,0.0,0.0,0.0,0.0,0.0,0.0,0.0,0.0,0.0,0.0,0.0,0.0,0.0,0.0,0.0,0.0,0.0,0.0,0.0,0.0,0.0,0.0,0.0,0.0,0.0,0.0,0.0,0.0,0.0,0.0,0.0,0.0,0.0,0.0,0.0,0.0,0.0,0.0,-2.0374,-2.1744,-2.1779,0.0,-2.0719,0.0,0.0,0.0,0.0,0.0,0.0,0.0,0.0,0.0,0.0,0.0,0.0,0.0,0.0,0.0,0.0,0.0,0.0,0.0,0.0,0.0,0.0,0.0,0.0,0.0,0.0,0.0,0.0,0.0,0.0,0.0,0.0,0.0,0.0,0.0,0.0,0.0,0.0,0.0,0.0,0.0,0.0,0.0,0.0,0.0,0.0,0.0,0.0,0.0,0.0,0.0,0.0,0.0,0.0,0.0,0.0,0.0,0.0,0.0,0.0,0.0,0.0,0.0,0.0,0.0,0.0,0.0,0.0,0.0,0.0,0.0,0.0,0.0,0.0,0.0,0.0,0.0,0.0,0.0,0.0,0.0,0.0,0.0,0.0,0.0,0.0,0.0,0.0,0.0,0.0,0.0,0.0,0.0,0.0,0.0,0.0,0.0,0.0,0.0,0.0,0.0,0.0,0.0,0.0,0.0,0.0,0.0,0.0,0.0,0.0,0.0,-2.1281,-2.1299,-2.1129,0.0,0.0,0.0,0.0,0.0,0.0,0.0,0.0,0.0,0.0,0.0,0.0,0.0,0.0,0.0,0.0,0.0,0.0,0.0,0.0,0.0,0.0,0.0,0.0,0.0,0.0,0.0,0.0,0.0,0.0,0.0,0.0,0.0,0.0,0.0,0.0,0.0,0.0,0.0,0.0,0.0,0.0,0.0,0.0,0.0,0.0,0.0,0.0,0.0,0.0,0.0,0.0,0.0,0.0,0.0,0.0,0.0,0.0,0.0,0.0,0.0,0.0,0.0,0.0,0.0,0.0,0.0,0.0,0.0,0.0,0.0,0.0,0.0,0.0,0.0,0.0,0.0,0.0,0.0,0.0,0.0,0.0,0.0,0.0,0.0,0.0,0.0,0.0,0.0,0.0,0.0,0.0,0.0,0.0,0.0,0.0,0.0,0.0,0.0,0.0,0.0,0.0,0.0,0.0,0.0,0.0,0.0,0.0,0.0,0.0,-2.0379,0.0,-2.1249,-2.1313,-2.1132,-2.0673,0.0,0.0,0.0,0.0,0.0,0.0,0.0,0.0,0.0,0.0,0.0,0.0,0.0,0.0,0.0,0.0,0.0,0.0,0.0,0.0,0.0,0.0,0.0,0.0,0.0,0.0,0.0,0.0,0.0,0.0,0.0,0.0,0.0,0.0,0.0,0.0,0.0,0.0,0.0,0.0,0.0,0.0,0.0,0.0,0.0,0.0,0.0,0.0,0.0,0.0,0.0,0.0,0.0,0.0,0.0,0.0,0.0,0.0,0.0,0.0,0.0,0.0,0.0,0.0,0.0,0.0,0.0,0.0,0.0,0.0,0.0,0.0,0.0,0.0,0.0,0.0,0.0,0.0,0.0,0.0,0.0,0.0,0.0,0.0,0.0,0.0,0.0,0.0,0.0,0.0,0.0,0.0,0.0,0.0,0.0,0.0,0.0,0.0,0.0,0.0,0.0,0.0,0.0,0.0,0.0,0.0,0.0,0.0,0.0,-2.1253,-2.1076,-2.2384,-2.2565,-2.1884,0.0,0.0,0.0,0.0,0.0,0.0,0.0,0.0,0.0,0.0,0.0,0.0,0.0,0.0,0.0,0.0,0.0,0.0,0.0,0.0,0.0,0.0,0.0,0.0,0.0,0.0,0.0,0.0,0.0,0.0,0.0,0.0,0.0,0.0,0.0,0.0,0.0,0.0,0.0,0.0,0.0,0.0,0.0,0.0,0.0,0.0,0.0,0.0,0.0,0.0,0.0,0.0,0.0,0.0,0.0,0.0,0.0,0.0,0.0,0.0,0.0,0.0,0.0,0.0,0.0,0.0,0.0,0.0,0.0,0.0,0.0,0.0,0.0,0.0,0.0,0.0,0.0,0.0,0.0,0.0,0.0,0.0,0.0,0.0,0.0,0.0,0.0,0.0,0.0,0.0,0.0,0.0,0.0,0.0,0.0,0.0,0.0,0.0,0.0,0.0,0.0,0.0,0.0,0.0,0.0,0.0,0.0,0.0,0.0,-2.0089,-2.0486,-2.1757,-2.3939,-2.228,-2.1206,0.0,0.0,0.0,0.0,0.0,0.0,0.0,0.0,0.0,0.0,0.0,0.0,0.0,0.0,0.0,0.0,0.0,0.0,0.0,0.0,0.0,0.0,0.0,0.0,0.0,0.0,0.0,0.0,0.0,0.0,0.0,0.0,0.0,0.0,0.0,0.0,0.0,0.0,0.0,0.0,0.0,0.0,0.0,0.0,0.0,0.0,0.0,0.0,0.0,0.0,0.0,0.0,0.0,0.0,0.0,0.0,0.0,0.0,0.0,0.0,0.0,0.0,0.0,0.0,0.0,0.0,0.0,0.0,0.0,0.0,0.0,0.0,0.0,0.0,0.0,0.0,0.0,0.0,0.0,0.0,0.0,0.0,0.0,0.0,0.0,0.0,0.0,0.0,0.0,0.0,0.0,0.0,0.0,0.0,0.0,0.0,0.0,0.0,0.0,0.0,0.0,0.0,0.0,0.0,0.0,0.0,0.0,0.0,0.0,-1.9841,0.0,-2.2807,0.0,-2.2095,-2.0763,0.0,0.0,0.0,0.0,0.0,0.0,0.0,0.0,0.0,0.0,0.0,0.0,0.0,0.0,0.0,0.0,0.0,0.0,0.0,0.0,0.0,0.0,0.0,0.0,0.0,0.0,0.0,0.0,0.0,0.0,0.0,0.0,0.0,0.0,0.0,0.0,0.0,0.0,0.0,0.0,0.0,0.0,0.0,0.0,0.0,0.0,0.0,0.0,0.0,0.0,0.0,0.0,0.0,0.0,0.0,0.0,0.0,0.0,0.0,0.0,0.0,0.0,0.0,0.0,0.0,0.0,0.0,0.0,0.0,0.0,0.0,0.0,0.0,0.0,0.0,0.0,0.0,0.0,0.0,0.0,0.0,0.0,0.0,0.0,0.0,0.0,0.0,0.0,0.0,0.0,0.0,0.0,0.0,0.0,0.0,0.0,0.0,0.0,0.0,0.0,0.0,0.0,0.0,0.0,0.0,0.0,0.0,0.0,-1.967,-2.2544,-2.3991,-2.3904,-2.233,-2.2062,-2.0612,0.0,0.0,0.0,0.0,0.0,0.0,0.0,0.0,0.0,0.0,0.0,0.0,0.0,0.0,0.0,0.0,0.0,0.0,0.0,0.0,0.0,0.0,0.0,0.0,0.0,0.0,0.0,0.0,0.0,0.0,0.0,0.0,0.0,0.0,0.0,0.0,0.0,0.0,0.0,0.0,0.0,0.0,0.0,0.0,0.0,0.0,0.0,0.0,0.0,0.0,0.0,0.0,0.0,0.0,0.0,0.0,0.0,0.0,0.0,0.0,0.0,0.0,0.0,0.0,0.0,0.0,0.0,0.0,0.0,0.0,0.0,0.0,0.0,0.0,0.0,0.0,0.0,0.0,0.0,0.0,0.0,0.0,0.0,0.0,0.0,0.0,0.0,0.0,0.0,0.0,0.0,0.0,0.0,0.0,0.0,0.0,0.0,0.0,0.0,0.0,0.0,0.0,0.0,0.0,0.0,0.0,0.0,0.0,0.0,-2.1769,-2.1721,-2.2378,-2.368,-2.1238,-1.9792,0.0,0.0,0.0,0.0,0.0,0.0,0.0,0.0,0.0,0.0,0.0,0.0,0.0,0.0,0.0,0.0,0.0,0.0,0.0,0.0,0.0,0.0,0.0,0.0,0.0,0.0,0.0,0.0,0.0,0.0,0.0,0.0,0.0,0.0,0.0,0.0,0.0,0.0,0.0,0.0,0.0,0.0,0.0,0.0,0.0,0.0,0.0,0.0,0.0,0.0,0.0,0.0,0.0,0.0,0.0,0.0,0.0,0.0,0.0,0.0,0.0,0.0,0.0,0.0,0.0,0.0,0.0,0.0,0.0,0.0,0.0,0.0,0.0,0.0,0.0,0.0,0.0,0.0,0.0,0.0,0.0,0.0,0.0,0.0,0.0,0.0,0.0,0.0,0.0,0.0,0.0,0.0,0.0,0.0,0.0,0.0,0.0,0.0,0.0,0.0,0.0,0.0,0.0,0.0,0.0,0.0,0.0,0.0,0.0,-2.4092,-2.3144,-2.3333,-2.4893,-2.2202,-2.0597,-2.024,0.0,0.0,0.0,0.0,0.0,0.0,0.0,0.0,0.0,0.0,0.0,0.0,0.0,0.0,0.0,0.0,0.0,0.0,0.0,0.0,0.0,0.0,0.0,0.0,0.0,0.0,0.0,0.0,0.0,0.0,0.0,0.0,0.0,0.0,0.0,0.0,0.0,0.0,0.0,0.0,0.0,0.0,0.0,0.0,0.0,0.0,0.0,0.0,0.0,0.0,0.0,0.0,0.0,0.0,0.0,0.0,0.0,0.0,0.0,0.0,0.0,0.0,0.0,0.0,0.0,0.0,0.0,0.0,0.0,0.0,0.0,0.0,0.0,0.0,0.0,0.0,0.0,0.0,0.0,0.0,0.0,0.0,0.0,0.0,0.0,0.0,0.0,0.0,0.0,0.0,0.0,0.0,0.0,0.0,0.0,0.0,0.0,0.0,0.0,0.0,0.0,0.0,0.0,0.0,0.0,0.0,0.0,0.0,-2.8839,-2.7615,-2.6556,-2.5765,-2.4596,-2.2675,0.0,0.0,0.0,0.0,0.0,0.0,0.0,0.0,0.0,0.0,0.0,0.0,0.0,0.0,0.0,0.0,0.0,0.0,0.0,0.0,0.0,0.0,0.0,0.0,0.0,0.0,0.0,0.0,0.0,0.0,0.0,0.0,0.0,0.0,0.0,0.0,0.0,0.0,0.0,0.0,0.0,0.0,0.0,0.0,0.0,0.0,0.0,0.0,0.0,0.0,0.0,0.0,0.0,0.0,0.0,0.0,0.0,0.0,0.0,0.0,0.0,0.0,0.0,0.0,0.0,0.0,0.0,0.0,0.0,0.0,0.0,0.0,0.0,0.0,0.0,0.0,0.0,0.0,0.0,0.0,0.0,0.0,0.0,0.0,0.0,0.0,0.0,0.0,0.0,0.0,0.0,0.0,0.0,0.0,0.0,0.0,0.0,0.0,0.0,0.0,0.0,0.0,0.0,0.0,0.0,0.0,0.0,0.0,0.0,-2.9932,-3.0734,-3.0336,-2.8688,-2.5646,-2.3388,0.0,0.0,0.0,0.0,0.0,0.0,0.0,0.0,0.0,0.0,0.0,0.0,0.0,0.0,0.0,0.0,0.0,0.0,0.0,0.0,0.0,0.0,0.0,0.0,0.0,0.0,0.0,0.0,0.0,0.0,0.0,0.0,0.0,0.0,0.0,0.0,0.0,0.0,0.0,0.0,0.0,0.0,0.0,0.0,0.0,0.0,0.0,0.0,0.0,0.0,0.0,0.0,0.0,0.0,0.0,0.0,0.0,0.0,0.0,0.0,0.0,0.0,0.0,0.0,0.0,0.0,0.0,0.0,0.0,0.0,0.0,0.0,0.0,0.0,0.0,0.0,0.0,0.0,0.0,0.0,0.0,0.0,0.0,0.0,0.0,0.0,0.0,0.0,0.0,0.0,0.0,0.0,0.0,0.0,0.0,0.0,0.0,0.0,0.0,0.0,0.0,0.0,0.0,0.0,0.0,0.0,0.0,0.0,-2.8969,-3.1835,-3.364,-3.3709,-3.1988,-2.855,-2.5822,0.0,0.0,0.0,0.0,0.0,0.0,0.0,0.0,0.0,0.0,0.0,0.0,0.0,0.0,0.0,0.0,0.0,0.0,0.0,0.0,0.0,0.0,0.0,0.0,0.0,0.0,0.0,0.0,0.0,0.0,0.0,0.0,0.0,0.0,0.0,0.0,0.0,0.0,0.0,0.0,0.0,0.0,0.0,0.0,0.0,0.0,0.0,0.0,0.0,0.0,0.0,0.0,0.0,0.0,0.0,0.0,0.0,0.0,0.0,0.0,0.0,0.0,0.0,0.0,0.0,0.0,0.0,0.0,0.0,0.0,0.0,0.0,0.0,0.0,0.0,0.0,0.0,0.0,0.0,0.0,0.0,0.0,0.0,0.0,0.0,0.0,0.0,0.0,0.0,0.0,0.0,0.0,0.0,0.0,0.0,0.0,0.0,0.0,0.0,0.0,0.0,0.0,0.0,0.0,0.0,0.0,0.0,0.0,-3.1056,-3.3972,-3.6174,-3.6638,-3.5114,-3.2111,-2.885,0.0,0.0,0.0,0.0,0.0,0.0,0.0,0.0,0.0,0.0,0.0,0.0,0.0,0.0,0.0,0.0,0.0,0.0,0.0,0.0,0.0,0.0,0.0,0.0,0.0,0.0,0.0,0.0,0.0,0.0,0.0,0.0,0.0,0.0,0.0,0.0,0.0,0.0,0.0,0.0,0.0,0.0,0.0,0.0,0.0,0.0,0.0,0.0,0.0,0.0,0.0,0.0,0.0,0.0,0.0,0.0,0.0,0.0,0.0,0.0,0.0,0.0,0.0,0.0,0.0,0.0,0.0,0.0,0.0,0.0,0.0,0.0,0.0,0.0,0.0,0.0,0.0,0.0,0.0,0.0,0.0,0.0,0.0,0.0,0.0,0.0,0.0,0.0,0.0,0.0,0.0,0.0,0.0,0.0,0.0,0.0,0.0,0.0,0.0,0.0,0.0,0.0,0.0,0.0,0.0,0.0,0.0,0.0,-3.2541,-3.5479,-3.7707,-3.8112,-3.6655,-3.2663,-2.9082,0.0,0.0,0.0,0.0,0.0,0.0,0.0,0.0,0.0,0.0,0.0,0.0,0.0,0.0,0.0,0.0,0.0,0.0,0.0,0.0,0.0,0.0,0.0,0.0,0.0,0.0,0.0,0.0,0.0,0.0,0.0,0.0,0.0,0.0,0.0,0.0,0.0,0.0,0.0,0.0,0.0,0.0,0.0,0.0,0.0,0.0,0.0,0.0,-1.5851,0.0,0.0,0.0,0.0,0.0,0.0,0.0,0.0,0.0,0.0,0.0,0.0,0.0,0.0,0.0,0.0,0.0,0.0,0.0,0.0,0.0,0.0,0.0,0.0,0.0,0.0,0.0,0.0,0.0,0.0,0.0,0.0,0.0,0.0,0.0,0.0,0.0,0.0,0.0,0.0,0.0,0.0,0.0,0.0,0.0,0.0,0.0,0.0,0.0,0.0,0.0,0.0,0.0,0.0,0.0,0.0,0.0,0.0,0.0,-3.3557,-3.6439,-3.8337,-3.8619,-3.7069,-3.4154,-3.0891,0.0,0.0,0.0,0.0,0.0,0.0,0.0,0.0,0.0,0.0,0.0,0.0,0.0,0.0,0.0,0.0,0.0,0.0,0.0,0.0,0.0,0.0,0.0,0.0,0.0,0.0,0.0,0.0,0.0,0.0,0.0,0.0,0.0,0.0,0.0,0.0,0.0,0.0,0.0,0.0,0.0,0.0,0.0,0.0,0.0,0.0,0.0,0.0,0.0,0.0,0.0,0.0,0.0,0.0,0.0,0.0,0.0,0.0,0.0,0.0,0.0,0.0,0.0,0.0,0.0,0.0,0.0,0.0,0.0,0.0,0.0,0.0,0.0,0.0,0.0,0.0,0.0,0.0,0.0,0.0,0.0,0.0,0.0,0.0,0.0,0.0,0.0,0.0,0.0,0.0,0.0,0.0,0.0,0.0,0.0,0.0,0.0,0.0,0.0,0.0,0.0,0.0,0.0,0.0,0.0,0.0,0.0,-3.1044,-3.4121,-3.7317,-3.8642,-3.8619,-3.7135,-3.5678,-3.2845,-2.8575,0.0,0.0,0.0,0.0,0.0,0.0,0.0,0.0,0.0,0.0,0.0,0.0,0.0,0.0,0.0,0.0,0.0,0.0,0.0,0.0,0.0,0.0,0.0,0.0,0.0,0.0,0.0,0.0,0.0,0.0,0.0,0.0,0.0,0.0,0.0,0.0,0.0,0.0,-1.4198,-1.6032,0.0,0.0,0.0,0.0,0.0,0.0,0.0,0.0,-1.6837,0.0,0.0,0.0,0.0,0.0,0.0,0.0,0.0,0.0,0.0,0.0,0.0,0.0,0.0,0.0,0.0,0.0,0.0,0.0,0.0,0.0,0.0,0.0,0.0,0.0,0.0,0.0,0.0,0.0,0.0,0.0,0.0,0.0,0.0,0.0,0.0,0.0,0.0,0.0,0.0,0.0,0.0,0.0,0.0,0.0,0.0,0.0,0.0,0.0,0.0,0.0,0.0,0.0,0.0,0.0,0.0,-3.1691,-3.1802,-3.4104,-3.8801,-3.9183,-3.8602,-3.7135,-3.5678,-3.2845,-2.8624,0.0,0.0,0.0,0.0,0.0,0.0,0.0,0.0,0.0,0.0,0.0,0.0,0.0,0.0,0.0,0.0,0.0,0.0,0.0,0.0,0.0,0.0,0.0,0.0,0.0,0.0,0.0,0.0,0.0,0.0,0.0,0.0,0.0,0.0,0.0,0.0,0.0,0.0,0.0,-1.7587,-1.8378,0.0,0.0,0.0,0.0,0.0,0.0,0.0,0.0,-1.659,0.0,0.0,0.0,0.0,0.0,0.0,0.0,0.0,0.0,0.0,0.0,0.0,0.0,0.0,0.0,0.0,0.0,0.0,0.0,0.0,0.0,0.0,0.0,0.0,0.0,0.0,0.0,0.0,0.0,0.0,0.0,0.0,0.0,0.0,0.0,0.0,0.0,0.0,0.0,0.0,0.0,0.0,0.0,0.0,0.0,0.0,0.0,0.0,0.0,0.0,0.0,0.0,0.0,0.0,0.0,-3.1288,-3.3071,-3.5555,-3.8891,-3.9202,-3.8523,-3.6882,-3.5208,-3.2486,0.0,0.0,0.0,0.0,0.0,0.0,0.0,0.0,0.0,0.0,0.0,0.0,0.0,0.0,0.0,0.0,0.0,0.0,0.0,0.0,0.0,0.0,0.0,0.0,0.0,0.0,0.0,0.0,0.0,0.0,0.0,0.0,0.0,0.0,0.0,0.0,0.0,0.0,0.0,0.0,-1.8345,-1.9051,-2.0118,0.0,0.0,0.0,0.0,0.0,0.0,-1.8535,-1.7708,0.0,0.0,0.0,0.0,0.0,0.0,0.0,0.0,0.0,0.0,0.0,0.0,0.0,0.0,0.0,0.0,0.0,0.0,0.0,0.0,0.0,0.0,0.0,0.0,0.0,0.0,0.0,0.0,0.0,0.0,0.0,0.0,0.0,0.0,0.0,0.0,0.0,0.0,0.0,0.0,0.0,0.0,0.0,0.0,0.0,0.0,0.0,0.0,0.0,0.0,0.0,0.0,0.0,0.0,0.0,-3.0414,-3.3786,-3.6552,-3.8701,-3.9013,-3.8321,-3.6626,-3.474,-3.2056,0.0,0.0,0.0,0.0,0.0,0.0,0.0,0.0,0.0,0.0,0.0,0.0,0.0,0.0,0.0,0.0,0.0,0.0,0.0,0.0,0.0,0.0,0.0,0.0,0.0,0.0,0.0,0.0,0.0,0.0,0.0,0.0,0.0,0.0,0.0,0.0,0.0,0.0,0.0,0.0,0.0,-1.9899,-2.1017,-2.0103,0.0,0.0,0.0,0.0,-1.9943,-2.0088,0.0,0.0,0.0,0.0,0.0,0.0,0.0,0.0,0.0,0.0,0.0,0.0,0.0,0.0,0.0,0.0,0.0,0.0,0.0,0.0,0.0,0.0,0.0,0.0,0.0,0.0,0.0,0.0,0.0,0.0,0.0,0.0,0.0,0.0,0.0,0.0,0.0,0.0,0.0,0.0,0.0,0.0,0.0,0.0,0.0,0.0,0.0,0.0,0.0,0.0,0.0,0.0,0.0,0.0,0.0,0.0,-3.018,-3.2561,-3.5365,-3.8581,-3.86,-3.7888,-3.6617,-3.4562,-3.1857,0.0,0.0,0.0,0.0,0.0,0.0,0.0,0.0,0.0,0.0,0.0,0.0,0.0,0.0,0.0,0.0,0.0,0.0,0.0,0.0,0.0,0.0,0.0,0.0,0.0,0.0,0.0,0.0,0.0,0.0,0.0,0.0,0.0,0.0,0.0,0.0,0.0,0.0,0.0,0.0,0.0,-2.1046,-2.1772,-2.0799,-2.0378,0.0,0.0,0.0,-2.2388,-2.3395,0.0,0.0,0.0,0.0,0.0,0.0,0.0,0.0,0.0,0.0,0.0,0.0,0.0,0.0,0.0,0.0,0.0,0.0,0.0,0.0,0.0,0.0,0.0,0.0,0.0,0.0,0.0,0.0,0.0,0.0,0.0,0.0,0.0,0.0,0.0,0.0,0.0,0.0,0.0,0.0,0.0,0.0,0.0,0.0,0.0,0.0,0.0,0.0,0.0,0.0,0.0,0.0,0.0,0.0,0.0,-2.637,-3.0258,-3.3387,-3.6153,-3.8474,-3.8448,-3.7751,-3.6397,-3.3535,-3.0866,0.0,0.0,0.0,0.0,0.0,0.0,0.0,0.0,0.0,0.0,0.0,0.0,0.0,0.0,0.0,0.0,0.0,0.0,0.0,0.0,0.0,0.0,0.0,0.0,0.0,0.0,0.0,0.0,0.0,0.0,0.0,0.0,0.0,0.0,0.0,0.0,0.0,0.0,0.0,0.0,0.0,0.0,-2.1902,-2.183,0.0,0.0,0.0,-2.3302,-2.2504,0.0,0.0,0.0,0.0,0.0,0.0,0.0,0.0,0.0,0.0,0.0,0.0,0.0,0.0,0.0,0.0,0.0,0.0,0.0,0.0,0.0,0.0,0.0,0.0,0.0,0.0,0.0,0.0,0.0,0.0,0.0,0.0,0.0,0.0,0.0,0.0,0.0,0.0,0.0,0.0,0.0,0.0,0.0,0.0,0.0,0.0,0.0,0.0,0.0,0.0,0.0,0.0,0.0,0.0,0.0,0.0,0.0,-3.0162,-3.4086,-3.6793,-3.8197,-3.8205,-3.7516,-3.6104,-3.2982,0.0,0.0,0.0,0.0,0.0,0.0,0.0,0.0,0.0,0.0,0.0,0.0,0.0,0.0,0.0,0.0,0.0,0.0,0.0,0.0,0.0,0.0,0.0,0.0,0.0,0.0,0.0,-0.8454,0.0,0.0,0.0,0.0,0.0,0.0,0.0,0.0,0.0,0.0,0.0,0.0,0.0,0.0,-2.196,-2.2614,-2.3099,-2.3563,0.0,0.0,-2.4607,-2.3397,-2.4791,-2.4592,0.0,0.0,0.0,0.0,0.0,0.0,0.0,0.0,0.0,0.0,0.0,0.0,0.0,0.0,0.0,0.0,0.0,0.0,0.0,0.0,0.0,0.0,0.0,0.0,0.0,0.0,0.0,0.0,0.0,0.0,0.0,0.0,0.0,0.0,0.0,0.0,0.0,0.0,0.0,0.0,0.0,0.0,0.0,0.0,0.0,0.0,0.0,0.0,0.0,0.0,0.0,0.0,0.0,0.0,0.0,-2.9864,-3.3799,-3.6506,-3.7851,-3.77,-3.7004,-3.5838,-3.3668,-3.1074,0.0,0.0,0.0,0.0,0.0,0.0,0.0,0.0,0.0,0.0,0.0,0.0,0.0,0.0,0.0,0.0,0.0,0.0,0.0,0.0,0.0,0.0,0.0,0.0,0.0,0.0,0.0,0.0,0.0,0.0,0.0,0.0,0.0,0.0,0.0,0.0,0.0,0.0,0.0,0.0,0.0,-2.3905,-2.4534,-2.4679,-2.5386,0.0,0.0,-2.5879,-2.6373,-2.8028,-2.7565,-2.2614,0.0,0.0,0.0,0.0,0.0,0.0,0.0,0.0,0.0,0.0,0.0,0.0,0.0,0.0,0.0,0.0,0.0,0.0,0.0,0.0,0.0,0.0,0.0,0.0,0.0,0.0,0.0,0.0,0.0,0.0,0.0,0.0,0.0,0.0,0.0,0.0,0.0,0.0,0.0,0.0,0.0,0.0,0.0,0.0,0.0,0.0,0.0,0.0,0.0,0.0,0.0,0.0,0.0,-2.6736,-2.9671,-3.3543,-3.6326,-3.7806,-3.7642,-3.6962,-3.5826,-3.3592,-3.0959,0.0,0.0,0.0,0.0,0.0,0.0,0.0,0.0,0.0,0.0,0.0,0.0,0.0,0.0,0.0,0.0,0.0,0.0,0.0,0.0,0.0,0.0,0.0,0.0,0.0,0.0,0.0,0.0,-1.1581,-1.171,-1.1187,0.0,0.0,0.0,0.0,0.0,0.0,0.0,0.0,0.0,0.0,-2.3818,-2.5212,-2.6126,0.0,0.0,-2.765,-2.727,-2.6315,-2.6779,-2.5923,-2.2004,-2.0741,0.0,0.0,0.0,0.0,0.0,0.0,0.0,0.0,0.0,0.0,0.0,0.0,0.0,0.0,0.0,0.0,0.0,0.0,0.0,0.0,0.0,0.0,0.0,0.0,0.0,0.0,0.0,0.0,0.0,0.0,0.0,0.0,0.0,0.0,0.0,0.0,0.0,0.0,0.0,0.0,0.0,0.0,0.0,0.0,0.0,0.0,0.0,0.0,0.0,0.0,0.0,0.0,-2.6548,-2.9531,-3.3419,-3.6172,-3.7754,-3.7567,-3.6933,-3.5716,-3.3884,-3.142,0.0,0.0,0.0,0.0,0.0,0.0,0.0,0.0,0.0,0.0,0.0,0.0,0.0,0.0,0.0,0.0,0.0,0.0,0.0,0.0,0.0,0.0,0.0,0.0,0.0,0.0,0.0,0.0,-1.2553,-1.2403,-1.1318,0.0,0.0,0.0,0.0,0.0,0.0,0.0,0.0,0.0,0.0,-2.4244,-2.5604,-2.6576,-2.726,-2.7637,-2.7607,-2.7227,-2.6228,-2.6123,-2.5149,-2.2309,0.0,0.0,0.0,0.0,0.0,0.0,0.0,0.0,0.0,0.0,0.0,0.0,0.0,0.0,0.0,0.0,0.0,0.0,0.0,0.0,0.0,0.0,0.0,0.0,0.0,0.0,0.0,0.0,0.0,0.0,0.0,0.0,0.0,0.0,0.0,0.0,0.0,0.0,0.0,0.0,0.0,0.0,0.0,0.0,0.0,0.0,0.0,0.0,0.0,0.0,0.0,0.0,0.0,0.0,-2.9373,-3.3366,-3.6087,-3.7447,-3.751,-3.6846,-3.547,-3.4636,-3.2716,-2.9396,0.0,0.0,0.0,0.0,0.0,0.0,0.0,0.0,0.0,0.0,0.0,0.0,0.0,0.0,0.0,0.0,0.0,0.0,0.0,0.0,0.0,0.0,0.0,0.0,0.0,0.0,-1.1562,-1.1547,-1.1318,0.0,0.0,0.0,0.0,0.0,0.0,0.0,0.0,0.0,0.0,-2.3325,-2.572,-2.5792,-2.5847,-2.6387,-2.7565,-2.6242,-2.5444,-2.6605,-2.6762,-2.6123,0.0,0.0,0.0,0.0,0.0,0.0,0.0,0.0,0.0,0.0,0.0,0.0,0.0,0.0,0.0,0.0,0.0,0.0,0.0,0.0,0.0,0.0,0.0,0.0,0.0,0.0,0.0,-2.3401,-2.2499,0.0,0.0,0.0,0.0,0.0,0.0,0.0,0.0,0.0,0.0,0.0,-2.6841,-2.7789,0.0,0.0,0.0,0.0,0.0,0.0,0.0,0.0,0.0,0.0,0.0,0.0,-2.6883,-2.9254,-3.3288,-3.6074,-3.7462,-3.751,-3.7038,-3.6105,-3.492,-3.2311,-2.814,0.0,0.0,0.0,0.0,0.0,0.0,0.0,0.0,0.0,0.0,0.0,0.0,0.0,0.0,0.0,0.0,0.0,0.0,0.0,0.0,0.0,0.0,0.0,0.0,0.0,-1.2594,0.0,0.0,0.0,0.0,0.0,0.0,0.0,0.0,0.0,0.0,0.0,-1.9575,-2.1678,-2.3455,-2.5019,-2.6297,-2.6808,-2.7507,0.0,0.0,0.0,0.0,0.0,0.0,0.0,0.0,0.0,0.0,0.0,0.0,0.0,0.0,-2.2367,-1.8579,-1.8013,-1.8274,-1.8709,0.0,0.0,0.0,0.0,0.0,0.0,0.0,0.0,0.0,0.0,0.0,0.0,0.0,0.0,0.0,0.0,-2.5451,0.0,0.0,0.0,0.0,0.0,0.0,0.0,0.0,-2.8221,-2.9848,-3.0275,-3.1216,-3.1153,0.0,-2.9535,-2.7285,0.0,0.0,0.0,0.0,0.0,0.0,0.0,0.0,-2.7393,-2.954,-3.364,-3.6311,-3.7447,-3.751,-3.7022,-3.609,-3.4462,-3.1937,-2.8418,-2.5648,-2.3462,0.0,0.0,0.0,0.0,0.0,0.0,0.0,0.0,0.0,0.0,0.0,0.0,0.0,0.0,0.0,0.0,0.0,0.0,0.0,0.0,0.0,0.0,0.0,-1.3615,0.0,0.0,0.0,0.0,0.0,0.0,0.0,0.0,0.0,-1.785,-1.9343,-2.1199,-2.3302,-2.4152,-2.5009,-2.6283,0.0,0.0,0.0,0.0,0.0,0.0,0.0,-2.4907,-2.4907,-2.4399,-2.4268,-2.5081,-2.5908,-2.6315,-2.589,0.0,0.0,-2.1917,-2.1307,-2.1554,-2.1989,-2.2585,-2.3064,-2.3304,-2.3963,-2.4486,0.0,0.0,0.0,0.0,0.0,0.0,0.0,0.0,-2.9461,-2.9398,0.0,-2.8616,0.0,0.0,0.0,0.0,0.0,0.0,0.0,0.0,-3.4056,-3.5695,-3.4446,-3.4446,-3.4431,-3.4363,-3.3326,-3.1964,-3.0165,-2.6375,0.0,0.0,0.0,0.0,0.0,0.0,-2.8189,-3.0346,-3.432,-3.6769,-3.7478,-3.751,-3.6817,-3.5426,-3.343,-3.1706,-3.0299,-2.8939,-2.6712,-2.3326,-2.1311,0.0,0.0,0.0,0.0,0.0,0.0,0.0,0.0,0.0,0.0,0.0,0.0,0.0,0.0,0.0,0.0,0.0,0.0,0.0,0.0,-1.3992,0.0,0.0,0.0,0.0,0.0,0.0,0.0,0.0,0.0,0.0,-1.9377,-2.1402,-2.338,-2.465,0.0,0.0,0.0,0.0,-2.589,-2.5995,-2.539,-2.5274,-2.5952,-2.65,-2.6864,-2.6936,0.0,0.0,-2.8014,-2.784,-2.7521,-2.6242,-2.7128,-2.7623,-2.698,-2.6181,-2.5803,-2.5803,-2.5415,-2.527,-2.5763,-2.605,-2.6257,-3.5047,0.0,0.0,0.0,0.0,-3.2471,-3.3878,-3.6469,-3.5505,-3.4525,-3.3546,-3.2835,0.0,0.0,0.0,0.0,0.0,0.0,-3.1372,-3.2914,-3.5315,-3.6738,-3.7306,-3.7796,-3.7765,-3.7275,-3.6521,-3.5364,-3.3889,-3.2206,-2.8566,-2.3114,0.0,0.0,0.0,0.0,-3.0093,-3.1785,-3.481,-3.6769,-3.7494,-3.751,-3.6817,-3.541,-3.3862,-3.2582,-3.1706,-2.988,-2.8208,-2.6688,-2.3748,0.0,0.0,0.0,0.0,0.0,0.0,0.0,0.0,0.0,0.0,0.0,0.0,0.0,0.0,0.0,0.0,0.0,0.0,0.0,-1.3948,-1.5008,-1.5197,0.0,0.0,0.0,0.0,0.0,0.0,0.0,0.0,0.0,-2.3099,-2.3426,-2.407,0.0,0.0,-2.5245,-2.572,-2.6224,-2.6982,-2.8332,0.0,0.0,0.0,-2.8898,-2.8476,-2.9377,-3.0335,-3.0813,-3.0465,-3.0799,-3.0842,-2.9987,-3.0176,-3.0234,-2.961,-2.8622,-2.7924,-2.7895,-2.8057,-2.8275,-2.8507,-2.8869,-2.9392,-4.034,-3.7291,-3.5663,-3.5758,-3.6959,-3.6532,-3.7875,-4.0277,-3.9471,-3.8506,-3.7433,-3.699,-3.4873,-3.153,-3.0733,0.0,0.0,0.0,-3.423,-3.6011,-3.7433,-3.8508,-3.9345,-3.9756,-3.974,-3.9329,-3.8756,-3.7979,-3.7006,-3.5883,-3.2885,-2.8142,0.0,0.0,-2.5934,-2.954,-3.1991,-3.3161,-3.5552,-3.7054,-3.7494,-3.6927,-3.6276,-3.5394,-3.402,-3.285,-3.1912,-3.0622,-2.9351,-2.8126,-2.5318,-2.2859,0.0,0.0,0.0,0.0,0.0,0.0,0.0,0.0,0.0,0.0,0.0,-1.1384,0.0,0.0,0.0,0.0,-1.334,-1.4819,-1.6081,-1.6459,0.0,0.0,0.0,0.0,0.0,0.0,0.0,-2.0503,-2.2788,-2.4617,-2.5473,-2.5462,-2.5792,-2.6794,-2.6361,-2.6187,-2.6864,0.0,-2.8318,-2.9436,-2.9856,-3.0263,-3.1003,-3.0408,-3.0263,-3.1542,-3.2019,-3.228,-3.2309,-3.2643,-3.2643,-3.2075,-3.1917,-3.1714,-3.1061,-3.0306,-2.9697,-2.9508,-2.9726,-2.9987,-2.9987,-3.051,-3.1076,-4.4496,-4.3513,-3.974,-3.8855,-3.9898,-3.9929,-4.0688,-4.1889,-4.1857,-4.1462,-4.0846,-4.0735,-3.8839,-3.5616,-3.373,0.0,0.0,-3.6153,-3.7435,-3.8807,-4.0087,-4.0688,-4.0688,-4.0672,-4.0688,-4.0656,-4.0244,-3.9894,-3.9502,-3.7902,-3.6246,-3.4616,-3.2677,-3.1223,-3.0433,-3.2329,-3.3704,-3.4383,-3.6358,-3.7462,-3.7494,-3.6105,-3.5394,-3.5379,-3.3988,-3.2629,-3.1381,-3.1126,-3.0195,-2.8331,-2.6261,-2.4351,-2.2558,0.0,0.0,0.0,0.0,0.0,0.0,0.0,0.0,0.0,0.0,0.0,0.0,0.0,0.0,0.0,-1.6561,0.0,-1.9072,-1.8172,0.0,0.0,0.0,-1.8085,-1.9348,-2.0611,-2.183,-2.2989,0.0,0.0,0.0,0.0,-2.8087,-2.8781,-2.8231,-2.8028,-2.8694,-2.9247,-2.9697,-2.9914,-3.0422,-3.0859,-3.1192,-3.1482,-3.2121,-3.3209,-3.3576,-3.3532,-3.3499,-3.3561,-3.3282,-3.2701,-3.2553,-3.2338,-3.1642,-3.1393,-3.1292,-3.0656,-3.0569,-3.0598,-3.0655,-3.1018,-3.1395,-4.5918,-4.5223,-4.4243,-4.3706,-4.3485,-4.3485,-4.3974,-4.4749,-4.4211,-4.3595,-4.2882,-4.1825,-4.0293,-3.8491,-3.8002,-3.8254,-3.9123,-3.9455,-4.0056,-4.0862,-4.1193,-4.1351,-4.1351,-4.1351,-4.1351,-4.132,-4.0736,-4.0404,-4.0293,-3.9344,-3.841,-3.7496,-3.6485,-3.4304,-3.1176,-3.3024,-3.4442,-3.5142,-3.6153,-3.6943,-3.7447,-3.6105,-3.5394,-3.5379,-3.3541,-3.2386,-3.2054,-3.0714,-2.9906,-2.9674,-2.7433,-2.5491,-2.4048,-2.0419,0.0,0.0,0.0,0.0,0.0,0.0,0.0,0.0,0.0,-1.4921,-1.1739,0.0,-1.6719,0.0,-1.7345,-1.8985,-1.9783,-2.0001,0.0,0.0,-2.064,-2.1365,-2.2614,-2.39,-2.4762,-2.5067,-2.6704,-2.7924,-2.8215,-2.8768,-2.9378,-3.0031,-2.9188,-2.8695,-2.9319,-2.9943,-3.0713,-3.1613,-3.2309,-3.298,-3.3325,-3.3616,-3.379,-3.4138,-3.4182,-3.4196,-3.4182,-3.4182,-3.3978,-3.3398,-3.3271,-3.2803,-3.1743,-3.1495,-3.1293,-3.0757,-3.0612,-3.0727,-3.1177,-3.1047,-3.109,-4.6882,-4.6266,-4.625,-4.5839,-4.5207,-4.5207,-4.5428,-4.5776,-4.5381,-4.4812,-4.4085,-4.2679,-4.1462,-4.0451,-4.0435,-4.0656,-4.102,-4.1035,-4.1241,-4.1588,-4.1588,-4.1588,-4.1588,-4.1588,-4.1588,-4.1573,-4.1209,-4.1035,-4.1004,-4.0324,-3.9803,-3.9439,-3.8744,-3.6911,-3.4146,-3.4525,-3.4984,-3.5394,-3.6045,-3.6769,-3.7431,-3.615,-3.5094,-3.4462,-3.3066,-3.1706,-3.0473,-2.9607,-2.8927,-2.8325,-2.6439,-2.4927,-2.3851,-2.0791,-1.8253,0.0,0.0,0.0,0.0,0.0,0.0,0.0,0.0,0.0,0.0,0.0,-1.827,0.0,-1.9474,0.0,-2.1315,-2.1931,-2.2396,-2.2664,-2.3557,-2.4515,-2.5502,-2.6474,-2.7186,-2.7461,-2.8448,-2.9203,-2.9522,-2.9827,-3.0176,-3.0554,-2.9987,-2.9653,-3.0045,-3.0814,-3.1714,-3.2411,-3.3296,-3.3993,-3.437,-3.438,-3.438,-3.438,-3.438,-3.438,-3.438,-3.438,-3.4283,-3.3983,-3.3692,-3.3198,-3.2179,-3.1669,-3.1322,-3.0771,-3.0612,-3.0743,-3.1032,-3.1279,-3.1656,-4.7593,-4.6929,-4.6834,-4.6471,-4.5934,-4.5855,-4.5807,-4.5807,-4.5807,-4.5349,-4.4512,-4.3342,-4.2363,-4.1604,-4.1588,-4.1588,-4.1588,-4.1588,-4.1588,-4.1588,-4.1588,-4.1588,-4.1588,-4.1588,-4.1588,-4.1588,-4.1588,-4.1588,-4.1557,-4.1004,-4.0688,-4.0577,-3.985,-3.8823,-3.751,-3.6184,-3.5489,-3.5394,-3.6045,-3.6722,-3.7306,-3.5992,-3.462,-3.334,-3.2481,-3.0852,-2.8363,-2.8295,-2.7617,-2.6141,-2.4821,-2.3806,-2.3193,-2.0766,-1.8862,0.0,-1.6691,0.0,0.0,0.0,0.0,0.0,0.0,0.0,0.0,-1.9217,-1.9986,-2.0619,-2.2272,-2.3293,-2.3403,-2.3983,-2.4602,-2.5129,-2.6286,-2.7273,-2.7869,-2.8477,-2.9044,-2.9668,-2.9711,-2.9972,-3.0481,-3.0612,-3.0598,-3.0598,-3.0554,-3.0496,-3.0685,-3.1627,-3.2469,-3.2629,-3.3645,-3.4356,-3.4399,-3.438,-3.438,-3.438,-3.438,-3.438,-3.438,-3.438,-3.4366,-3.4341,-3.391,-3.3285,-3.2629,-3.193,-3.1322,-3.0728,-3.0612,-3.0685,-3.099,-3.1598,-3.2147,-4.8304,-4.7656,-4.7056,-4.6724,-4.6566,-4.6044,-4.5807,-4.5807,-4.5807,-4.508,-4.388,-4.3627,-4.2789,-4.1636,-4.1588,-4.1588,-4.1588,-4.1588,-4.1588,-4.1588,-4.1588,-4.1588,-4.1588,-4.1588,-4.1588,-4.1588,-4.1588,-4.1588,-4.1588,-4.1462,-4.113,-4.0593,-3.9866,-3.8807,-3.7541,0.0,0.0,0.0,-3.6074,-3.6456,-3.6564,-3.5221,-3.413,-3.3293,-3.1548,0.0,-2.8933,-2.7609,-2.6751,-2.6399,-2.5319,0.0,0.0,0.0,0.0,0.0,0.0,0.0,0.0,0.0,0.0,0.0,-2.17,-2.1098,-1.9909,-2.1728,-2.3252,-2.3867,-2.4708,-2.5473,-2.601,-2.6634,-2.7028,-2.7173,-2.7868,-2.8579,-2.916,-2.9349,-2.9697,-3.0351,-3.0423,-3.0452,-3.0569,-3.0612,-3.0612,-3.0612,-3.0612,-3.0612,-3.0612,-3.1685,-3.2687,-3.3224,-3.3964,-3.4366,-3.438,-3.438,-3.438,-3.438,-3.438,-3.4399,-3.4351,-3.438,-3.4399,-3.437,-3.3891,-3.33,-3.2643,-3.1944,-3.1322,-3.0698,-3.0612,-3.0917,-3.1903,-3.1888,-3.183,-4.9015,0.0,-4.7624,-4.7135,0.0,-4.6092,-4.5807,-4.5807,-4.5807,-4.5207,-4.418,-4.3864,-4.3121,-4.211,-4.1746,-4.1588,-4.1588,-4.1588,-4.1588,-4.1588,-4.1588,-4.1588,-4.1588,-4.1588,-4.1588,-4.1588,-4.1588,-4.1588,-4.1588,-4.1588,-4.1415,-4.1083,-4.0719,-4.0024,-3.9013,-3.797,-3.6914,-3.5916,-3.6219,-3.6434,-3.651,-3.5757,-3.4557,-3.2962,0.0,0.0,0.0,0.0,0.0,0.0,0.0,0.0,0.0,0.0,0.0,-2.2476,-2.273,-2.2904,-2.2918,-2.3209,-2.3804,-2.4762,-2.51,-2.4592,-2.3043,-2.4689,-2.5897,-2.6202,-2.6837,-2.7387,-2.7721,-2.8289,-2.8638,-2.8667,-2.9232,-2.9769,-3.0031,-3.0089,-3.0219,-3.0525,-3.0612,-3.0612,-3.0612,-3.0612,-3.0612,-3.0612,-3.0612,-3.0627,-3.0714,-3.17,-3.2817,-3.3761,-3.4167,-3.4366,-3.438,-3.438,-3.438,-3.438,-3.438,-3.4283,-3.3993,-3.4196,-3.4327,-3.4022,-3.3692,-3.33,-3.2629,-3.1944,-3.1322,-3.0786,-3.0612,-3.0872,-3.1801,-3.1712,-3.1567,-4.9584,-4.9015,-4.8351,-4.7656,-4.6945,-4.6266,-4.5918,-4.5807,0.0,0.0,0.0,-4.3971,-4.3342,-4.2647,-4.192,-4.1588,-4.1588,-4.1588,-4.1588,-4.1588,-4.1588,-4.1588,-4.1588,-4.1588,-4.1588,-4.1588,-4.1588,-4.1588,-4.1588,-4.1588,-4.1588,-4.1588,-4.1588,-4.1257,-4.0546,-3.9218,-3.7938,-3.6819,-3.6535,-3.6501,-3.6628,-3.6287,-3.4992,-3.2748,-3.2912,-3.1722,-2.8989,-2.8369,-2.751,-2.6248,-2.5091,-2.4341,-2.4027,-2.4352,-2.4559,-2.4617,-2.5662,-2.6312,-2.6326,-2.6835,-2.7198,-2.73,-2.7868,-2.7679,-2.6402,-2.7347,-2.8029,-2.8043,-2.8652,-2.9043,-2.9043,-2.9464,-2.9798,-2.9798,-3.0292,-3.0598,-3.0598,-3.0612,-3.0583,-3.0612,-3.0728,-3.0728,-3.0627,-3.0728,-3.0742,-3.0786,-3.083,-3.0903,-3.1164,-3.1961,-3.293,-3.4095,-3.4385,-3.438,-3.438,-3.438,-3.438,-3.438,-3.438,-3.4211,-3.3862,-3.4066,-3.4167,-3.3867,-3.3605,-3.33,-3.2774,-3.2162,-3.1496,-3.0858,-3.0772,-3.0917,-3.1351,-3.1393,-3.1424,-4.9829,-4.971,-4.9031,-4.8367,-4.7688,-4.6961,-4.6345,-4.5823,-4.5807,-4.5396,-4.467,-4.3971,-4.3342,-4.2663,-4.1904,-4.1588,-4.1588,-4.1588,-4.1588,0.0,-4.1588,-4.1588,-4.1588,-4.1588,-4.1588,-4.1588,-4.1588,-4.1588,-4.1588,-4.1588,-4.1588,-4.1588,-4.1588,-4.1257,-4.0546,-3.9218,-3.8412,-3.8191,-3.7008,-3.6411,-3.6403,-3.5406,-3.4412,-3.3491,-3.254,-3.146,-3.0284,-2.919,-2.8304,-2.7637,-2.7126,-2.6688,-2.6374,-2.6849,-2.7159,-2.7202,-2.7868,-2.8302,-2.8302,-2.8404,-2.8652,-2.916,-2.9813,-2.9668,-2.8462,-2.8942,-2.932,-2.9349,-2.99,-3.0336,-3.0336,-3.0409,-3.0467,-3.0451,-3.0554,-3.0612,-3.067,-3.0685,-3.0699,-3.0714,-3.1061,-3.1177,-3.0845,-3.109,-3.1395,-3.1395,-3.1395,-3.1743,-3.2603,-3.273,-3.3079,-3.408,-3.438,-3.438,-3.438,-3.438,-3.438,-3.438,-3.438,-3.4327,-3.4066,-3.4254,-3.4312,-3.424,-3.3837,-3.3518,-3.3329,-3.2817,-3.2135,-3.1496,-3.1277,-3.135,-3.1453,-3.1119,-3.1105,-4.9916,-4.9797,-4.9173,-4.8715,-4.8351,-4.7277,-4.6424,-4.5839,-4.5807,-4.5649,-4.5254,-4.4575,-4.388,-4.3216,-4.2505,-4.1968,-4.1588,-4.1588,-4.1588,-4.1588,-4.1588,-4.1588,-4.1588,-4.1588,-4.1588,-4.1588,-4.1588,-4.1588,-4.1588,-4.1588,-4.1588,-4.1588,-4.1588,-4.1257,-4.0577,-3.9566,-3.8871,-3.8507,-3.7512,-3.6873,-3.6544,-3.6023,-3.5273,-3.4344,-3.3757,-3.3002,-3.1977,-3.0771,-2.9888,-2.9383,-2.8542,-2.8,-2.7852,-2.8405,-2.8739,-2.8754,-2.9348,-2.974,-2.974,-2.974,-2.9827,-3.0132,-3.0727,-3.0858,-3.0263,-3.0161,-3.0132,-3.0147,-3.0452,-3.0612,-3.0627,-3.0872,-3.1076,-3.1076,-3.1395,-3.1627,-3.1627,-3.1613,-3.1627,-3.1642,-3.1888,-3.1946,-3.1656,-3.1874,-3.2031,-3.2031,-3.2063,-3.2454,-3.3373,-3.3238,-3.3354,-3.4177,-3.438,-3.438,-3.438,-3.438,-3.438,-3.438,-3.438,-3.4124,-3.3674,-3.3848,-3.4095,-3.3568,-3.3645,-3.3804,-3.362,-3.3285,-3.2629,-3.1712,-3.1495,-3.1393,-3.1105,-3.1003,-3.1322,-4.9916,-4.9868,-4.9347,-4.9031,-4.8762,-4.7387,-4.6503,-4.6044,-4.5886,-4.5807,-4.5713,-4.5033,-4.4433,-4.3861,-4.3074,-4.2378,-4.1857,-4.1667,-4.1588,-4.1588,-4.1588,-4.1588,-4.1588,-4.1588,-4.1588,-4.1588,-4.1588,-4.1588,-4.1588,-4.1588,-4.1588,-4.1588,-4.1588,-4.1336,-4.0814,-4.0119,-3.9487,-3.8935,-3.8021,-3.7292,-3.6723,-3.6585,-3.6029,-3.5043,-3.4826,-3.4352,-3.3415,-3.2359,-3.1603,-3.1186,-3.0163,-2.9508,-2.9377,-2.9784,-2.9958,-2.9885,-3.0292,-3.067,-3.0801,-3.0816,-3.0888,-3.1048,-3.1467,-3.1712,-3.1714,-3.1308,-3.1018,-3.1048,-3.1092,-3.1077,-3.1119,-3.1453,-3.1712,-3.1741,-3.2162,-3.2425,-3.2498,-3.2481,-3.2481,-3.2481,-3.2629,-3.2687,-3.2571,-3.2643,-3.273,-3.273,-3.2832,-3.3166,-3.3572,-3.3674,-3.3906,-3.4225,-3.438,-3.438,-3.438,-3.438,-3.438,-3.438,-3.438,-3.4051,-3.3499,-3.3891,-3.4037,-3.338,-3.3775,-3.4124,-3.379,-3.3688,-3.3166,-3.2118,-3.1799,-3.1509,-3.0814,-3.093,-3.125,-4.9916,-4.9916,-4.9821,-4.9457,-4.8762,-4.7419,-4.6771,-4.6613,-4.606,-4.5807,-4.5744,-4.5033,-4.4685,-4.4448,-4.3295,-4.2679,-4.2505,-4.1889,-4.1604,-4.1588,-4.1588,-4.1588,-4.1588,-4.1588,-4.1588,-4.1588,-4.1588,-4.1588,-4.1588,-4.1588,-4.1588,-4.1588,-4.1588,-4.1573,-4.1415,-4.0814,-4.0451,-4.0372,-3.8607,-3.7344,-3.6724,-3.6227,-3.5706,-3.521,-3.4684,-3.4339,-3.4002,-3.3563,-3.3194,-3.2964,-3.2384,-3.1859,-3.1292,-3.1277,-3.109,-3.0553,-3.0598,-3.0845,-3.1366,-3.1438,-3.1685,-3.2266,-3.2336,-3.2394,-3.2394,-3.2382,-3.2321,-3.2324,-3.2324,-3.2237,-3.2338,-3.2382,-3.2425,-3.2394,-3.2556,-3.2481,-3.2568,-3.2481,-3.2481,-3.2481,-3.3093,-3.318,-3.2817,-3.3064,-3.3402,-3.3416,-3.3732,-3.4018,-3.4182,-3.4225,-3.424,-3.4337,-3.438,-3.438,-3.438,-3.438,-3.438,-3.438,-3.438,-3.4225,-3.4095,-3.4124,-3.425,-3.3891,-3.4182,-3.4312,-3.4327,-3.4283,-3.3804,-3.2611,-3.2162,-3.2004,-3.099,-3.0757,-3.0814,-4.9916,-4.9916,-4.9916,-4.9521,-4.8794,-4.7846,-4.7198,-4.674,-4.6092,-4.5807,-4.5776,-4.5455,-4.5112,-4.467,-4.4117,-4.3469,-4.2695,-4.2363,-4.1999,-4.162,-4.1588,-4.1588,-4.1588,-4.1588,-4.1588,-4.1588,-4.1588,-4.1588,-4.1588,-4.1588,-4.1588,-4.1588,-4.1588,-4.1588,-4.1541,-4.0941,-4.0275,-3.953,-3.8323,-3.7092,-3.597,-3.5608,-3.5382,-3.5169,-3.4668,-3.4365,-3.424,-3.3806,-3.3471,-3.334,-3.2812,-3.2365,-3.2135,-3.2106,-3.199,-3.1743,-3.1714,-3.183,-3.2092,-3.2075,-3.2191,-3.2481,-3.2861,-3.3064,-3.3108,-3.3412,-3.3645,-3.3558,-3.293,-3.2481,-3.2524,-3.2861,-3.3093,-3.3122,-3.3398,-3.3597,-3.3612,-3.3597,-3.3645,-3.3626,-3.3848,-3.3935,-3.3732,-3.3862,-3.4022,-3.4051,-3.4283,-3.4366,-3.438,-3.438,-3.438,-3.438,-3.438,-3.438,-3.438,-3.438,-3.438,-3.438,-3.438,-3.4356,-3.4008,-3.424,-3.4312,-3.3964,-3.4211,-3.4366,-3.4366,-3.4022,-3.3558,-3.2687,-3.206,-3.1729,-3.1206,-3.1134,-3.1018,-4.9916,-4.9916,-4.9916,-4.9647,-4.9126,-4.8462,-4.7767,-4.7056,-4.6376,-4.5981,-4.5823,-4.5807,-4.5507,-4.5033,-4.4812,-4.4069,-4.3042,-4.2774,-4.2284,-4.1652,-4.1588,-4.1588,-4.1588,-4.1588,-4.1588,-4.1588,-4.1588,-4.1588,-4.1588,-4.1588,-4.1588,-4.1588,-4.1588,-4.1588,-4.1541,-4.0952,-4.0219,-3.9344,-3.8217,-3.696,-3.5881,-3.5263,-3.4971,-3.4953,-3.4601,-3.438,-3.4399,-3.3964,-3.3765,-3.3736,-3.3282,-3.2916,-3.2788,-3.2774,-3.2701,-3.251,-3.2481,-3.26,-3.2759,-3.2774,-3.2846,-3.3003,-3.3518,-3.3732,-3.379,-3.4138,-3.4351,-3.4312,-3.3572,-3.3079,-3.3093,-3.3456,-3.3736,-3.3794,-3.4167,-3.4414,-3.4351,-3.438,-3.4337,-3.438,-3.4327,-3.438,-3.4366,-3.4351,-3.437,-3.4385,-3.4399,-3.438,-3.438,-3.438,-3.438,-3.438,-3.438,-3.438,-3.438,-3.438,-3.438,-3.438,-3.438,-3.4269,-3.3837,-3.4211,-3.4385,-3.4167,-3.4298,-3.4225,-3.4051,-3.3678,-3.3184,-3.2411,-3.1787,-3.1351,-3.1105,-3.1221,-3.1047,-4.9916,-4.9916,-4.9916,-4.9884,-4.9765,-4.911,-4.8446,-4.7757,-4.7024,-4.6392,-4.5875,-4.5807,-4.5792,-4.5681,-4.5085,-4.4338,-4.3624,-4.3026,-4.2363,-4.1699,-4.1604,-4.1588,-4.1588,-4.1588,-4.1621,-4.1654,-4.1654,-4.1621,-4.1588,-4.1588,-4.1588,-4.1588,-4.1588,-4.1588,-4.154,-4.1093,-4.0755,-4.0263,-3.844,-3.7173,-3.6857,-3.5331,-3.4525,-3.4525,-3.4414,-3.438,-3.4414,-3.4385,-3.4356,-3.4356,-3.4269,-3.4008,-3.3547,-3.346,-3.318,-3.2687,-3.2571,-3.2832,-3.3373,-3.346,-3.3645,-3.4153,-3.424,-3.4356,-3.4283,-3.4356,-3.438,-3.4366,-3.4283,-3.4163,-3.4163,-3.4182,-3.4283,-3.4298,-3.4356,-3.438,-3.438,-3.438,-3.438,-3.438,-3.438,-3.438,-3.438,-3.438,-3.438,-3.438,-3.438,-3.438,-3.438,-3.438,-3.438,-3.438,-3.438,-3.438,-3.438,-3.438,-3.438,-3.438,-3.4366,-3.4351,-3.4366,-3.4399,-3.437,-3.4341,-3.4385,-3.4182,-3.3717,-3.3271,-3.2759,-3.2106,-3.138,-3.0959,-3.109,-3.0756,-3.067,-4.9916,-4.9916,-4.9916,-4.9916,-4.9837,-4.9173,-4.8663,-4.8169,-4.7505,-4.6917,-4.6519,-4.6227,-4.6104,-4.6088,-4.5833,-4.5199,-4.4322,-4.3643,-4.2963,-4.2284,-4.181,-4.172,-4.19,-4.1916,-4.1916,-4.1916,-4.1931,-4.1818,-4.1621,-4.1588,-4.1588,-4.1588,-4.1588,-4.1588,-4.1555,-4.1423,-4.0818,-3.9692,-3.8728,-3.7819,-3.669,-3.5563,-3.5058,-3.5029,-3.4617,-3.438,-3.438,-3.438,-3.438,-3.438,-3.438,-3.4312,-3.4109,-3.4066,-3.3978,-3.3775,-3.3717,-3.3833,-3.4037,-3.408,-3.4153,-3.437,-3.438,-3.438,-3.438,-3.438,-3.438,-3.438,-3.438,-3.438,-3.438,-3.438,-3.438,-3.438,-3.438,-3.438,-3.438,-3.438,-3.438,-3.438,-3.438,-3.438,-3.438,-3.438,-3.438,-3.438,-3.438,-3.438,-3.438,-3.438,-3.438,-3.438,-3.438,-3.438,-3.438,-3.438,-3.438,-3.438,-3.438,-3.4366,-3.438,-3.438,-3.4385,-3.4385,-3.438,-3.424,-3.3761,-3.289,-3.2396,-3.1787,-3.1061,-3.0945,-3.1177,-3.0916,-3.0771,-5.0292,-5.0292,-5.0292,-5.0308,-5.0245,-4.9783,-4.9142,-4.8461,-4.7949,-4.7301,-4.6638,-4.6372,-4.6301,-4.6321,-4.6442,-4.6131,-4.5359,-4.448,-4.3667,-4.3,-4.2267,-4.2029,-4.2222,-4.2254,-4.2206,-4.2109,-4.198,-4.1818,-4.1621,-4.1588,-4.1588,-4.1588,-4.1588,-4.1588,-4.1588,-4.1456,-4.0689,-3.9692,-3.9223,-3.8292,-3.6954,-3.6312,-3.5755,-3.5412,-3.4971,-3.4617,-3.4395,-3.438,-3.438,-3.438,-3.438,-3.438,-3.438,-3.438,-3.438,-3.438,-3.4366,-3.438,-3.438,-3.438,-3.4414,-3.438,-3.438,-3.438,-3.438,-3.438,-3.438,-3.438,-3.438,-3.438,-3.438,-3.438,-3.438,-3.438,-3.438,-3.438,-3.438,-3.438,-3.438,-3.438,-3.438,-3.438,-3.438,-3.438,-3.438,-3.438,-3.438,-3.438,-3.438,-3.438,-3.438,-3.438,-3.438,-3.438,-3.438,-3.438,-3.438,-3.438,-3.438,-3.438,-3.438,-3.438,-3.438,-3.438,-3.4327,-3.4167,-3.3616,-3.2701,-3.2004,-3.1424,-3.1061,-3.0888,-3.1018,-3.1119,-3.0887,-5.1081,-5.1027,-5.1065,-5.0989,-5.0989,-5.0925,-5.0032,-4.8721,-4.8524,-4.7613,-4.6374,-4.6282,-4.6426,-4.6426,-4.6772,-4.6844,-4.6534,-4.5403,-4.4398,-4.3687,-4.2943,-4.2619,-4.2601,-4.2585,-4.2428,-4.2142,-4.1785,-4.1621,-4.1588,-4.1588,-4.1588,-4.1588,-4.1588,-4.1588,-4.1588,-4.1189,-4.0836,-4.0461,-3.9673,-3.8786,-3.8126,-3.7471,-3.6665,-3.5735,-3.5476,-3.5107,-3.4486,-3.4395,-3.438,-3.438,-3.438,-3.438,-3.438,-3.438,-3.438,-3.438,-3.438,-3.438,-3.438,-3.438,-3.438,-3.438,-3.438,-3.438,-3.438,-3.438,-3.438,-3.438,-3.4414,-3.4428,-3.4472,-3.4443,-3.438,-3.438,-3.438,-3.438,-3.438,-3.438,-3.438,-3.438,-3.438,-3.438,-3.438,-3.438,-3.438,-3.438,-3.438,-3.438,-3.438,-3.438,-3.438,-3.438,-3.438,-3.438,-3.438,-3.438,-3.438,-3.438,-3.438,-3.438,-3.438,-3.438,-3.438,-3.438,-3.438,-3.4225,-3.3485,-3.2585,-3.1787,-3.1235,-3.099,-3.0845,-3.083,-3.0858,-3.0801,-5.1102,-5.1102,-5.1102,-5.1102,-5.1102,-5.1102,-5.0383,-4.9294,-4.9245,-4.8502,-4.7414,-4.715,-4.7066,-4.705,-4.7202,-4.7252,-4.7155,-4.6044,-4.5128,-4.4432,-4.3686,-4.318,-4.2978,-4.2943,-4.2758,-4.2412,-4.1867,-4.1588,-4.1621,-4.1621,-4.1588,-4.1588,-4.1588,-4.1588,-4.1588,-4.1423,-4.1205,-4.0817,-4.0446,-3.9929,-3.9295,-3.8322,-3.7608,-3.7216,-3.6399,-3.5639,-3.5101,-3.4646,-3.4428,-3.4414,-3.438,-3.438,-3.438,-3.438,-3.438,-3.438,-3.438,-3.438,-3.438,-3.438,-3.438,-3.438,-3.438,-3.438,-3.438,-3.4428,-3.4443,-3.4428,-3.438,-3.4545,-3.4893,-3.4661,-3.4501,-3.438,-3.438,-3.438,-3.438,-3.438,-3.438,-3.438,-3.438,-3.438,-3.438,-3.438,-3.438,-3.438,-3.438,-3.438,-3.438,-3.438,-3.438,-3.438,-3.438,-3.438,-3.438,-3.438,-3.438,-3.438,-3.438,-3.438,-3.438,-3.438,-3.438,-3.4337,-3.4351,-3.4037,-3.3282,-3.2646,-3.1888,-3.1438,-3.1337,-3.1061,-3.0728,-3.0728,-3.0917,-5.1582,-5.1582,-5.1598,-5.1582,-5.1582,-5.1598,-5.0801,-4.9698,-4.9583,-4.8849,-4.7751,-4.7454,-4.7404,-4.7438,-4.7571,-4.7638,-4.7523,-4.6613,-4.5825,-4.5096,-4.4085,-4.3522,-4.3251,-4.3127,-4.3005,-4.271,-4.2206,-4.1964,-4.1964,-4.1964,-4.19,-4.1818,-4.1785,-4.172,-4.1621,-4.1588,-4.139,-4.1138,-4.1088,-4.0802,-4.0228,-3.951,-3.8898,-3.8357,-3.7382,-3.6517,-3.5732,-3.5088,-3.4646,-3.4472,-3.438,-3.438,-3.438,-3.438,-3.438,-3.438,-3.438,-3.438,-3.438,-3.438,-3.438,-3.438,-3.438,-3.438,-3.4457,-3.4559,-3.4762,-3.4762,-3.5024,-3.527,-3.5575,-3.5401,-3.514,-3.5125,-3.4641,-3.4424,-3.438,-3.438,-3.438,-3.438,-3.438,-3.438,-3.438,-3.438,-3.438,-3.438,-3.438,-3.438,-3.438,-3.438,-3.438,-3.438,-3.438,-3.438,-3.438,-3.438,-3.438,-3.438,-3.438,-3.438,-3.438,-3.438,-3.438,-3.4269,-3.4225,-3.392,-3.3271,-3.2948,-3.2411,-3.2121,-3.1743,-3.1555,-3.1351,-3.1438,-3.154,-5.2373,-5.2409,-5.2373,-5.2338,-5.2321,-5.2238,-5.1234,-4.9784,-4.9571,-4.8629,-4.738,-4.7371,-4.7471,-4.7521,-4.782,-4.7935,-4.7835,-4.6991,-4.6311,-4.5471,-4.4365,-4.3572,-4.3509,-4.3235,-4.3066,-4.3005,-4.2695,-4.2554,-4.2491,-4.2491,-4.2428,-4.2077,-4.2013,-4.1916,-4.1654,-4.1588,-4.1588,-4.1522,-4.1555,-4.129,-4.0867,-4.0699,-4.0216,-3.9154,-3.8442,-3.7511,-3.6507,-3.58,-3.5096,-3.453,-3.438,-3.438,-3.438,-3.438,-3.438,-3.438,-3.438,-3.438,-3.438,-3.438,-3.438,-3.438,-3.4516,-3.4472,-3.4603,-3.5116,-3.5436,-3.5479,-3.5836,-3.6228,-3.6301,-3.6185,-3.6141,-3.6054,-3.5154,-3.4603,-3.4395,-3.438,-3.438,-3.438,-3.438,-3.438,-3.438,-3.438,-3.438,-3.438,-3.438,-3.438,-3.438,-3.438,-3.438,-3.438,-3.438,-3.438,-3.438,-3.438,-3.438,-3.438,-3.438,-3.438,-3.438,-3.438,-3.438,-3.4269,-3.4124,-3.3746,-3.3529,-3.334,-3.2919,-3.2411,-3.2179,-3.2075,-3.2031,-3.2063,-3.2048,-5.2409,-5.2409,-5.2409,-5.2409,-5.2326,-5.1862,-5.103,-5.0033,-4.9421,-4.866,-4.7836,-4.7803,-4.782,-4.7869,-4.7935,-4.8001,-4.7719,-4.6676,-4.6046,-4.5599,-4.4274,-4.3648,-4.3539,-4.3265,-4.3096,-4.3066,-4.282,-4.2617,-4.2617,-4.2617,-4.2444,-4.2109,-4.2077,-4.1916,-4.1654,-4.1588,-4.1588,-4.1588,-4.1588,-4.1555,-4.1357,-4.1003,-4.0687,-4.0315,-3.9256,-3.8332,-3.755,-3.6591,-3.5517,-3.4482,-3.438,-3.438,-3.4453,-3.4472,-3.4472,-3.4472,-3.4395,-3.438,-3.438,-3.4443,-3.4428,-3.4457,-3.4878,-3.5131,-3.5174,-3.5691,-3.6011,-3.6083,-3.6257,-3.6548,-3.6838,-3.6606,-3.6199,-3.5712,-3.5256,-3.4913,-3.4516,-3.438,-3.438,-3.438,-3.438,-3.438,-3.438,-3.438,-3.438,-3.438,-3.438,-3.438,-3.438,-3.438,-3.438,-3.438,-3.438,-3.438,-3.438,-3.438,-3.438,-3.438,-3.438,-3.438,-3.438,-3.438,-3.438,-3.437,-3.4312,-3.4037,-3.4095,-3.408,-3.3456,-3.2788,-3.2919,-3.2962,-3.2556,-3.2425,-3.2454,-5.2409,-5.2409,-5.2409,-5.2191,-5.1928,-5.1481,-5.0701,-4.9806,-4.9309,-4.868,-4.8133,-4.8001,-4.8001,-4.8001,-4.8001,-4.8001,-4.7802,-4.646,-4.5831,-4.5549,-4.4291,-4.3664,-4.3568,-4.3372,-4.3312,-4.3295,-4.3113,-4.2974,-4.2851,-4.2803,-4.2539,-4.2174,-4.2077,-4.1916,-4.1621,-4.1588,-4.1588,-4.1588,-4.1588,-4.1588,-4.1555,-4.129,-4.0987,-4.0687,-3.9803,-3.8903,-3.783,-3.6814,-3.5938,-3.5372,-3.5227,-3.5212,-3.5183,-3.4936,-3.482,-3.4791,-3.4588,-3.438,-3.4472,-3.4646,-3.4806,-3.4922,-3.5401,-3.5706,-3.588,-3.6344,-3.6722,-3.6736,-3.6939,-3.7273,-3.7462,-3.7099,-3.633,-3.5625,-3.5392,-3.5131,-3.4486,-3.438,-3.438,-3.438,-3.438,-3.438,-3.438,-3.438,-3.438,-3.438,-3.438,-3.438,-3.438,-3.438,-3.438,-3.438,-3.438,-3.438,-3.438,-3.438,-3.438,-3.438,-3.438,-3.438,-3.438,-3.438,-3.438,-3.438,-3.438,-3.438,-3.438,-3.4341,-3.392,-3.3558,-3.3794,-3.3649,-3.318,-3.3021,-3.3021,-5.2409,-5.2409,-5.2291,-5.1912,-5.1365,-5.1133,-5.0253,-4.9276,-4.8978,-4.858,-4.81,-4.8001,-4.8001,-4.8001,-4.8001,-4.8001,-4.7934,-4.6626,-4.5897,-4.5284,-4.4324,-4.3615,-4.3615,-4.3568,-4.3539,-4.3522,-4.3552,-4.3325,-4.3096,-4.3066,-4.2758,-4.2317,-4.2158,-4.198,-4.1753,-4.1621,-4.1588,-4.1588,-4.1588,-4.1588,-4.1588,-4.1522,-4.1323,-4.0938,-4.0363,-3.9305,-3.8123,-3.7214,-3.6783,-3.6611,-3.6438,-3.6185,-3.6141,-3.5691,-3.5537,-3.5378,-3.4965,-3.4632,-3.469,-3.5154,-3.5421,-3.5566,-3.6054,-3.6402,-3.6533,-3.7012,-3.7389,-3.7389,-3.7897,-3.8028,-3.7984,-3.7564,-3.6664,-3.5755,-3.5465,-3.5,-3.4588,-3.438,-3.438,-3.438,-3.438,-3.438,-3.438,-3.438,-3.438,-3.438,-3.438,-3.438,-3.438,-3.438,-3.438,-3.438,-3.438,-3.438,-3.438,-3.438,-3.438,-3.438,-3.438,-3.438,-3.438,-3.438,-3.438,-3.438,-3.438,-3.438,-3.438,-3.4269,-3.408,-3.4051,-3.4037,-3.3906,-3.3732,-3.3804,-3.3833,-5.2409,-5.2376,-5.1796,-5.1448,-5.1133,-5.0071,-4.9409,-4.9044,-4.8481,-4.8199,-4.8034,-4.8001,-4.8001,-4.8001,-4.8001,-4.8001,-4.7901,-4.6941,-4.6096,-4.4837,-4.4045,-4.3631,-4.3615,-4.3615,-4.3615,-4.3539,-4.3342,-4.3174,-4.3096,-4.3066,-4.2912,-4.2522,-4.2428,-4.2317,-4.2013,-4.1753,-4.1588,-4.1588,-4.1588,-4.1588,-4.1588,-4.1588,-4.1522,-4.129,-4.0802,-4.0189,-3.9561,-3.9204,-3.8931,-3.8292,-3.7192,-3.646,-3.6402,-3.6228,-3.6112,-3.5981,-3.5532,-3.5357,-3.572,-3.5619,-3.5639,-3.6127,-3.6693,-3.7099,-3.7128,-3.7622,-3.7955,-3.8014,-3.813,-3.8188,-3.8043,-3.7157,-3.646,-3.5909,-3.5198,-3.4617,-3.4457,-3.438,-3.438,-3.438,-3.438,-3.438,-3.438,-3.438,-3.438,-3.438,-3.438,-3.438,-3.438,-3.438,-3.438,-3.438,-3.438,-3.438,-3.438,-3.438,-3.438,-3.438,-3.438,-3.438,-3.438,-3.438,-3.438,-3.438,-3.438,-3.438,-3.438,-3.4366,-3.4254,-3.4269,-3.4269,-3.4182,-3.4167,-3.437,-3.4366,-5.221,-5.1862,-5.1464,-5.0917,-5.0187,-4.9425,-4.8912,-4.8564,-4.8183,-4.8001,-4.8001,-4.8001,-4.8001,-4.8001,-4.8001,-4.8001,-4.7736,-4.6841,-4.5781,-4.4721,-4.3992,-4.3631,-4.3615,-4.3615,-4.3615,-4.3552,-4.3416,-4.3265,-4.3143,-4.3066,-4.2943,-4.2617,-4.2617,-4.2412,-4.2142,-4.1916,-4.1737,-4.1621,-4.1588,-4.1588,-4.1588,-4.1588,-4.1423,-4.1189,-4.0699,-4.02,-3.9874,-3.9585,-3.9349,-3.8854,-3.7894,-3.7186,-3.7114,-3.6939,-3.678,-3.6678,-3.6185,-3.5952,-3.6141,-3.633,-3.6446,-3.6751,-3.736,-3.7622,-3.7767,-3.8057,-3.8173,-3.8202,-3.8173,-3.8101,-3.7781,-3.6968,-3.6315,-3.5749,-3.5024,-3.4457,-3.438,-3.438,-3.438,-3.438,-3.438,-3.438,-3.438,-3.438,-3.438,-3.438,-3.438,-3.438,-3.438,-3.438,-3.438,-3.438,-3.438,-3.438,-3.438,-3.438,-3.438,-3.438,-3.438,-3.438,-3.438,-3.438,-3.438,-3.438,-3.438,-3.438,-3.438,-3.438,-3.438,-3.4337,-3.4356,-3.4366,-3.438,-3.438,-3.438,-5.1879,-5.1282,-5.1083,-5.022,-4.921,-4.8961,-4.858,-4.8084,-4.8001,-4.8001,-4.8001,-4.8001,-4.8001,-4.8001,-4.8001,-4.7968,-4.7471,-4.6527,-4.5433,-4.4688,-4.3959,-4.3648,-4.3615,-4.3615,-4.3615,-4.3582,-4.3462,-4.3342,-4.3174,-4.3096,-4.2974,-4.271,-4.2585,-4.2476,-4.2222,-4.2013,-4.1851,-4.1621,-4.1588,-4.1588,-4.1588,-4.1588,-4.139,-4.1039,-4.0684,-4.0324,-4.0115,-3.9778,-3.9343,-3.9104,-3.8612,-3.8389,-3.8198,-3.7781,-3.7447,-3.7418,-3.6823,-3.6649,-3.6794,-3.7012,-3.723,-3.7418,-3.7868,-3.8144,-3.8173,-3.8159,-3.8188,-3.8202,-3.8173,-3.8043,-3.7491,-3.6954,-3.6344,-3.5813,-3.5096,-3.4617,-3.453,-3.4486,-3.438,-3.438,-3.438,-3.438,-3.438,-3.438,-3.438,-3.438,-3.438,-3.438,-3.438,-3.438,-3.438,-3.438,-3.438,-3.438,-3.438,-3.438,-3.438,-3.438,-3.438,-3.438,-3.438,-3.438,-3.438,-3.438,-3.438,-3.438,-3.438,-3.438,-3.438,-3.438,-3.438,-3.438,-3.438,-3.438,-3.438,-5.1431,-5.1216,-4.9972,-4.9293,-4.9028,-4.8465,-4.815,-4.8034,-4.8001,-4.8001,-4.8001,-4.8001,-4.8001,-4.8001,-4.8001,-4.7703,-4.709,-4.6179,-4.5384,-4.4655,-4.3976,-4.3615,-4.3615,-4.3615,-4.3615,-4.3539,-4.3402,-4.3221,-4.3174,-4.3096,-4.3113,-4.2974,-4.2726,-4.2555,-4.2381,-4.2029,-4.1785,-4.1687,-4.1654,-4.1654,-4.1588,-4.1588,-4.1555,-4.1357,-4.1125,-4.0904,-4.0631,-4.0509,-4.0091,-3.9199,-3.9031,-3.8943,-3.8841,-3.8392,-3.8133,-3.7928,-3.7462,-3.7273,-3.7607,-3.7462,-3.7651,-3.7926,-3.8144,-3.8188,-3.8202,-3.8202,-3.824,-3.8315,-3.8315,-3.8204,-3.8057,-3.7572,-3.7216,-3.6714,-3.6029,-3.5287,-3.5205,-3.484,-3.454,-3.4515,-3.4481,-3.438,-3.438,-3.438,-3.438,-3.438,-3.438,-3.438,-3.438,-3.438,-3.438,-3.438,-3.438,-3.438,-3.438,-3.438,-3.438,-3.438,-3.438,-3.438,-3.438,-3.438,-3.438,-3.438,-3.438,-3.438,-3.438,-3.438,-3.438,-3.438,-3.438,-3.438,-3.438,-3.438,-3.438,-5.0502,-5.0088,-4.9392,-4.8879,-4.8514,-4.8166,-4.8001,-4.8001,-4.8001,-4.8001,-4.8001,-4.8001,-4.8001,-4.8001,-4.8001,-4.7587,-4.6825,-4.6113,-4.5384,-4.4655,-4.3992,-4.3615,-4.3615,-4.3615,-4.3615,-4.3568,-4.3432,-4.3342,-4.3372,-4.3355,-4.3342,-4.3265,-4.3021,-4.2867,-4.2789,-4.2396,-4.2029,-4.1916,-4.1851,-4.1753,-4.1621,-4.1588,-4.1588,-4.1555,-4.1323,-4.1055,-4.0851,-4.0424,-4.0111,-3.9651,-3.9508,-3.9493,-3.9421,-3.9241,-3.895,-3.8649,-3.8135,-3.7891,-3.8182,-3.7897,-3.7955,-3.813,-3.824,-3.8202,-3.8202,-3.824,-3.8389,-3.8649,-3.8987,-3.9081,-3.9073,-3.8495,-3.8234,-3.7991,-3.7074,-3.6384,-3.6054,-3.539,-3.5,-3.4708,-3.4549,-3.4448,-3.438,-3.438,-3.438,-3.438,-3.438,-3.438,-3.438,-3.438,-3.438,-3.438,-3.438,-3.438,-3.438,-3.438,-3.438,-3.438,-3.438,-3.438,-3.438,-3.438,-3.438,-3.438,-3.438,-3.438,-3.438,-3.438,-3.438,-3.438,-3.438,-3.438,-3.438,-3.438,-3.438,-4.9641,-4.911,-4.8945,-4.8547,-4.805,-4.8001,-4.8001,-4.8001,-4.8001,-4.8001,-4.8001,-4.8001,-4.8001,-4.7951,-4.7736,-4.7289,-4.6477,-4.5732,-4.5119,-4.4423,-4.391,-4.3615,-4.3615,-4.3615,-4.3615,-4.3598,-4.3568,-4.3615,-4.3568,-4.3568,-4.3598,-4.3479,-4.3235,-4.3096,-4.3005,-4.2679,-4.2444,-4.219,-4.2077,-4.1916,-4.1687,-4.1588,-4.1588,-4.1588,-4.1189,-4.0953,-4.0799,-4.0459,-4.0115,-3.994,-3.9854,-3.994,-4.006,-3.9975,-3.9778,-3.9415,-3.8892,-3.8598,-3.8583,-3.8605,-3.8672,-3.873,-3.8598,-3.8598,-3.8583,-3.8767,-3.8819,-3.9235,-3.9565,-3.9783,-3.9652,-3.9429,-3.9202,-3.8881,-3.8117,-3.7198,-3.6697,-3.6062,-3.5195,-3.4879,-3.4622,-3.4481,-3.4414,-3.438,-3.438,-3.438,-3.438,-3.438,-3.438,-3.438,-3.438,-3.438,-3.438,-3.438,-3.438,-3.438,-3.438,-3.438,-3.438,-3.438,-3.438,-3.438,-3.438,-3.438,-3.438,-3.438,-3.438,-3.438,-3.438,-3.438,-3.438,-3.438,-3.438,-3.438,-3.438,-4.9193,-4.9044,-4.8398,-4.8084,-4.8001,-4.8001,-4.8001,-4.8001,-4.8001,-4.8001,-4.8001,-4.8001,-4.8001,-4.7819,-4.7305,-4.6295,-4.5381,-4.5,-4.4556,-4.3926,-4.3681,-4.3615,-4.3615,-4.3615,-4.3615,-4.3615,-4.3615,-4.3615,-4.3615,-4.3615,-4.3615,-4.3539,-4.3295,-4.3096,-4.3127,-4.2772,-4.2444,-4.2174,-4.2077,-4.1916,-4.1687,-4.1621,-4.1588,-4.1588,-4.1456,-4.1189,-4.0867,-4.0612,-4.0424,-3.9995,-3.996,-4.0185,-4.0493,-4.015,-4.027,-4.027,-4.0095,-3.9692,-3.9621,-3.9514,-3.9499,-3.9463,-3.9535,-3.9657,-3.9535,-3.957,-3.9657,-3.9778,-3.994,-4.0045,-4.01,-3.9919,-3.9838,-3.944,-3.8777,-3.7898,-3.7242,-3.6128,-3.5307,-3.4898,-3.4597,-3.4481,-3.438,-3.438,-3.438,-3.438,-3.438,-3.438,-3.438,-3.438,-3.438,-3.438,-3.438,-3.438,-3.438,-3.438,-3.438,-3.438,-3.438,-3.438,-3.438,-3.438,-3.438,-3.438,-3.438,-3.438,-3.438,-3.438,-3.438,-3.438,-3.438,-3.438,-3.438,-3.438,-3.438,-4.8481,-4.8465,-4.8133,-4.8001,-4.8001,-4.8001,-4.8001,-4.8001,-4.8001,-4.8001,-4.8001,-4.8001,-4.7785,-4.7355,-4.699,-4.6096,-4.4984,-4.4685,-4.4291,-4.3714,-4.3615,-4.3615,-4.3615,-4.3615,-4.3615,-4.3615,-4.3615,-4.3615,-4.3615,-4.3615,-4.3615,-4.3568,-4.3295,-4.3235,-4.3265,-4.2851,-4.257,-4.2333,-4.2061,-4.1851,-4.1818,-4.172,-4.1687,-4.1835,-4.1423,-4.1088,-4.0901,-4.0799,-4.0681,-4.0493,-4.065,-4.0956,-4.114,-4.1024,-4.1039,-4.114,-4.1039,-4.0581,-4.001,-3.996,-3.996,-3.9925,-3.9925,-3.9854,-3.996,-4.022,-4.0424,-4.0424,-4.0734,-4.082,-4.082,-4.0888,-4.0839,-4.0449,-3.9462,-3.877,-3.7779,-3.6187,-3.5258,-3.4918,-3.465,-3.4645,-3.4578,-3.4515,-3.4481,-3.438,-3.438,-3.438,-3.438,-3.438,-3.438,-3.438,-3.438,-3.438,-3.438,-3.438,-3.438,-3.438,-3.438,-3.438,-3.438,-3.438,-3.438,-3.438,-3.438,-3.438,-3.438,-3.438,-3.438,-3.438,-3.438,-3.438,-3.438,-3.438,-3.438,-4.8001,-4.8001,-4.8001,-4.8001,-4.8001,-4.8001,-4.8001,-4.8001,-4.8001,-4.8001,-4.7951,-4.7785,-4.7305,-4.6676,-4.6311,-4.5483,-4.444,-4.4423,-4.4125,-4.3747,-4.3615,-4.3615,-4.3615,-4.3615,-4.3615,-4.3615,-4.3615,-4.3615,-4.3615,-4.3615,-4.3615,-4.3615,-4.3402,-4.3355,-4.3402,-4.319,-4.2867,-4.2695,-4.2238,-4.2077,-4.2126,-4.1997,-4.198,-4.1851,-4.1522,-4.1088,-4.1021,-4.1156,-4.1156,-4.1223,-4.1456,-4.1671,-4.1802,-4.1704,-4.1654,-4.1687,-4.1606,-4.1274,-4.0737,-4.0462,-4.0324,-4.0324,-4.0324,-4.0497,-4.0497,-4.0768,-4.1003,-4.0987,-4.1256,-4.1489,-4.1588,-4.1555,-4.144,-4.0999,-4.0331,-3.9647,-3.8846,-3.7376,-3.6265,-3.5882,-3.557,-3.5082,-3.4953,-3.4731,-3.4568,-3.4448,-3.438,-3.438,-3.438,-3.438,-3.438,-3.438,-3.438,-3.438,-3.438,-3.438,-3.438,-3.438,-3.438,-3.438,-3.438,-3.438,-3.438,-3.438,-3.438,-3.438,-3.438,-3.438,-3.438,-3.438,-3.438,-3.438,-3.438,-3.438,-3.438,-4.8001,-4.8001,-4.8001,-4.8001,-4.8001,-4.8001,-4.8001,-4.8001,-4.8001,-4.7968,-4.7802,-4.7305,-4.6643,-4.5897,-4.5284,-4.4622,-4.3714,-4.3681,-4.3664,-4.3648,-4.3615,-4.3615,-4.3615,-4.3615,-4.3615,-4.3615,-4.3615,-4.3615,-4.3615,-4.3615,-4.3615,-4.3568,-4.3509,-4.3568,-4.3522,-4.3372,-4.3143,-4.2912,-4.2539,-4.2444,-4.2522,-4.2459,-4.2381,-4.2174,-4.2045,-4.1883,-4.1588,-4.1769,-4.19,-4.19,-4.1997,-4.2093,-4.219,-4.2077,-4.198,-4.1883,-4.1883,-4.1606,-4.1307,-4.1207,-4.1374,-4.1456,-4.1374,-4.1241,-4.1207,-4.1374,-4.1522,-4.1456,-4.1555,-4.1555,-4.1588,-4.1588,-4.1588,-4.1264,-4.0696,-4.0042,-3.9393,-3.8776,-3.7714,-3.7107,-3.6529,-3.5911,-3.5505,-3.5287,-3.4714,-3.4535,-3.438,-3.438,-3.438,-3.438,-3.438,-3.438,-3.438,-3.438,-3.438,-3.438,-3.438,-3.438,-3.438,-3.438,-3.438,-3.438,-3.438,-3.438,-3.438,-3.438,-3.438,-3.438,-3.438,-3.438,-3.438,-3.438,-3.438,-3.438,-3.438,-4.8001,-4.8001,-4.8001,-4.8001,-4.8001,-4.8001,-4.8001,-4.8001,-4.8001,-4.7719,-4.7322,-4.6974,-4.6228,-4.5301,-4.4854,-4.4291,-4.3664,-4.3615,-4.3615,-4.3615,-4.3615,-4.3615,-4.3615,-4.3615,-4.3615,-4.3615,-4.3615,-4.3615,-4.3615,-4.3615,-4.3615,-4.3615,-4.3615,-4.3615,-4.3568,-4.3432,-4.3174,-4.2912,-4.2726,-4.2695,-4.2851,-4.2679,-4.2617,-4.2726,-4.246,-4.2365,-4.2238,-4.2333,-4.2396,-4.2396,-4.2396,-4.2412,-4.2381,-4.219,-4.2029,-4.19,-4.1867,-4.1785,-4.1687,-4.1621,-4.1588,-4.1588,-4.1588,-4.1588,-4.1588,-4.1588,-4.1588,-4.1588,-4.1588,-4.1588,-4.1588,-4.1588,-4.154,-4.1346,-4.096,-4.0349,-3.9898,-3.9428,-3.8659,-3.7801,-3.7199,-3.6645,-3.6237,-3.5892,-3.5219,-3.4622,-3.4486,-3.438,-3.438,-3.438,-3.438,-3.438,-3.438,-3.438,-3.438,-3.438,-3.438,-3.438,-3.438,-3.438,-3.438,-3.438,-3.438,-3.438,-3.438,-3.438,-3.438,-3.438,-3.438,-3.438,-3.438,-3.438,-3.438,-3.438,-3.438,-4.8001,-4.8001,-4.8001,-4.8001,-4.8001,-4.8001,-4.8001,-4.8001,-4.8001,-4.7587,-4.6874,-4.646,-4.5715,-4.4854,-4.439,-4.4141,-4.3681,-4.3615,-4.3615,-4.3615,-4.3615,-4.3615,-4.3615,-4.3615,-4.3615,-4.3615,-4.3615,-4.3615,-4.3615,-4.3615,-4.3615,-4.3615,-4.3615,-4.3615,-4.3568,-4.3372,-4.3113,-4.2943,-4.2912,-4.2974,-4.3204,-4.3066,-4.2881,-4.3082,-4.2836,-4.268,-4.2617,-4.2617,-4.2648,-4.2617,-4.257,-4.2539,-4.2412,-4.2285,-4.2142,-4.1964,-4.1867,-4.1835,-4.1753,-4.1654,-4.1621,-4.1588,-4.1588,-4.1588,-4.1588,-4.1588,-4.1588,-4.1588,-4.1588,-4.1588,-4.1588,-4.1588,-4.1588,-4.1459,-4.1218,-4.0753,-4.0577,-4.0158,-3.9272,-3.8397,-3.7982,-3.7661,-3.6379,-3.5946,-3.5549,-3.4898,-3.4545,-3.4457,-3.438,-3.438,-3.438,-3.438,-3.438,-3.438,-3.438,-3.438,-3.438,-3.438,-3.438,-3.438,-3.438,-3.438,-3.438,-3.438,-3.438,-3.438,-3.438,-3.438,-3.438,-3.438,-3.438,-3.438,-3.438,-3.438,-3.438,-4.7934,-4.8001,-4.7934,-4.7918,-4.7868,-4.7984,-4.7984,-4.7868,-4.7819,-4.7388,-4.6543,-4.5467,-4.4837,-4.4489,-4.4026,-4.3731,-4.3648,-4.3615,-4.3615,-4.3615,-4.3615,-4.3615,-4.3615,-4.3615,-4.3615,-4.3615,-4.3615,-4.3615,-4.3615,-4.3615,-4.3615,-4.3615,-4.3615,-4.3615,-4.3615,-4.3615,-4.3568,-4.3568,-4.3509,-4.3509,-4.3509,-4.3462,-4.3325,-4.3204,-4.3143,-4.2974,-4.2896,-4.3005,-4.2974,-4.2834,-4.2805,-4.2805,-4.2898,-4.268,-4.2539,-4.2459,-4.2476,-4.2365,-4.2109,-4.1818,-4.172,-4.1753,-4.1835,-4.1737,-4.1654,-4.1621,-4.1621,-4.1621,-4.1588,-4.1588,-4.1588,-4.1588,-4.1588,-4.1524,-4.1316,-4.1187,-4.1011,-4.0931,-4.006,-3.9407,-3.9272,-3.8864,-3.7105,-3.5903,-3.5685,-3.5261,-3.4748,-3.4559,-3.4545,-3.4559,-3.4617,-3.438,-3.438,-3.438,-3.438,-3.438,-3.438,-3.438,-3.438,-3.438,-3.438,-3.438,-3.438,-3.438,-3.438,-3.438,-3.438,-3.438,-3.438,-3.438,-3.438,-3.438,-3.438,-3.438,-3.438,-4.6543,-4.6527,-4.6527,-4.6543,-4.6692,-4.762,-4.7736,-4.7239,-4.6742,-4.6129,-4.5467,-4.4835,-4.4373,-4.4009,-4.3797,-4.3615,-4.3615,-4.3615,-4.3615,-4.3615,-4.3615,-4.3615,-4.3615,-4.3615,-4.3615,-4.3615,-4.3615,-4.3615,-4.3615,-4.3615,-4.3615,-4.3615,-4.3615,-4.3615,-4.3615,-4.3615,-4.3615,-4.3615,-4.3615,-4.3615,-4.3615,-4.3598,-4.3522,-4.3432,-4.3402,-4.3325,-4.3204,-4.3325,-4.3265,-4.3174,-4.3129,-4.316,-4.3143,-4.2912,-4.282,-4.2679,-4.2601,-4.257,-4.2444,-4.2317,-4.2269,-4.2238,-4.2206,-4.211,-4.1964,-4.1948,-4.1818,-4.1671,-4.1687,-4.1687,-4.1588,-4.1621,-4.1621,-4.1588,-4.1492,-4.1492,-4.1412,-4.1428,-4.1039,-4.0541,-4.0282,-3.9616,-3.8262,-3.7075,-3.6634,-3.643,-3.6049,-3.5341,-3.5146,-3.5063,-3.5029,-3.4574,-3.438,-3.438,-3.4414,-3.4534,-3.4481,-3.438,-3.438,-3.438,-3.438,-3.438,-3.438,-3.438,-3.438,-3.438,-3.438,-3.438,-3.438,-3.438,-3.438,-3.438,-3.438,-3.438,-3.438,-4.5798,-4.5798,-4.5798,-4.5798,-4.5947,-4.6825,-4.6941,-4.6411,-4.5732,-4.5119,-4.4752,-4.4456,-4.4092,-4.3698,-4.3615,-4.3615,-4.3615,-4.3615,-4.3615,-4.3615,-4.3615,-4.3615,-4.3615,-4.3615,-4.3615,-4.3615,-4.3615,-4.3615,-4.3615,-4.3615,-4.3615,-4.3615,-4.3615,-4.3615,-4.3615,-4.3615,-4.3615,-4.3615,-4.3615,-4.3615,-4.3615,-4.3615,-4.3615,-4.3568,-4.3568,-4.3568,-4.3615,-4.3598,-4.3552,-4.3492,-4.3402,-4.3342,-4.3174,-4.3066,-4.2974,-4.282,-4.2772,-4.2789,-4.2789,-4.2959,-4.2912,-4.2927,-4.2772,-4.2522,-4.2301,-4.2285,-4.219,-4.2061,-4.1932,-4.1932,-4.1932,-4.19,-4.1835,-4.1851,-4.1753,-4.1753,-4.1588,-4.1588,-4.1423,-4.1005,-4.0638,-4.0004,-3.9284,-3.8646,-3.7803,-3.7653,-3.7458,-3.6595,-3.5722,-3.5668,-3.5507,-3.5066,-3.4787,-3.4854,-3.482,-3.4787,-3.4654,-3.4448,-3.438,-3.438,-3.438,-3.438,-3.438,-3.438,-3.438,-3.438,-3.438,-3.438,-3.438,-3.438,-3.438,-3.438,-3.438,-3.437,-3.4327,-4.5698,-4.5715,-4.5715,-4.5649,-4.5698,-4.5698,-4.5732,-4.5665,-4.4986,-4.4638,-4.4589,-4.3926,-4.3664,-4.3631,-4.3615,-4.3615,-4.3615,-4.3615,-4.3615,-4.3615,-4.3615,-4.3615,-4.3615,-4.3615,-4.3615,-4.3615,-4.3615,-4.3615,-4.3615,-4.3615,-4.3615,-4.3615,-4.3615,-4.3615,-4.3615,-4.3615,-4.3615,-4.3615,-4.3615,-4.3615,-4.3615,-4.3615,-4.3615,-4.3615,-4.3615,-4.3615,-4.3615,-4.3598,-4.3462,-4.3325,-4.3174,-4.3174,-4.3143,-4.3113,-4.3113,-4.3113,-4.3096,-4.3113,-4.3143,-4.3372,-4.3449,-4.3342,-4.3005,-4.2741,-4.2617,-4.2585,-4.2522,-4.2459,-4.2365,-4.2459,-4.2522,-4.2396,-4.2317,-4.219,-4.2045,-4.1883,-4.1654,-4.1522,-4.1357,-4.1042,-4.073,-4.012,-3.9242,-3.8599,-3.8206,-3.7921,-3.7601,-3.7128,-3.6427,-3.6319,-3.6127,-3.5707,-3.5479,-3.5447,-3.5317,-3.4971,-3.4687,-3.4399,-3.4414,-3.438,-3.438,-3.438,-3.438,-3.438,-3.438,-3.438,-3.438,-3.438,-3.438,-3.438,-3.438,-3.438,-3.438,-3.4211,-3.4153,-4.4227,-4.4227,-4.4257,-4.4257,-4.4211,-4.4244,-4.4522,-4.487,-4.4257,-4.3943,-4.3893,-4.3698,-4.3615,-4.3615,-4.3615,-4.3615,-4.3615,-4.3615,-4.3615,-4.3615,-4.3615,-4.3615,-4.3615,-4.3615,-4.3615,-4.3615,-4.3615,-4.3615,-4.3615,-4.3615,-4.3615,-4.3615,-4.3615,-4.3615,-4.3615,-4.3615,-4.3615,-4.3615,-4.3615,-4.3615,-4.3615,-4.3615,-4.3615,-4.3615,-4.3615,-4.3615,-4.3615,-4.3615,-4.3509,-4.3479,-4.3449,-4.3479,-4.3462,-4.3462,-4.3462,-4.3462,-4.3462,-4.3462,-4.3462,-4.3539,-4.3615,-4.3615,-4.3372,-4.3204,-4.3035,-4.2943,-4.2851,-4.2803,-4.271,-4.2679,-4.2648,-4.2601,-4.2444,-4.2238,-4.2077,-4.1916,-4.172,-4.1555,-4.139,-4.1245,-4.0901,-4.0171,-3.9265,-3.8595,-3.8226,-3.7925,-3.7674,-3.7374,-3.707,-3.6961,-3.6587,-3.6176,-3.5864,-3.5737,-3.5267,-3.4887,-3.462,-3.4433,-3.4414,-3.4414,-3.438,-3.438,-3.438,-3.438,-3.438,-3.438,-3.438,-3.438,-3.438,-3.438,-3.438,-3.438,-3.437,-3.4124,-3.4066,-4.3615,-4.3615,-4.3615,-4.3615,-4.3615,-4.3615,-4.391,-4.4141,-4.378,-4.3615,-4.3615,-4.3615,-4.3615,-4.3615,-4.3615,-4.3615,-4.3615,-4.3615,-4.3615,-4.3615,-4.3615,-4.3615,-4.3615,-4.3615,-4.3615,-4.3615,-4.3615,-4.3615,-4.3615,-4.3615,-4.3615,-4.3615,-4.3615,-4.3615,-4.3615,-4.3615,-4.3615,-4.3615,-4.3615,-4.3615,-4.3615,-4.3615,-4.3615,-4.3615,-4.3615,-4.3615,-4.3615,-4.3615,-4.3615,-4.3615,-4.3615,-4.3615,-4.3598,-4.3598,-4.3598,-4.3568,-4.3568,-4.3568,-4.3568,-4.3568,-4.3615,-4.3615,-4.3615,-4.3492,-4.3386,-4.3295,-4.3204,-4.3096,-4.2943,-4.2803,-4.2758,-4.2664,-4.2397,-4.2142,-4.2045,-4.1948,-4.1785,-4.1621,-4.1508,-4.1396,-4.0902,-4.0205,-3.9475,-3.8778,-3.8465,-3.8567,-3.8493,-3.8278,-3.7826,-3.7468,-3.7002,-3.6476,-3.6164,-3.5943,-3.5429,-3.507,-3.4905,-3.4721,-3.4467,-3.4481,-3.4414,-3.438,-3.438,-3.438,-3.438,-3.438,-3.438,-3.438,-3.438,-3.438,-3.438,-3.438,-3.4254,-3.392,-3.3964,-4.3615,-4.3615,-4.3615,-4.3615,-4.3615,-4.3615,-4.3615,-4.3615,-4.3615,-4.3615,-4.3615,-4.3615,-4.3615,-4.3615,-4.3615,-4.3615,-4.3615,-4.3615,-4.3615,-4.3615,-4.3615,-4.3615,-4.3615,-4.3615,-4.3615,-4.3615,-4.3615,-4.3615,-4.3615,-4.3615,-4.3615,-4.3615,-4.3615,-4.3615,-4.3615,-4.3615,-4.3615,-4.3615,-4.3615,-4.3615,-4.3615,-4.3615,-4.3615,-4.3615,-4.3615,-4.3615,-4.3615,-4.3615,-4.3615,-4.3615,-4.3615,-4.3615,-4.3615,-4.3615,-4.3615,-4.3615,-4.3615,-4.3615,-4.3615,-4.3615,-4.3615,-4.3615,-4.3615,-4.3568,-4.3539,-4.3492,-4.3402,-4.3372,-4.3204,-4.3127,-4.3113,-4.2881,-4.2601,-4.2333,-4.2174,-4.1948,-4.172,-4.1574,-4.1446,-4.1192,-4.0576,-3.9927,-3.9455,-3.8778,-3.834,-3.8858,-3.8999,-3.8716,-3.829,-3.7772,-3.7355,-3.68,-3.6461,-3.6196,-3.5959,-3.564,-3.535,-3.5103,-3.4787,-3.4635,-3.4687,-3.4568,-3.438,-3.438,-3.438,-3.438,-3.438,-3.438,-3.438,-3.438,-3.438,-3.438,-3.4196,-3.3833,-3.3935,-4.3615,-4.3615,-4.3615,-4.3615,-4.3615,-4.3615,-4.3615,-4.3615,-4.3615,-4.3615,-4.3615,-4.3615,-4.3615,-4.3615,-4.3615,-4.3615,-4.3615,-4.3615,-4.3615,-4.3615,-4.3615,-4.3615,-4.3615,-4.3615,-4.3615,-4.3615,-4.3615,-4.3615,-4.3615,-4.3615,-4.3615,-4.3615,-4.3615,-4.3615,-4.3615,-4.3615,-4.3615,-4.3615,-4.3615,-4.3615,-4.3615,-4.3615,-4.3615,-4.3615,-4.3615,-4.3615,-4.3615,-4.3615,-4.3615,-4.3615,-4.3615,-4.3615,-4.3615,-4.3615,-4.3615,-4.3615,-4.3615,-4.3615,-4.3615,-4.3615,-4.3615,-4.3615,-4.3615,-4.3615,-4.3615,-4.3615,-4.3598,-4.3568,-4.3492,-4.3462,-4.3325,-4.3082,-4.282,-4.2539,-4.2254,-4.1964,-4.1687,-4.1543,-4.14,-4.0877,-4.0277,-3.9803,-3.9376,-3.8934,-3.8491,-3.8444,-3.8587,-3.8445,-3.8003,-3.7593,-3.7594,-3.7135,-3.6785,-3.6523,-3.6321,-3.6023,-3.5657,-3.5479,-3.5201,-3.507,-3.4938,-3.4668,-3.438,-3.438,-3.438,-3.438,-3.438,-3.438,-3.438,-3.438,-3.438,-3.438,-3.4211,-3.3891,-3.4037,-4.3615,-4.3615,-4.3615,-4.3615,-4.3615,-4.3615,-4.3615,-4.3615,-4.3615,-4.3615,-4.3615,-4.3615,-4.3615,-4.3615,-4.3615,-4.3615,-4.3615,-4.3615,-4.3615,-4.3615,-4.3615,-4.3615,-4.3615,-4.3615,-4.3615,-4.3615,-4.3615,-4.3615,-4.3615,-4.3615,-4.3615,-4.3615,-4.3615,-4.3615,-4.3615,-4.3615,-4.3615,-4.3615,-4.3615,-4.3615,-4.3615,-4.3615,-4.3615,-4.3615,-4.3615,-4.3615,-4.3615,-4.3615,-4.3615,-4.3615,-4.3615,-4.3615,-4.3615,-4.3615,-4.3615,-4.3615,-4.3615,-4.3615,-4.3615,-4.3615,-4.3615,-4.3615,-4.3615,-4.3615,-4.3615,-4.3615,-4.3615,-4.3568,-4.3342,-4.3265,-4.3143,-4.2959,-4.2758,-4.2539,-4.2444,-4.2254,-4.1997,-4.1835,-4.1642,-4.1288,-4.0735,-4.0261,-3.985,-3.9439,-3.8965,-3.8444,-3.8492,-3.827,-3.7796,-3.751,-3.751,-3.7421,-3.7029,-3.6785,-3.6554,-3.6227,-3.5849,-3.5705,-3.5576,-3.5103,-3.4787,-3.4568,-3.438,-3.438,-3.438,-3.438,-3.438,-3.438,-3.438,-3.438,-3.438,-3.438,-3.4182,-3.3993,-3.408,-4.3615,-4.3615,-4.3615,-4.3615,-4.3615,-4.3615,-4.3615,-4.3615,-4.3615,-4.3615,-4.3615,-4.3615,-4.3615,-4.3615,-4.3615,-4.3615,-4.3615,-4.3615,-4.3615,-4.3615,-4.3615,-4.3615,-4.3615,-4.3615,-4.3615,-4.3615,-4.3615,-4.3615,-4.3615,-4.3615,-4.3615,-4.3615,-4.3615,-4.3615,-4.3615,-4.3615,-4.3615,-4.3615,-4.3615,-4.3615,-4.3615,-4.3615,-4.3615,-4.3615,-4.3615,-4.3615,-4.3615,-4.3615,-4.3615,-4.3615,-4.3615,-4.3615,-4.3615,-4.3615,-4.3615,-4.3615,-4.3615,-4.3615,-4.3615,-4.3615,-4.3615,-4.3615,-4.3615,-4.3615,-4.3615,-4.3615,-4.3615,-4.3509,-4.3312,-4.3174,-4.3082,-4.2959,-4.2789,-4.2633,-4.257,-4.2381,-4.219,-4.1997,-4.1786,-4.1542,-4.102,-4.053,-4.0261,-3.9866,-3.9345,-3.8807,-3.8444,-3.8065,-3.7794,-3.7621,-3.751,-3.745,-3.7225,-3.6984,-3.6846,-3.6646,-3.6305,-3.5991,-3.58,-3.5136,-3.4635,-3.4481,-3.438,-3.438,-3.438,-3.4414,-3.4414,-3.438,-3.438,-3.438,-3.438,-3.438,-3.4327,-3.4167,-3.4095,-4.3615,-4.3615,-4.3615,-4.3615,-4.3615,-4.3615,-4.3615,-4.3615,-4.3615,-4.3615,-4.3615,-4.3615,-4.3615,-4.3615,-4.3615,-4.3615,-4.3615,-4.3615,-4.3615,-4.3615,-4.3615,-4.3615,-4.3615,-4.3615,-4.3615,-4.3615,-4.3615,-4.3615,-4.3615,-4.3615,-4.3615,-4.3615,-4.3615,-4.3615,-4.3615,-4.3615,-4.3615,-4.3615,-4.3615,-4.3615,-4.3615,-4.3615,-4.3615,-4.3615,-4.3615,-4.3615,-4.3615,-4.3615,-4.3615,-4.3615,-4.3615,-4.3615,-4.3615,-4.3615,-4.3615,-4.3615,-4.3615,-4.3615,-4.3615,-4.3615,-4.3615,-4.3615,-4.3615,-4.3615,-4.3615,-4.3615,-4.3615,-4.3615,-4.3479,-4.3479,-4.3372,-4.3174,-4.3005,-4.282,-4.2695,-4.2254,-4.1916,-4.1802,-4.1704,-4.1242,-4.0719,-4.053,-4.0514,-4.004,-3.9487,-3.9123,-3.906,-3.8649,-3.7828,-3.7684,-3.751,-3.745,-3.7361,-3.7421,-3.7345,-3.7255,-3.6952,-3.6538,-3.6054,-3.5462,-3.492,-3.4481,-3.4414,-3.4568,-3.4501,-3.4467,-3.4448,-3.438,-3.438,-3.438,-3.438,-3.4399,-3.4356,-3.4327,-3.4254]},{"header":{"parameterUnit":"m.s-1","parameterCategory":1,"la1":31.0,"la2":29.5877,"lo1":-88.7671,"lo2":-86.6584,"dy":0.0162,"dx":0.0185,"nx":115,"ny":88,"refTime":"2025-04-09T12:00:00:Z","depth":0,"parameterNumber":3,"parameterNumberName":"V-component_of_WINDS"},"data":[0.0,0.0,0.0,0.0,0.0,0.0,0.0,0.0,0.0,0.0,0.0,0.0,0.0,0.0,0.0,0.0,0.0,0.0,0.0,0.0,0.0,0.0,0.0,0.0,0.0,0.0,0.0,0.0,0.0,0.0,0.0,0.0,0.0,0.0,0.0,0.0,0.0,0.0,0.0,0.0,0.0,0.0,0.0,0.0,0.0,0.0,0.0,0.0,0.0,0.0,0.0,0.0,0.0,0.0,0.0,0.0,0.0,0.0,0.0,0.0,0.0,0.0,0.0,0.0,0.0,0.0,0.0,0.0,0.0,0.0,0.0,0.0,0.0,0.0,0.0,0.0,0.0,0.0,0.0,0.0,0.0,0.0,0.0,0.0,0.0,0.0,0.0,0.0,0.0,0.0,0.0,0.0,0.0,0.0,0.0,0.0,0.0,0.0,0.0,0.0,0.0,0.0,0.0,0.0,0.0,0.0,0.0,0.0,0.0,0.0,0.0,0.0,0.0,0.0,0.0,0.0,0.0,0.0,0.0,0.0,0.0,0.0,0.0,0.0,0.0,0.0,0.0,0.0,0.0,0.0,0.0,0.0,0.0,0.0,0.0,0.0,0.0,0.0,0.0,0.0,0.0,0.0,0.0,0.0,0.0,0.0,0.0,0.0,0.0,0.0,0.0,0.0,0.0,0.0,0.0,0.0,0.0,0.0,0.0,0.0,0.0,0.0,0.0,0.0,0.0,0.0,0.0,0.0,0.0,0.0,0.0,0.0,0.0,0.0,0.0,0.0,0.0,0.0,0.0,0.0,0.0,0.0,0.0,0.0,0.0,0.0,0.0,0.0,0.0,0.0,0.0,0.0,0.0,0.0,0.0,0.0,0.0,0.0,0.0,0.0,0.0,0.0,0.0,0.0,0.0,0.0,0.0,0.0,0.0,0.0,0.0,0.0,0.0,0.0,0.0,0.0,0.0,0.0,0.0,0.0,0.0,0.0,0.0,0.0,0.0,0.0,0.0,0.0,0.0,0.0,0.0,0.0,0.0,0.0,0.0,0.0,0.0,0.0,0.0,0.0,0.0,0.0,0.0,0.0,0.0,0.0,0.0,0.0,0.0,0.0,0.0,0.0,0.0,0.0,0.0,0.0,0.0,0.0,0.0,0.0,0.0,0.0,0.0,0.0,0.0,0.0,0.0,0.0,0.0,0.0,0.0,0.0,0.0,0.0,0.0,0.0,0.0,0.0,0.0,0.0,0.0,0.0,0.0,0.0,0.0,0.0,0.0,0.0,0.0,0.0,0.0,0.0,0.0,0.0,0.0,0.0,0.0,0.0,0.0,0.0,0.0,0.0,0.0,0.0,0.0,0.0,0.0,0.0,0.0,0.0,0.0,0.0,0.0,0.0,0.0,0.0,0.0,0.0,0.0,0.0,0.0,0.0,0.0,0.0,0.0,0.0,0.0,0.0,0.0,0.0,0.0,0.0,0.0,0.0,0.0,0.0,0.0,0.0,0.0,0.0,0.0,0.0,0.0,0.0,0.0,0.0,0.0,0.0,0.0,0.0,0.0,0.0,0.0,0.0,0.0,0.0,0.0,0.0,0.0,0.0,0.0,0.0,0.0,0.0,0.0,0.0,0.0,0.0,0.0,0.0,0.0,0.0,0.0,0.0,0.0,0.0,0.0,0.0,0.0,0.0,0.0,0.0,0.0,0.0,0.0,0.0,0.0,0.0,0.0,0.0,0.0,0.0,0.0,0.0,0.0,0.0,0.0,0.0,0.0,0.0,0.0,0.0,0.0,0.0,0.0,0.0,0.0,0.0,0.0,0.0,0.0,0.0,0.0,0.0,0.0,0.0,0.0,0.0,0.0,0.0,0.0,0.0,0.0,0.0,0.0,0.0,0.0,0.0,0.0,0.0,0.0,0.0,0.0,0.0,0.0,0.0,0.0,0.0,0.0,0.0,0.0,0.0,0.0,0.0,0.0,0.0,0.0,0.0,0.0,0.0,0.0,0.0,0.0,0.0,0.0,0.0,0.0,0.0,0.0,0.0,0.0,0.0,0.0,0.0,0.0,0.0,0.0,0.0,0.0,0.0,0.0,0.0,0.0,0.0,0.0,0.0,0.0,0.0,0.0,0.0,0.0,0.0,0.0,0.0,0.0,0.0,0.0,0.0,0.0,0.0,0.0,0.0,0.0,0.0,0.0,0.0,0.0,0.0,0.0,0.0,0.0,0.0,0.0,0.0,0.0,0.0,0.0,0.0,0.0,0.0,0.0,0.0,0.0,0.0,0.0,0.0,0.0,0.0,0.0,0.0,0.0,0.0,0.0,0.0,0.0,0.0,0.0,0.0,0.0,0.0,0.0,0.0,0.0,0.0,0.0,0.0,0.0,0.0,0.0,0.0,0.0,0.0,0.0,0.0,0.0,0.0,0.0,0.0,0.0,0.0,0.0,0.0,0.0,0.0,0.0,0.0,0.0,0.0,0.0,0.0,0.0,0.0,0.0,0.0,0.0,0.0,0.0,0.0,0.0,0.0,0.0,0.0,0.0,0.0,0.0,0.0,0.0,0.0,0.0,0.0,0.0,0.0,0.0,0.0,0.0,0.0,0.0,0.0,0.0,0.0,0.0,0.0,0.0,0.0,0.0,0.0,0.0,0.0,0.0,0.0,0.0,0.0,0.0,0.0,0.0,0.0,0.0,0.0,0.0,0.0,0.0,0.0,0.0,0.0,0.0,0.0,0.0,0.0,0.0,0.0,0.0,0.0,0.0,0.0,0.0,0.0,0.0,0.0,0.0,0.0,0.0,0.0,0.0,0.0,0.0,0.0,0.0,0.0,0.0,0.0,0.0,0.0,0.0,0.0,0.0,0.0,0.0,0.0,0.0,0.0,0.0,0.0,0.0,0.0,0.0,0.0,0.0,0.0,0.0,0.0,0.0,0.0,0.0,0.0,0.0,0.0,0.0,0.0,0.0,0.0,0.0,0.0,0.0,0.0,0.0,0.0,0.0,0.0,0.0,0.0,0.0,0.0,0.0,0.0,0.0,0.0,0.0,0.0,0.0,0.0,0.0,0.0,0.0,0.0,0.0,0.0,0.0,0.0,0.0,0.0,0.0,0.0,0.0,0.0,0.0,0.0,0.0,0.0,0.0,0.0,0.0,0.0,0.0,0.0,0.0,0.0,0.0,0.0,0.0,0.0,0.0,0.0,0.0,0.0,0.0,0.0,0.0,0.0,0.0,0.0,0.0,0.0,0.0,0.0,0.0,0.0,0.0,0.0,0.0,0.0,0.0,0.0,0.0,0.0,0.0,0.0,0.0,0.0,0.0,0.0,0.0,0.0,0.0,0.0,0.0,0.0,0.0,0.0,0.0,0.0,0.0,0.0,0.0,0.0,0.0,0.0,0.0,0.0,0.0,0.0,0.0,0.0,0.0,0.0,0.0,0.0,0.0,0.0,0.0,0.0,0.0,0.0,0.0,0.0,0.0,0.0,0.0,0.0,0.0,0.0,0.0,0.0,0.0,0.0,0.0,0.0,0.0,0.0,0.0,0.0,0.0,0.0,0.0,0.0,0.0,0.0,0.0,0.0,0.0,0.0,0.0,0.0,0.0,0.0,0.0,0.0,0.0,0.0,0.0,0.0,0.0,0.0,0.0,0.0,0.0,0.0,0.0,0.0,0.0,0.0,0.0,0.0,0.0,0.0,0.0,0.0,0.0,0.0,0.0,0.0,0.0,0.0,0.0,0.0,0.0,0.0,0.0,0.0,0.0,0.0,0.0,0.0,0.0,0.0,0.0,0.0,0.0,0.0,0.0,0.0,0.0,0.0,0.0,0.0,0.0,0.0,0.0,0.0,0.0,0.0,0.0,0.0,0.0,0.0,0.0,0.0,0.0,0.0,0.0,0.0,0.0,0.0,0.0,0.0,0.0,0.0,0.0,0.0,0.0,0.0,0.0,0.0,0.0,0.0,0.0,0.0,0.0,0.0,0.0,0.0,0.0,0.0,0.0,0.0,0.0,0.0,0.0,0.0,0.0,0.0,0.0,0.0,0.0,0.0,0.0,0.0,0.0,0.0,0.0,0.0,0.0,0.0,0.0,0.0,0.0,0.0,0.0,0.0,0.0,0.0,0.0,0.0,0.0,0.0,0.0,0.0,0.0,0.0,0.0,0.0,0.0,0.0,0.0,0.0,0.0,0.0,0.0,0.0,0.0,0.0,0.0,0.0,0.0,0.0,0.0,0.0,0.0,0.0,0.0,0.0,0.0,0.0,0.0,0.0,0.0,0.0,-0.9021,0.0,0.0,0.0,0.0,0.0,0.0,0.0,0.0,0.0,0.0,0.0,0.0,0.0,0.0,0.0,0.0,0.0,0.0,0.0,0.0,0.0,0.0,0.0,0.0,0.0,0.0,0.0,0.0,0.0,0.0,0.0,0.0,0.0,0.0,0.0,0.0,0.0,0.0,0.0,0.0,0.0,0.0,0.0,0.0,0.0,0.0,0.0,0.0,0.0,0.0,0.0,0.0,0.0,0.0,0.0,0.0,0.0,0.0,0.0,0.0,0.0,0.0,0.0,0.0,0.0,0.0,0.0,0.0,0.0,0.0,0.0,0.0,0.0,0.0,0.0,0.0,0.0,0.0,0.0,0.0,0.0,0.0,0.0,0.0,0.0,0.0,0.0,0.0,0.0,0.0,0.0,0.0,0.0,0.0,0.0,0.0,0.0,0.0,0.0,0.0,0.0,0.0,0.0,0.0,0.0,0.0,0.0,0.0,0.0,0.0,-0.9662,-0.9824,-0.9692,-0.9418,-0.903,0.0,0.0,0.0,0.0,0.0,0.0,0.0,0.0,0.0,0.0,0.0,0.0,0.0,0.0,0.0,0.0,0.0,0.0,0.0,0.0,0.0,0.0,0.0,0.0,0.0,0.0,0.0,0.0,0.0,0.0,0.0,0.0,0.0,0.0,0.0,0.0,0.0,0.0,0.0,0.0,0.0,0.0,0.0,0.0,0.0,0.0,0.0,0.0,0.0,0.0,0.0,0.0,0.0,0.0,0.0,0.0,0.0,0.0,0.0,0.0,0.0,0.0,0.0,0.0,0.0,0.0,0.0,0.0,0.0,0.0,0.0,0.0,0.0,0.0,0.0,0.0,0.0,0.0,0.0,0.0,0.0,0.0,0.0,0.0,0.0,0.0,0.0,0.0,0.0,0.0,0.0,0.0,0.0,0.0,0.0,0.0,0.0,0.0,0.0,0.0,0.0,0.0,0.0,0.0,0.0,0.0,0.0,0.0,0.0,0.0,0.0,0.0,-0.9841,-0.9675,-0.9295,0.0,0.0,0.0,0.0,0.0,0.0,0.0,0.0,0.0,0.0,0.0,0.0,0.0,0.0,0.0,0.0,0.0,0.0,0.0,0.0,0.0,0.0,0.0,0.0,0.0,0.0,0.0,0.0,0.0,0.0,0.0,0.0,0.0,0.0,0.0,0.0,0.0,0.0,0.0,0.0,0.0,0.0,0.0,0.0,0.0,0.0,0.0,0.0,0.0,0.0,0.0,0.0,0.0,0.0,0.0,0.0,0.0,0.0,0.0,0.0,0.0,0.0,0.0,0.0,0.0,0.0,0.0,0.0,0.0,0.0,0.0,0.0,0.0,0.0,0.0,0.0,0.0,0.0,0.0,0.0,0.0,0.0,0.0,0.0,0.0,0.0,0.0,0.0,0.0,0.0,0.0,0.0,0.0,0.0,0.0,0.0,0.0,0.0,0.0,0.0,0.0,0.0,0.0,0.0,0.0,0.0,0.0,0.0,0.0,0.0,-0.991,-1.0576,-1.0593,0.0,-1.0049,0.0,0.0,0.0,0.0,0.0,0.0,0.0,0.0,0.0,0.0,0.0,0.0,0.0,0.0,0.0,0.0,0.0,0.0,0.0,0.0,0.0,0.0,0.0,0.0,0.0,0.0,0.0,0.0,0.0,0.0,0.0,0.0,0.0,0.0,0.0,0.0,0.0,0.0,0.0,0.0,0.0,0.0,0.0,0.0,0.0,0.0,0.0,0.0,0.0,0.0,0.0,0.0,0.0,0.0,0.0,0.0,0.0,0.0,0.0,0.0,0.0,0.0,0.0,0.0,0.0,0.0,0.0,0.0,0.0,0.0,0.0,0.0,0.0,0.0,0.0,0.0,0.0,0.0,0.0,0.0,0.0,0.0,0.0,0.0,0.0,0.0,0.0,0.0,0.0,0.0,0.0,0.0,0.0,0.0,0.0,0.0,0.0,0.0,0.0,0.0,0.0,0.0,0.0,0.0,0.0,0.0,0.0,0.0,0.0,0.0,0.0,-1.0322,-1.0331,-1.0277,0.0,0.0,0.0,0.0,0.0,0.0,0.0,0.0,0.0,0.0,0.0,0.0,0.0,0.0,0.0,0.0,0.0,0.0,0.0,0.0,0.0,0.0,0.0,0.0,0.0,0.0,0.0,0.0,0.0,0.0,0.0,0.0,0.0,0.0,0.0,0.0,0.0,0.0,0.0,0.0,0.0,0.0,0.0,0.0,0.0,0.0,0.0,0.0,0.0,0.0,0.0,0.0,0.0,0.0,0.0,0.0,0.0,0.0,0.0,0.0,0.0,0.0,0.0,0.0,0.0,0.0,0.0,0.0,0.0,0.0,0.0,0.0,0.0,0.0,0.0,0.0,0.0,0.0,0.0,0.0,0.0,0.0,0.0,0.0,0.0,0.0,0.0,0.0,0.0,0.0,0.0,0.0,0.0,0.0,0.0,0.0,0.0,0.0,0.0,0.0,0.0,0.0,0.0,0.0,0.0,0.0,0.0,0.0,0.0,0.0,-1.0077,0.0,-1.0739,-1.0655,-1.0536,-1.0363,0.0,0.0,0.0,0.0,0.0,0.0,0.0,0.0,0.0,0.0,0.0,0.0,0.0,0.0,0.0,0.0,0.0,0.0,0.0,0.0,0.0,0.0,0.0,0.0,0.0,0.0,0.0,0.0,0.0,0.0,0.0,0.0,0.0,0.0,0.0,0.0,0.0,0.0,0.0,0.0,0.0,0.0,0.0,0.0,0.0,0.0,0.0,0.0,0.0,0.0,0.0,0.0,0.0,0.0,0.0,0.0,0.0,0.0,0.0,0.0,0.0,0.0,0.0,0.0,0.0,0.0,0.0,0.0,0.0,0.0,0.0,0.0,0.0,0.0,0.0,0.0,0.0,0.0,0.0,0.0,0.0,0.0,0.0,0.0,0.0,0.0,0.0,0.0,0.0,0.0,0.0,0.0,0.0,0.0,0.0,0.0,0.0,0.0,0.0,0.0,0.0,0.0,0.0,0.0,0.0,0.0,0.0,0.0,0.0,-1.0946,-1.1325,-1.2312,-1.2061,-1.1636,0.0,0.0,0.0,0.0,0.0,0.0,0.0,0.0,0.0,0.0,0.0,0.0,0.0,0.0,0.0,0.0,0.0,0.0,0.0,0.0,0.0,0.0,0.0,0.0,0.0,0.0,0.0,0.0,0.0,0.0,0.0,0.0,0.0,0.0,0.0,0.0,0.0,0.0,0.0,0.0,0.0,0.0,0.0,0.0,0.0,0.0,0.0,0.0,0.0,0.0,0.0,0.0,0.0,0.0,0.0,0.0,0.0,0.0,0.0,0.0,0.0,0.0,0.0,0.0,0.0,0.0,0.0,0.0,0.0,0.0,0.0,0.0,0.0,0.0,0.0,0.0,0.0,0.0,0.0,0.0,0.0,0.0,0.0,0.0,0.0,0.0,0.0,0.0,0.0,0.0,0.0,0.0,0.0,0.0,0.0,0.0,0.0,0.0,0.0,0.0,0.0,0.0,0.0,0.0,0.0,0.0,0.0,0.0,0.0,-0.9825,-1.0214,-1.1205,-1.2762,-1.1722,-1.1246,0.0,0.0,0.0,0.0,0.0,0.0,0.0,0.0,0.0,0.0,0.0,0.0,0.0,0.0,0.0,0.0,0.0,0.0,0.0,0.0,0.0,0.0,0.0,0.0,0.0,0.0,0.0,0.0,0.0,0.0,0.0,0.0,0.0,0.0,0.0,0.0,0.0,0.0,0.0,0.0,0.0,0.0,0.0,0.0,0.0,0.0,0.0,0.0,0.0,0.0,0.0,0.0,0.0,0.0,0.0,0.0,0.0,0.0,0.0,0.0,0.0,0.0,0.0,0.0,0.0,0.0,0.0,0.0,0.0,0.0,0.0,0.0,0.0,0.0,0.0,0.0,0.0,0.0,0.0,0.0,0.0,0.0,0.0,0.0,0.0,0.0,0.0,0.0,0.0,0.0,0.0,0.0,0.0,0.0,0.0,0.0,0.0,0.0,0.0,0.0,0.0,0.0,0.0,0.0,0.0,0.0,0.0,0.0,0.0,-0.9974,0.0,-1.1683,0.0,-1.2028,-1.145,0.0,0.0,0.0,0.0,0.0,0.0,0.0,0.0,0.0,0.0,0.0,0.0,0.0,0.0,0.0,0.0,0.0,0.0,0.0,0.0,0.0,0.0,0.0,0.0,0.0,0.0,0.0,0.0,0.0,0.0,0.0,0.0,0.0,0.0,0.0,0.0,0.0,0.0,0.0,0.0,0.0,0.0,0.0,0.0,0.0,0.0,0.0,0.0,0.0,0.0,0.0,0.0,0.0,0.0,0.0,0.0,0.0,0.0,0.0,0.0,0.0,0.0,0.0,0.0,0.0,0.0,0.0,0.0,0.0,0.0,0.0,0.0,0.0,0.0,0.0,0.0,0.0,0.0,0.0,0.0,0.0,0.0,0.0,0.0,0.0,0.0,0.0,0.0,0.0,0.0,0.0,0.0,0.0,0.0,0.0,0.0,0.0,0.0,0.0,0.0,0.0,0.0,0.0,0.0,0.0,0.0,0.0,0.0,-1.0349,-1.1892,-1.2622,-1.2911,-1.2925,-1.2996,-1.2416,0.0,0.0,0.0,0.0,0.0,0.0,0.0,0.0,0.0,0.0,0.0,0.0,0.0,0.0,0.0,0.0,0.0,0.0,0.0,0.0,0.0,0.0,0.0,0.0,0.0,0.0,0.0,0.0,0.0,0.0,0.0,0.0,0.0,0.0,0.0,0.0,0.0,0.0,0.0,0.0,0.0,0.0,0.0,0.0,0.0,0.0,0.0,0.0,0.0,0.0,0.0,0.0,0.0,0.0,0.0,0.0,0.0,0.0,0.0,0.0,0.0,0.0,0.0,0.0,0.0,0.0,0.0,0.0,0.0,0.0,0.0,0.0,0.0,0.0,0.0,0.0,0.0,0.0,0.0,0.0,0.0,0.0,0.0,0.0,0.0,0.0,0.0,0.0,0.0,0.0,0.0,0.0,0.0,0.0,0.0,0.0,0.0,0.0,0.0,0.0,0.0,0.0,0.0,0.0,0.0,0.0,0.0,0.0,0.0,-1.185,-1.1855,-1.2404,-1.3397,-1.2355,-1.1922,0.0,0.0,0.0,0.0,0.0,0.0,0.0,0.0,0.0,0.0,0.0,0.0,0.0,0.0,0.0,0.0,0.0,0.0,0.0,0.0,0.0,0.0,0.0,0.0,0.0,0.0,0.0,0.0,0.0,0.0,0.0,0.0,0.0,0.0,0.0,0.0,0.0,0.0,0.0,0.0,0.0,0.0,0.0,0.0,0.0,0.0,0.0,0.0,0.0,0.0,0.0,0.0,0.0,0.0,0.0,0.0,0.0,0.0,0.0,0.0,0.0,0.0,0.0,0.0,0.0,0.0,0.0,0.0,0.0,0.0,0.0,0.0,0.0,0.0,0.0,0.0,0.0,0.0,0.0,0.0,0.0,0.0,0.0,0.0,0.0,0.0,0.0,0.0,0.0,0.0,0.0,0.0,0.0,0.0,0.0,0.0,0.0,0.0,0.0,0.0,0.0,0.0,0.0,0.0,0.0,0.0,0.0,0.0,0.0,-1.37,-1.3194,-1.3336,-1.4227,-1.3143,-1.2591,-1.2648,0.0,0.0,0.0,0.0,0.0,0.0,0.0,0.0,0.0,0.0,0.0,0.0,0.0,0.0,0.0,0.0,0.0,0.0,0.0,0.0,0.0,0.0,0.0,0.0,0.0,0.0,0.0,0.0,0.0,0.0,0.0,0.0,0.0,0.0,0.0,0.0,0.0,0.0,0.0,0.0,0.0,0.0,0.0,0.0,0.0,0.0,0.0,0.0,0.0,0.0,0.0,0.0,0.0,0.0,0.0,0.0,0.0,0.0,0.0,0.0,0.0,0.0,0.0,0.0,0.0,0.0,0.0,0.0,0.0,0.0,0.0,0.0,0.0,0.0,0.0,0.0,0.0,0.0,0.0,0.0,0.0,0.0,0.0,0.0,0.0,0.0,0.0,0.0,0.0,0.0,0.0,0.0,0.0,0.0,0.0,0.0,0.0,0.0,0.0,0.0,0.0,0.0,0.0,0.0,0.0,0.0,0.0,0.0,-1.7115,-1.6307,-1.5642,-1.5177,-1.5036,-1.4169,0.0,0.0,0.0,0.0,0.0,0.0,0.0,0.0,0.0,0.0,0.0,0.0,0.0,0.0,0.0,0.0,0.0,0.0,0.0,0.0,0.0,0.0,0.0,0.0,0.0,0.0,0.0,0.0,0.0,0.0,0.0,0.0,0.0,0.0,0.0,0.0,0.0,0.0,0.0,0.0,0.0,0.0,0.0,0.0,0.0,0.0,0.0,0.0,0.0,0.0,0.0,0.0,0.0,0.0,0.0,0.0,0.0,0.0,0.0,0.0,0.0,0.0,0.0,0.0,0.0,0.0,0.0,0.0,0.0,0.0,0.0,0.0,0.0,0.0,0.0,0.0,0.0,0.0,0.0,0.0,0.0,0.0,0.0,0.0,0.0,0.0,0.0,0.0,0.0,0.0,0.0,0.0,0.0,0.0,0.0,0.0,0.0,0.0,0.0,0.0,0.0,0.0,0.0,0.0,0.0,0.0,0.0,0.0,0.0,-1.8477,-1.8926,-1.8454,-1.7025,-1.5716,-1.4614,0.0,0.0,0.0,0.0,0.0,0.0,0.0,0.0,0.0,0.0,0.0,0.0,0.0,0.0,0.0,0.0,0.0,0.0,0.0,0.0,0.0,0.0,0.0,0.0,0.0,0.0,0.0,0.0,0.0,0.0,0.0,0.0,0.0,0.0,0.0,0.0,0.0,0.0,0.0,0.0,0.0,0.0,0.0,0.0,0.0,0.0,0.0,0.0,0.0,0.0,0.0,0.0,0.0,0.0,0.0,0.0,0.0,0.0,0.0,0.0,0.0,0.0,0.0,0.0,0.0,0.0,0.0,0.0,0.0,0.0,0.0,0.0,0.0,0.0,0.0,0.0,0.0,0.0,0.0,0.0,0.0,0.0,0.0,0.0,0.0,0.0,0.0,0.0,0.0,0.0,0.0,0.0,0.0,0.0,0.0,0.0,0.0,0.0,0.0,0.0,0.0,0.0,0.0,0.0,0.0,0.0,0.0,0.0,-1.8102,-1.9893,-2.1021,-2.0911,-1.9458,-1.7667,-1.6136,0.0,0.0,0.0,0.0,0.0,0.0,0.0,0.0,0.0,0.0,0.0,0.0,0.0,0.0,0.0,0.0,0.0,0.0,0.0,0.0,0.0,0.0,0.0,0.0,0.0,0.0,0.0,0.0,0.0,0.0,0.0,0.0,0.0,0.0,0.0,0.0,0.0,0.0,0.0,0.0,0.0,0.0,0.0,0.0,0.0,0.0,0.0,0.0,0.0,0.0,0.0,0.0,0.0,0.0,0.0,0.0,0.0,0.0,0.0,0.0,0.0,0.0,0.0,0.0,0.0,0.0,0.0,0.0,0.0,0.0,0.0,0.0,0.0,0.0,0.0,0.0,0.0,0.0,0.0,0.0,0.0,0.0,0.0,0.0,0.0,0.0,0.0,0.0,0.0,0.0,0.0,0.0,0.0,0.0,0.0,0.0,0.0,0.0,0.0,0.0,0.0,0.0,0.0,0.0,0.0,0.0,0.0,0.0,-1.9406,-2.1228,-2.2604,-2.2894,-2.1942,-2.0114,-1.8071,0.0,0.0,0.0,0.0,0.0,0.0,0.0,0.0,0.0,0.0,0.0,0.0,0.0,0.0,0.0,0.0,0.0,0.0,0.0,0.0,0.0,0.0,0.0,0.0,0.0,0.0,0.0,0.0,0.0,0.0,0.0,0.0,0.0,0.0,0.0,0.0,0.0,0.0,0.0,0.0,0.0,0.0,0.0,0.0,0.0,0.0,0.0,0.0,0.0,0.0,0.0,0.0,0.0,0.0,0.0,0.0,0.0,0.0,0.0,0.0,0.0,0.0,0.0,0.0,0.0,0.0,0.0,0.0,0.0,0.0,0.0,0.0,0.0,0.0,0.0,0.0,0.0,0.0,0.0,0.0,0.0,0.0,0.0,0.0,0.0,0.0,0.0,0.0,0.0,0.0,0.0,0.0,0.0,0.0,0.0,0.0,0.0,0.0,0.0,0.0,0.0,0.0,0.0,0.0,0.0,0.0,0.0,0.0,-2.0384,-2.217,-2.3505,-2.3815,-2.2904,-2.041,-1.8217,0.0,0.0,0.0,0.0,0.0,0.0,0.0,0.0,0.0,0.0,0.0,0.0,0.0,0.0,0.0,0.0,0.0,0.0,0.0,0.0,0.0,0.0,0.0,0.0,0.0,0.0,0.0,0.0,0.0,0.0,0.0,0.0,0.0,0.0,0.0,0.0,0.0,0.0,0.0,0.0,0.0,0.0,0.0,0.0,0.0,0.0,0.0,0.0,-1.4241,0.0,0.0,0.0,0.0,0.0,0.0,0.0,0.0,0.0,0.0,0.0,0.0,0.0,0.0,0.0,0.0,0.0,0.0,0.0,0.0,0.0,0.0,0.0,0.0,0.0,0.0,0.0,0.0,0.0,0.0,0.0,0.0,0.0,0.0,0.0,0.0,0.0,0.0,0.0,0.0,0.0,0.0,0.0,0.0,0.0,0.0,0.0,0.0,0.0,0.0,0.0,0.0,0.0,0.0,0.0,0.0,0.0,0.0,0.0,-2.0969,-2.277,-2.3898,-2.4073,-2.3163,-2.1342,-1.9303,0.0,0.0,0.0,0.0,0.0,0.0,0.0,0.0,0.0,0.0,0.0,0.0,0.0,0.0,0.0,0.0,0.0,0.0,0.0,0.0,0.0,0.0,0.0,0.0,0.0,0.0,0.0,0.0,0.0,0.0,0.0,0.0,0.0,0.0,0.0,0.0,0.0,0.0,0.0,0.0,0.0,0.0,0.0,0.0,0.0,0.0,0.0,0.0,0.0,0.0,0.0,0.0,0.0,0.0,0.0,0.0,0.0,0.0,0.0,0.0,0.0,0.0,0.0,0.0,0.0,0.0,0.0,0.0,0.0,0.0,0.0,0.0,0.0,0.0,0.0,0.0,0.0,0.0,0.0,0.0,0.0,0.0,0.0,0.0,0.0,0.0,0.0,0.0,0.0,0.0,0.0,0.0,0.0,0.0,0.0,0.0,0.0,0.0,0.0,0.0,0.0,0.0,0.0,0.0,0.0,0.0,0.0,-1.9352,-2.1321,-2.3318,-2.4146,-2.4073,-2.3205,-2.2294,-2.0524,-1.7812,0.0,0.0,0.0,0.0,0.0,0.0,0.0,0.0,0.0,0.0,0.0,0.0,0.0,0.0,0.0,0.0,0.0,0.0,0.0,0.0,0.0,0.0,0.0,0.0,0.0,0.0,0.0,0.0,0.0,0.0,0.0,0.0,0.0,0.0,0.0,0.0,0.0,0.0,-1.2126,-1.4184,0.0,0.0,0.0,0.0,0.0,0.0,0.0,0.0,-1.516,0.0,0.0,0.0,0.0,0.0,0.0,0.0,0.0,0.0,0.0,0.0,0.0,0.0,0.0,0.0,0.0,0.0,0.0,0.0,0.0,0.0,0.0,0.0,0.0,0.0,0.0,0.0,0.0,0.0,0.0,0.0,0.0,0.0,0.0,0.0,0.0,0.0,0.0,0.0,0.0,0.0,0.0,0.0,0.0,0.0,0.0,0.0,0.0,0.0,0.0,0.0,0.0,0.0,0.0,0.0,0.0,-1.9755,-1.9872,-2.1311,-2.4187,-2.4425,-2.4063,-2.3205,-2.2294,-2.0524,-1.7843,0.0,0.0,0.0,0.0,0.0,0.0,0.0,0.0,0.0,0.0,0.0,0.0,0.0,0.0,0.0,0.0,0.0,0.0,0.0,0.0,0.0,0.0,0.0,0.0,0.0,0.0,0.0,0.0,0.0,0.0,0.0,0.0,0.0,0.0,0.0,0.0,0.0,0.0,0.0,-1.5492,-1.6367,0.0,0.0,0.0,0.0,0.0,0.0,0.0,0.0,-1.4938,0.0,0.0,0.0,0.0,0.0,0.0,0.0,0.0,0.0,0.0,0.0,0.0,0.0,0.0,0.0,0.0,0.0,0.0,0.0,0.0,0.0,0.0,0.0,0.0,0.0,0.0,0.0,0.0,0.0,0.0,0.0,0.0,0.0,0.0,0.0,0.0,0.0,0.0,0.0,0.0,0.0,0.0,0.0,0.0,0.0,0.0,0.0,0.0,0.0,0.0,0.0,0.0,0.0,0.0,0.0,-1.9551,-2.0715,-2.2379,-2.4777,-2.4615,-2.4189,-2.3496,-2.2161,-2.025,0.0,0.0,0.0,0.0,0.0,0.0,0.0,0.0,0.0,0.0,0.0,0.0,0.0,0.0,0.0,0.0,0.0,0.0,0.0,0.0,0.0,0.0,0.0,0.0,0.0,0.0,0.0,0.0,0.0,0.0,0.0,0.0,0.0,0.0,0.0,0.0,0.0,0.0,0.0,0.0,-1.6374,-1.7079,-1.776,0.0,0.0,0.0,0.0,0.0,0.0,-1.6689,-1.5944,0.0,0.0,0.0,0.0,0.0,0.0,0.0,0.0,0.0,0.0,0.0,0.0,0.0,0.0,0.0,0.0,0.0,0.0,0.0,0.0,0.0,0.0,0.0,0.0,0.0,0.0,0.0,0.0,0.0,0.0,0.0,0.0,0.0,0.0,0.0,0.0,0.0,0.0,0.0,0.0,0.0,0.0,0.0,0.0,0.0,0.0,0.0,0.0,0.0,0.0,0.0,0.0,0.0,0.0,0.0,-1.9144,-2.1266,-2.3286,-2.5073,-2.4914,-2.4472,-2.3785,-2.2132,-2.0128,0.0,0.0,0.0,0.0,0.0,0.0,0.0,0.0,0.0,0.0,0.0,0.0,0.0,0.0,0.0,0.0,0.0,0.0,0.0,0.0,0.0,0.0,0.0,0.0,0.0,0.0,0.0,0.0,0.0,0.0,0.0,0.0,0.0,0.0,0.0,0.0,0.0,0.0,0.0,0.0,0.0,-1.7917,-1.8924,-1.81,0.0,0.0,0.0,0.0,-1.7957,-1.8087,0.0,0.0,0.0,0.0,0.0,0.0,0.0,0.0,0.0,0.0,0.0,0.0,0.0,0.0,0.0,0.0,0.0,0.0,0.0,0.0,0.0,0.0,0.0,0.0,0.0,0.0,0.0,0.0,0.0,0.0,0.0,0.0,0.0,0.0,0.0,0.0,0.0,0.0,0.0,0.0,0.0,0.0,0.0,0.0,0.0,0.0,0.0,0.0,0.0,0.0,0.0,0.0,0.0,0.0,0.0,0.0,-1.9366,-2.1044,-2.2966,-2.5115,-2.5549,-2.5137,-2.3836,-2.2445,-2.0442,0.0,0.0,0.0,0.0,0.0,0.0,0.0,0.0,0.0,0.0,0.0,0.0,0.0,0.0,0.0,0.0,0.0,0.0,0.0,0.0,0.0,0.0,0.0,0.0,0.0,0.0,0.0,0.0,0.0,0.0,0.0,0.0,0.0,0.0,0.0,0.0,0.0,0.0,0.0,0.0,0.0,-1.895,-1.9603,-1.8728,-1.8349,0.0,0.0,0.0,-2.0203,-2.1157,0.0,0.0,0.0,0.0,0.0,0.0,0.0,0.0,0.0,0.0,0.0,0.0,0.0,0.0,0.0,0.0,0.0,0.0,0.0,0.0,0.0,0.0,0.0,0.0,0.0,0.0,0.0,0.0,0.0,0.0,0.0,0.0,0.0,0.0,0.0,0.0,0.0,0.0,0.0,0.0,0.0,0.0,0.0,0.0,0.0,0.0,0.0,0.0,0.0,0.0,0.0,0.0,0.0,0.0,0.0,-1.7166,-1.9462,-2.1994,-2.4043,-2.5526,-2.5812,-2.5343,-2.4205,-2.2302,-2.014,0.0,0.0,0.0,0.0,0.0,0.0,0.0,0.0,0.0,0.0,0.0,0.0,0.0,0.0,0.0,0.0,0.0,0.0,0.0,0.0,0.0,0.0,0.0,0.0,0.0,0.0,0.0,0.0,0.0,0.0,0.0,0.0,0.0,0.0,0.0,0.0,0.0,0.0,0.0,0.0,0.0,0.0,-1.9721,-1.9656,0.0,0.0,0.0,-2.1027,-2.0308,0.0,0.0,0.0,0.0,0.0,0.0,0.0,0.0,0.0,0.0,0.0,0.0,0.0,0.0,0.0,0.0,0.0,0.0,0.0,0.0,0.0,0.0,0.0,0.0,0.0,0.0,0.0,0.0,0.0,0.0,0.0,0.0,0.0,0.0,0.0,0.0,0.0,0.0,0.0,0.0,0.0,0.0,0.0,0.0,0.0,0.0,0.0,0.0,0.0,0.0,0.0,0.0,0.0,0.0,0.0,0.0,0.0,-1.9681,-2.2883,-2.5051,-2.6008,-2.6135,-2.5724,-2.464,-2.2562,0.0,0.0,0.0,0.0,0.0,0.0,0.0,0.0,0.0,0.0,0.0,0.0,0.0,0.0,0.0,0.0,0.0,0.0,0.0,0.0,0.0,0.0,0.0,0.0,0.0,0.0,0.0,-0.6785,0.0,0.0,0.0,0.0,0.0,0.0,0.0,0.0,0.0,0.0,0.0,0.0,0.0,0.0,-1.9773,-2.0361,-2.0844,-2.1263,0.0,0.0,-2.2205,-2.1067,-2.2322,-2.2192,0.0,0.0,0.0,0.0,0.0,0.0,0.0,0.0,0.0,0.0,0.0,0.0,0.0,0.0,0.0,0.0,0.0,0.0,0.0,0.0,0.0,0.0,0.0,0.0,0.0,0.0,0.0,0.0,0.0,0.0,0.0,0.0,0.0,0.0,0.0,0.0,0.0,0.0,0.0,0.0,0.0,0.0,0.0,0.0,0.0,0.0,0.0,0.0,0.0,0.0,0.0,0.0,0.0,0.0,0.0,-2.0096,-2.3338,-2.5502,-2.6442,-2.6891,-2.6455,-2.5094,-2.3629,-2.1407,0.0,0.0,0.0,0.0,0.0,0.0,0.0,0.0,0.0,0.0,0.0,0.0,0.0,0.0,0.0,0.0,0.0,0.0,0.0,0.0,0.0,0.0,0.0,0.0,0.0,0.0,0.0,0.0,0.0,0.0,0.0,0.0,0.0,0.0,0.0,0.0,0.0,0.0,0.0,0.0,0.0,-2.1525,-2.2139,-2.227,-2.2858,0.0,0.0,-2.3302,-2.3746,-2.5236,-2.4874,-2.0361,0.0,0.0,0.0,0.0,0.0,0.0,0.0,0.0,0.0,0.0,0.0,0.0,0.0,0.0,0.0,0.0,0.0,0.0,0.0,0.0,0.0,0.0,0.0,0.0,0.0,0.0,0.0,0.0,0.0,0.0,0.0,0.0,0.0,0.0,0.0,0.0,0.0,0.0,0.0,0.0,0.0,0.0,0.0,0.0,0.0,0.0,0.0,0.0,0.0,0.0,0.0,0.0,0.0,-1.8547,-2.0345,-2.3706,-2.5792,-2.6472,-2.6974,-2.6548,-2.5144,-2.3906,-2.1778,0.0,0.0,0.0,0.0,0.0,0.0,0.0,0.0,0.0,0.0,0.0,0.0,0.0,0.0,0.0,0.0,0.0,0.0,0.0,0.0,0.0,0.0,0.0,0.0,0.0,0.0,0.0,0.0,-1.0314,-1.0521,-1.0051,0.0,0.0,0.0,0.0,0.0,0.0,0.0,0.0,0.0,0.0,-2.1446,-2.2701,-2.3524,0.0,0.0,-2.4896,-2.4501,-2.3694,-2.4112,-2.3341,-1.9812,-1.8675,0.0,0.0,0.0,0.0,0.0,0.0,0.0,0.0,0.0,0.0,0.0,0.0,0.0,0.0,0.0,0.0,0.0,0.0,0.0,0.0,0.0,0.0,0.0,0.0,0.0,0.0,0.0,0.0,0.0,0.0,0.0,0.0,0.0,0.0,0.0,0.0,0.0,0.0,0.0,0.0,0.0,0.0,0.0,0.0,0.0,0.0,0.0,0.0,0.0,0.0,0.0,0.0,-1.8849,-2.0582,-2.3948,-2.604,-2.6682,-2.7044,-2.6588,-2.53,-2.4337,-2.2411,0.0,0.0,0.0,0.0,0.0,0.0,0.0,0.0,0.0,0.0,0.0,0.0,0.0,0.0,0.0,0.0,0.0,0.0,0.0,0.0,0.0,0.0,0.0,0.0,0.0,0.0,0.0,0.0,-1.1278,-1.1094,-1.0168,0.0,0.0,0.0,0.0,0.0,0.0,0.0,0.0,0.0,0.0,-2.1878,-2.3054,-2.3929,-2.4599,-2.494,-2.4857,-2.4461,-2.3616,-2.3469,-2.2595,-2.0087,0.0,0.0,0.0,0.0,0.0,0.0,0.0,0.0,0.0,0.0,0.0,0.0,0.0,0.0,0.0,0.0,0.0,0.0,0.0,0.0,0.0,0.0,0.0,0.0,0.0,0.0,0.0,0.0,0.0,0.0,0.0,0.0,0.0,0.0,0.0,0.0,0.0,0.0,0.0,0.0,0.0,0.0,0.0,0.0,0.0,0.0,0.0,0.0,0.0,0.0,0.0,0.0,0.0,0.0,-2.0807,-2.402,-2.6158,-2.7144,-2.719,-2.6709,-2.5711,-2.5164,-2.3553,-2.0775,0.0,0.0,0.0,0.0,0.0,0.0,0.0,0.0,0.0,0.0,0.0,0.0,0.0,0.0,0.0,0.0,0.0,0.0,0.0,0.0,0.0,0.0,0.0,0.0,0.0,0.0,-1.0365,-1.0352,-1.0168,0.0,0.0,0.0,0.0,0.0,0.0,0.0,0.0,0.0,0.0,-2.1002,-2.3158,-2.3223,-2.3221,-2.3759,-2.4874,-2.3629,-2.291,-2.3955,-2.4044,-2.3469,0.0,0.0,0.0,0.0,0.0,0.0,0.0,0.0,0.0,0.0,0.0,0.0,0.0,0.0,0.0,0.0,0.0,0.0,0.0,0.0,0.0,0.0,0.0,0.0,0.0,0.0,0.0,-1.7002,-1.6384,0.0,0.0,0.0,0.0,0.0,0.0,0.0,0.0,0.0,0.0,0.0,-1.9278,-1.9867,0.0,0.0,0.0,0.0,0.0,0.0,0.0,0.0,0.0,0.0,0.0,0.0,-1.9353,-2.1108,-2.4129,-2.6209,-2.7156,-2.719,-2.6909,-2.6232,-2.5371,-2.3314,-1.998,0.0,0.0,0.0,0.0,0.0,0.0,0.0,0.0,0.0,0.0,0.0,0.0,0.0,0.0,0.0,0.0,0.0,0.0,0.0,0.0,0.0,0.0,0.0,0.0,0.0,-1.129,0.0,0.0,0.0,0.0,0.0,0.0,0.0,0.0,0.0,0.0,0.0,-1.7664,-1.9562,-2.1119,-2.2477,-2.3626,-2.4138,-2.4822,0.0,0.0,0.0,0.0,0.0,0.0,0.0,0.0,0.0,0.0,0.0,0.0,0.0,0.0,-2.0139,-1.6728,-1.6219,-1.6454,-1.6846,0.0,0.0,0.0,0.0,0.0,0.0,0.0,0.0,0.0,0.0,0.0,0.0,0.0,0.0,0.0,0.0,-1.8534,0.0,0.0,0.0,0.0,0.0,0.0,0.0,0.0,-2.0504,-2.1686,-2.1996,-2.2628,-2.2582,0.0,-2.1018,-1.9194,0.0,0.0,0.0,0.0,0.0,0.0,0.0,0.0,-1.9948,-2.1512,-2.4441,-2.6381,-2.7144,-2.719,-2.6898,-2.6221,-2.5038,-2.3097,-2.0364,-1.8294,-1.6582,0.0,0.0,0.0,0.0,0.0,0.0,0.0,0.0,0.0,0.0,0.0,0.0,0.0,0.0,0.0,0.0,0.0,0.0,0.0,0.0,0.0,0.0,0.0,-1.2259,0.0,0.0,0.0,0.0,0.0,0.0,0.0,0.0,0.0,-1.6107,-1.7455,-1.913,-2.1027,-2.1747,-2.2518,-2.3613,0.0,0.0,0.0,0.0,0.0,0.0,0.0,-2.2426,-2.2426,-2.1969,-2.1851,-2.2583,-2.3328,-2.3694,-2.3261,0.0,0.0,-1.9734,-1.9185,-1.9407,-1.9799,-2.0335,-2.0767,-2.0937,-2.1577,-2.2047,0.0,0.0,0.0,0.0,0.0,0.0,0.0,0.0,-2.1454,-2.1408,0.0,-2.0791,0.0,0.0,0.0,0.0,0.0,0.0,0.0,0.0,-2.48,-2.5934,-2.5027,-2.5027,-2.5015,-2.4909,-2.3607,-2.259,-2.1815,-1.8856,0.0,0.0,0.0,0.0,0.0,0.0,-2.0481,-2.1997,-2.4935,-2.6714,-2.7167,-2.719,-2.6749,-2.5739,-2.4233,-2.2983,-2.1963,-2.0642,-1.8922,-1.6638,-1.4853,0.0,0.0,0.0,0.0,0.0,0.0,0.0,0.0,0.0,0.0,0.0,0.0,0.0,0.0,0.0,0.0,0.0,0.0,0.0,0.0,-1.2598,0.0,0.0,0.0,0.0,0.0,0.0,0.0,0.0,0.0,0.0,-1.7447,-1.9313,-2.1144,-2.2244,0.0,0.0,0.0,0.0,-2.3261,-2.3406,-2.2911,-2.2807,-2.3367,-2.3809,-2.4135,-2.42,0.0,0.0,-2.528,-2.5123,-2.4835,-2.3629,-2.4426,-2.4926,-2.424,-2.3522,-2.3182,-2.3182,-2.2884,-2.2753,-2.3197,-2.3404,-2.3642,-2.5463,0.0,0.0,0.0,0.0,-2.3592,-2.4613,-2.6496,-2.5796,-2.5084,-2.4372,-2.3856,0.0,0.0,0.0,0.0,0.0,0.0,-2.2845,-2.3913,-2.5658,-2.6691,-2.7105,-2.7461,-2.7438,-2.7082,-2.6291,-2.5458,-2.4565,-2.3292,-2.0659,-1.6832,0.0,0.0,0.0,0.0,-2.1814,-2.304,-2.5291,-2.6714,-2.7179,-2.719,-2.6749,-2.5727,-2.4602,-2.3672,-2.2983,-2.1609,-2.0354,-1.9257,-1.7057,0.0,0.0,0.0,0.0,0.0,0.0,0.0,0.0,0.0,0.0,0.0,0.0,0.0,0.0,0.0,0.0,0.0,0.0,0.0,-1.2531,-1.3543,-1.3683,0.0,0.0,0.0,0.0,0.0,0.0,0.0,0.0,0.0,-2.0844,-2.1093,-2.1721,0.0,0.0,-2.2781,-2.3158,-2.3561,-2.4295,-2.5511,0.0,0.0,0.0,-2.602,-2.5584,-2.6393,-2.7314,-2.7805,-2.7491,-2.7792,-2.7831,-2.7,-2.717,-2.7223,-2.6602,-2.5715,-2.5088,-2.5062,-2.5262,-2.5515,-2.5667,-2.5994,-2.6406,-2.9309,-2.7093,-2.5911,-2.598,-2.6852,-2.6542,-2.7518,-2.9263,-2.8677,-2.7912,-2.7196,-2.6875,-2.5337,-2.296,-2.2329,0.0,0.0,0.0,-2.4926,-2.6163,-2.7196,-2.8042,-2.8586,-2.8884,-2.8873,-2.8574,-2.79,-2.7341,-2.6887,-2.5773,-2.3619,-2.0446,0.0,0.0,-1.8799,-2.1413,-2.3189,-2.4038,-2.583,-2.6921,-2.7179,-2.6829,-2.6296,-2.5716,-2.4717,-2.3867,-2.3132,-2.2249,-2.1374,-2.0435,-1.8352,-1.6685,0.0,0.0,0.0,0.0,0.0,0.0,0.0,0.0,0.0,0.0,0.0,-1.0183,0.0,0.0,0.0,0.0,-1.2038,-1.3373,-1.4511,-1.482,0.0,0.0,0.0,0.0,0.0,0.0,0.0,-1.8502,-2.0518,-2.2165,-2.2936,-2.2977,-2.3223,-2.4125,-2.3788,-2.3631,-2.4135,0.0,-2.5497,-2.6562,-2.6883,-2.7249,-2.7915,-2.7379,-2.719,-2.8338,-2.883,-2.9065,-2.9091,-2.9392,-2.9392,-2.8943,-2.8739,-2.8556,-2.7968,-2.7288,-2.6739,-2.6511,-2.6765,-2.7,-2.7,-2.7471,-2.7981,-3.2328,-3.1687,-2.8873,-2.823,-2.8987,-2.901,-2.9561,-3.0434,-3.0411,-3.0124,-2.9676,-2.9596,-2.8218,-2.5876,-2.445,0.0,0.0,-2.6267,-2.726,-2.8195,-2.9125,-2.9561,-2.9561,-2.955,-2.9561,-2.9538,-2.864,-2.839,-2.8634,-2.6911,-2.5735,-2.5092,-2.3741,-2.2685,-2.2111,-2.3488,-2.4487,-2.4981,-2.6416,-2.7156,-2.7179,-2.6232,-2.5716,-2.5704,-2.4694,-2.3707,-2.28,-2.2718,-2.2039,-2.0584,-1.908,-1.8019,-1.7348,0.0,0.0,0.0,0.0,0.0,0.0,0.0,0.0,0.0,0.0,0.0,0.0,0.0,0.0,0.0,-1.4912,0.0,-1.7173,-1.6362,0.0,0.0,0.0,-1.6284,-1.7421,-1.8558,-1.9656,-2.0791,0.0,0.0,0.0,0.0,-2.5345,-2.5858,-2.5419,-2.5236,-2.578,-2.6334,-2.6798,-2.6994,-2.7392,-2.7725,-2.8085,-2.8347,-2.8922,-2.9902,-3.0166,-3.0127,-3.0163,-3.0153,-2.9967,-2.9444,-2.9375,-2.9118,-2.849,-2.8328,-2.8237,-2.7542,-2.7464,-2.749,-2.7602,-2.7928,-2.8268,-3.3361,-3.2856,-3.2144,-3.1754,-3.1593,-3.1593,-3.1949,-3.2512,-3.2121,-3.1674,-3.1227,-3.0388,-2.9274,-2.7966,-2.761,-2.7793,-2.8425,-2.8666,-2.9102,-2.9688,-2.9929,-3.0044,-3.0044,-3.0044,-3.0044,-3.0021,-2.9461,-2.9221,-2.9274,-2.8454,-2.7779,-2.7242,-2.6508,-2.4923,-2.265,-2.3994,-2.4966,-2.5532,-2.6267,-2.6841,-2.7144,-2.6232,-2.5716,-2.5704,-2.4313,-2.3476,-2.3235,-2.2883,-2.2332,-2.156,-2.0486,-1.9428,-1.8453,-1.5739,0.0,0.0,0.0,0.0,0.0,0.0,0.0,0.0,0.0,-1.3435,-1.0547,0.0,-1.5087,0.0,-1.5617,-1.7094,-1.7813,-1.8009,0.0,0.0,-1.8584,-1.9237,-2.0361,-2.1472,-2.2296,-2.257,-2.3992,-2.5088,-2.5349,-2.5903,-2.651,-2.6981,-2.6224,-2.5837,-2.6399,-2.6961,-2.7654,-2.8464,-2.9091,-2.9631,-3.0006,-3.0268,-3.0424,-3.0738,-3.0777,-3.079,-3.0777,-3.0777,-3.0594,-3.0072,-2.9892,-2.9536,-2.8582,-2.842,-2.8177,-2.7633,-2.7503,-2.7667,-2.8072,-2.7954,-2.7994,-3.4062,-3.3614,-3.3602,-3.3304,-3.2845,-3.2845,-3.3005,-3.3258,-3.2971,-3.2558,-3.203,-3.1008,-3.0124,-2.9389,-2.9378,-2.9538,-2.9802,-2.9814,-2.9963,-3.0216,-3.0216,-3.0216,-3.0216,-3.0216,-3.0216,-3.0204,-2.994,-2.9814,-2.9791,-2.9297,-2.8919,-2.8654,-2.8149,-2.6818,-2.4809,-2.5084,-2.5417,-2.5716,-2.6249,-2.6714,-2.7133,-2.6204,-2.5497,-2.5038,-2.3969,-2.2983,-2.2089,-2.221,-2.1749,-2.0626,-2.015,-1.9519,-1.8676,-1.6501,-1.498,0.0,0.0,0.0,0.0,0.0,0.0,0.0,0.0,0.0,0.0,0.0,-1.6487,0.0,-1.7573,0.0,-1.9235,-1.9747,-2.0165,-2.0451,-2.1211,-2.2073,-2.2962,-2.3838,-2.4478,-2.4726,-2.5615,-2.6295,-2.6524,-2.6857,-2.717,-2.7451,-2.6942,-2.67,-2.7053,-2.7745,-2.8556,-2.9183,-2.998,-3.0607,-3.0947,-3.1024,-3.1024,-3.1024,-3.1024,-3.1024,-3.1024,-3.1024,-3.0869,-3.0531,-3.027,-2.9826,-2.8974,-2.8577,-2.8203,-2.7706,-2.7503,-2.762,-2.7941,-2.8164,-2.8503,-3.4578,-3.4096,-3.4027,-3.3763,-3.3373,-3.3315,-3.3281,-3.3281,-3.3281,-3.2948,-3.234,-3.149,-3.0778,-3.0227,-3.0216,-3.0216,-3.0216,-3.0216,-3.0216,-3.0216,-3.0216,-3.0216,-3.0216,-3.0216,-3.0216,-3.0216,-3.0216,-3.0216,-3.0193,-2.9791,-2.9561,-2.9481,-2.8953,-2.8207,-2.719,-2.629,-2.5784,-2.5716,-2.6249,-2.668,-2.7105,-2.609,-2.5153,-2.4223,-2.3545,-2.2364,-2.0607,-2.1225,-2.0859,-1.9211,-1.9306,-1.9235,-1.8781,-1.6967,-1.5897,0.0,-1.4767,0.0,0.0,0.0,0.0,0.0,0.0,0.0,0.0,-1.7303,-1.7996,-1.8607,-2.0098,-2.1066,-2.1119,-2.1642,-2.2152,-2.2676,-2.3668,-2.4557,-2.5149,-2.5641,-2.6151,-2.6713,-2.6811,-2.6987,-2.7385,-2.7503,-2.749,-2.749,-2.7451,-2.7398,-2.7568,-2.8477,-2.9235,-2.9379,-3.0294,-3.0934,-3.0973,-3.1024,-3.1024,-3.1024,-3.1024,-3.1024,-3.1024,-3.1024,-3.1011,-3.0921,-3.0466,-2.9905,-2.9379,-2.8813,-2.8203,-2.7607,-2.7503,-2.7568,-2.7842,-2.8451,-2.9009,-3.5095,-3.4624,-3.4188,-3.3947,-3.3832,-3.3453,-3.3281,-3.3281,-3.3281,-3.2753,-3.188,-3.1697,-3.1088,-3.025,-3.0216,-3.0216,-3.0216,-3.0216,-3.0216,-3.0216,-3.0216,-3.0216,-3.0216,-3.0216,-3.0216,-3.0216,-3.0216,-3.0216,-3.0216,-3.0124,-2.9883,-2.9493,-2.8964,-2.8195,-2.7213,0.0,0.0,0.0,-2.6209,-2.6547,-2.6565,-2.5589,-2.4797,-2.4189,-2.2869,0.0,-2.1118,-2.0805,-2.0481,-2.0074,-2.0095,0.0,0.0,0.0,0.0,0.0,0.0,0.0,0.0,0.0,0.0,0.0,-1.9625,-1.9038,-1.7965,-1.9564,-2.0936,-2.1538,-2.2296,-2.2936,-2.342,-2.3981,-2.439,-2.4521,-2.5092,-2.5733,-2.6313,-2.6484,-2.6739,-2.7268,-2.7333,-2.7359,-2.7464,-2.7503,-2.7503,-2.7503,-2.7503,-2.7503,-2.7503,-2.8529,-2.9431,-2.9915,-3.0581,-3.1011,-3.1024,-3.1024,-3.1024,-3.1024,-3.1024,-3.0973,-3.0998,-3.1024,-3.0973,-3.0947,-3.0516,-2.9918,-2.9392,-2.8826,-2.8203,-2.7641,-2.7503,-2.7777,-2.8726,-2.8712,-2.866,-3.5611,0.0,-3.4601,-3.4245,0.0,-3.3488,-3.3281,-3.3281,-3.3281,-3.2845,-3.2099,-3.1869,-3.1329,-3.0595,-3.0331,-3.0216,-3.0216,-3.0216,-3.0216,-3.0216,-3.0216,-3.0216,-3.0216,-3.0216,-3.0216,-3.0216,-3.0216,-3.0216,-3.0216,-3.0216,-3.0089,-2.9848,-2.9584,-2.9079,-2.8344,-2.7587,-2.6881,-2.6094,-2.6375,-2.6776,-2.7263,-2.6278,-2.5338,-2.467,0.0,0.0,0.0,0.0,0.0,0.0,0.0,0.0,0.0,0.0,0.0,-2.0193,-2.0466,-2.0623,-2.0636,-2.0897,-2.1433,-2.2296,-2.265,-2.2192,-2.0702,-2.223,-2.3369,-2.3644,-2.4164,-2.4605,-2.4905,-2.5471,-2.5842,-2.5869,-2.6321,-2.6746,-2.704,-2.7092,-2.721,-2.7425,-2.7503,-2.7503,-2.7503,-2.7503,-2.7503,-2.7503,-2.7503,-2.7516,-2.7594,-2.8543,-2.9549,-3.0398,-3.0764,-3.1011,-3.1024,-3.1024,-3.1024,-3.1024,-3.1024,-3.0869,-3.0607,-3.079,-3.0908,-3.0634,-3.027,-2.9918,-2.9379,-2.8826,-2.8203,-2.7659,-2.7503,-2.7798,-2.8634,-2.8616,-2.8486,-3.6025,-3.5611,-3.5129,-3.4624,-3.4108,-3.3614,-3.3361,-3.3281,0.0,0.0,0.0,-3.202,-3.149,-3.0985,-3.0457,-3.0216,-3.0216,-3.0216,-3.0216,-3.0216,-3.0216,-3.0216,-3.0216,-3.0216,-3.0216,-3.0216,-3.0216,-3.0216,-3.0216,-3.0216,-3.0216,-3.0216,-3.0216,-2.9975,-2.9458,-2.8494,-2.7564,-2.6812,-2.6605,-2.6948,-2.7853,-2.6974,-2.613,-2.5242,-2.4801,-2.385,-2.2345,-2.2566,-2.2327,-2.1494,-2.1716,-2.1535,-2.0886,-2.164,-2.2113,-2.2165,-2.3106,-2.3639,-2.3652,-2.4109,-2.4435,-2.4527,-2.5092,-2.4922,-2.3772,-2.4678,-2.5293,-2.5306,-2.5798,-2.6093,-2.6093,-2.653,-2.6831,-2.6831,-2.7216,-2.749,-2.749,-2.7503,-2.7477,-2.7503,-2.7607,-2.7607,-2.7516,-2.7607,-2.768,-2.7659,-2.7699,-2.7764,-2.7999,-2.8778,-2.9715,-3.0699,-3.096,-3.1024,-3.1024,-3.1024,-3.1024,-3.1024,-3.1024,-3.0803,-3.049,-3.0673,-3.0764,-3.0427,-3.0192,-2.9918,-2.951,-2.9022,-2.836,-2.7785,-2.7646,-2.7777,-2.8229,-2.8328,-2.8294,-3.6286,-3.6117,-3.5623,-3.5141,-3.4647,-3.4119,-3.3671,-3.3292,-3.3281,-3.2982,-3.2454,-3.202,-3.149,-3.0996,-3.0445,-3.0216,-3.0216,-3.0216,-3.0216,0.0,-3.0216,-3.0216,-3.0216,-3.0216,-3.0216,-3.0216,-3.0216,-3.0216,-3.0216,-3.0216,-3.0216,-3.0216,-3.0216,-2.9975,-2.9458,-2.8494,-2.7908,-2.7748,-2.695,-2.6576,-2.6753,-2.662,-2.6346,-2.5815,-2.5826,-2.5081,-2.3448,-2.3479,-2.3176,-2.248,-2.2913,-2.3302,-2.354,-2.4122,-2.4508,-2.4547,-2.5092,-2.5427,-2.5427,-2.5519,-2.5798,-2.6313,-2.6844,-2.6654,-2.5571,-2.6059,-2.6457,-2.6484,-2.6922,-2.7255,-2.7255,-2.732,-2.7372,-2.7419,-2.7451,-2.7503,-2.7555,-2.7568,-2.7581,-2.7594,-2.7968,-2.8072,-2.7712,-2.7994,-2.8268,-2.8268,-2.8268,-2.8582,-2.9291,-2.947,-2.9784,-3.0686,-3.1024,-3.1024,-3.1024,-3.1024,-3.1024,-3.1024,-3.1024,-3.0908,-3.0673,-3.0843,-3.0895,-3.083,-3.0401,-3.0113,-2.9944,-2.9549,-2.8935,-2.836,-2.8224,-2.8289,-2.832,-2.802,-2.8007,-3.6266,-3.6263,-3.5726,-3.5393,-3.5129,-3.4349,-3.3729,-3.3304,-3.3281,-3.3166,-3.2879,-3.2386,-3.188,-3.1398,-3.0882,-3.0491,-3.0216,-3.0216,-3.0216,-3.0216,-3.0216,-3.0216,-3.0216,-3.0216,-3.0216,-3.0216,-3.0216,-3.0216,-3.0216,-3.0216,-3.0216,-3.0216,-3.0216,-2.9975,-2.9481,-2.8746,-2.8241,-2.7977,-2.7254,-2.7036,-2.7413,-2.7455,-2.7373,-2.7197,-2.7275,-2.6964,-2.6243,-2.5649,-2.5302,-2.5262,-2.4921,-2.4827,-2.5023,-2.5576,-2.5934,-2.5947,-2.6425,-2.672,-2.672,-2.672,-2.6857,-2.7131,-2.7667,-2.7785,-2.7249,-2.7157,-2.7131,-2.7144,-2.7359,-2.7503,-2.7516,-2.7798,-2.7981,-2.7981,-2.8268,-2.8477,-2.8477,-2.8464,-2.8477,-2.849,-2.8712,-2.8765,-2.8503,-2.8699,-2.8904,-2.8904,-2.8869,-2.9222,-2.9983,-2.9928,-3.0032,-3.0841,-3.1024,-3.1024,-3.1024,-3.1024,-3.1024,-3.1024,-3.1024,-3.0725,-3.032,-3.0477,-3.0699,-3.0291,-3.0294,-3.0438,-3.0205,-2.9905,-2.9379,-2.8616,-2.842,-2.8328,-2.8007,-2.7915,-2.8203,-3.6266,-3.6231,-3.5853,-3.5623,-3.5428,-3.4429,-3.3786,-3.3453,-3.3338,-3.3281,-3.3212,-3.2718,-3.2282,-3.194,-3.1295,-3.079,-3.0411,-3.0273,-3.0216,-3.0216,-3.0216,-3.0216,-3.0216,-3.0216,-3.0216,-3.0216,-3.0216,-3.0216,-3.0216,-3.0216,-3.0216,-3.0216,-3.0216,-3.0032,-2.9653,-2.9148,-2.8689,-2.8353,-2.7815,-2.7784,-2.8179,-2.8327,-2.8467,-2.8695,-2.8836,-2.8825,-2.8602,-2.7882,-2.7533,-2.7652,-2.698,-2.6511,-2.6393,-2.6817,-2.7033,-2.6968,-2.7275,-2.7555,-2.7673,-2.7686,-2.7751,-2.7894,-2.8333,-2.8616,-2.8556,-2.819,-2.7928,-2.7894,-2.7934,-2.7921,-2.802,-2.832,-2.8616,-2.8643,-2.9022,-2.9196,-2.9261,-2.931,-2.931,-2.931,-2.9379,-2.9431,-2.9327,-2.9392,-2.947,-2.947,-2.9562,-2.9862,-3.0228,-3.032,-3.0529,-3.0817,-3.1024,-3.1024,-3.1024,-3.1024,-3.1024,-3.1024,-3.1024,-3.066,-3.0163,-3.0516,-3.0647,-3.0121,-3.0411,-3.0725,-3.0424,-3.0333,-2.9862,-2.8983,-2.8695,-2.8433,-2.7745,-2.785,-2.8137,-3.6266,-3.6266,-3.6197,-3.5933,-3.5428,-3.4452,-3.3981,-3.3866,-3.3465,-3.3281,-3.3235,-3.2718,-3.2466,-3.2294,-3.1456,-3.1008,-3.0882,-3.0434,-3.0227,-3.0216,-3.0216,-3.0216,-3.0216,-3.0216,-3.0216,-3.0216,-3.0216,-3.0216,-3.0216,-3.0216,-3.0216,-3.0216,-3.0216,-3.0204,-3.0089,-2.9653,-2.9389,-2.9332,-2.896,-2.859,-2.8243,-2.8752,-2.9303,-2.9807,-3.0417,-3.0248,-2.9298,-2.9563,-2.9303,-2.8467,-2.8714,-2.8686,-2.8237,-2.8224,-2.7994,-2.751,-2.749,-2.7712,-2.8242,-2.8307,-2.8529,-2.9052,-2.9179,-2.9231,-2.9231,-2.9157,-2.9166,-2.9104,-2.9104,-2.9026,-2.9118,-2.9157,-2.9196,-2.9231,-2.9314,-2.931,-2.9388,-2.931,-2.931,-2.931,-2.9797,-2.9876,-2.9549,-2.9771,-3.0009,-3.0022,-3.0372,-3.0697,-3.0777,-3.0817,-3.083,-3.0985,-3.1024,-3.1024,-3.1024,-3.1024,-3.1024,-3.1024,-3.1024,-3.0817,-3.0699,-3.0725,-3.0906,-3.0516,-3.0777,-3.0895,-3.0908,-3.0869,-3.0438,-2.9428,-2.9022,-2.8817,-2.7842,-2.7633,-2.7745,-3.6266,-3.6266,-3.6266,-3.5979,-3.5451,-3.4762,-3.4291,-3.3958,-3.3488,-3.3281,-3.3258,-3.3101,-3.2776,-3.2454,-3.2053,-3.1582,-3.1019,-3.0778,-3.0514,-3.0239,-3.0216,-3.0216,-3.0216,-3.0216,-3.0216,-3.0216,-3.0216,-3.0216,-3.0216,-3.0216,-3.0216,-3.0216,-3.0216,-3.0216,-3.0181,-2.9745,-2.9531,-2.9585,-2.9142,-2.8979,-2.9258,-2.9484,-2.9755,-3.0037,-3.0672,-3.0807,-3.036,-3.0173,-2.9874,-2.9432,-2.935,-2.9205,-2.8935,-2.8908,-2.8804,-2.8582,-2.8556,-2.866,-2.8895,-2.8943,-2.9048,-2.931,-2.9588,-2.9771,-2.981,-3.0085,-3.0294,-3.0215,-2.9715,-2.931,-2.9349,-2.9588,-2.9797,-2.9823,-3.0072,-3.0317,-3.033,-3.0317,-3.0294,-3.0344,-3.0477,-3.0555,-3.0372,-3.049,-3.0634,-3.066,-3.0869,-3.1011,-3.1024,-3.1024,-3.1024,-3.1024,-3.1024,-3.1024,-3.1024,-3.1024,-3.1024,-3.1024,-3.1024,-3.0934,-3.062,-3.083,-3.0895,-3.0581,-3.0803,-3.1011,-3.1011,-3.0634,-3.0215,-2.9431,-2.893,-2.8569,-2.8098,-2.8033,-2.7928,-3.6266,-3.6266,-3.6266,-3.6071,-3.5692,-3.521,-3.4705,-3.4188,-3.3694,-3.3407,-3.3292,-3.3281,-3.3063,-3.2718,-3.2558,-3.2018,-3.1272,-3.1077,-3.0721,-3.0262,-3.0216,-3.0216,-3.0216,-3.0216,-3.0216,-3.0216,-3.0216,-3.0216,-3.0216,-3.0216,-3.0216,-3.0216,-3.0216,-3.0216,-3.0181,-3.0027,-3.0033,-3.0122,-2.9791,-2.993,-3.0375,-3.0317,-3.0266,-3.0317,-3.0748,-3.1024,-3.0973,-3.0581,-3.0335,-3.0309,-2.9967,-2.9702,-2.9523,-2.951,-2.9444,-2.9336,-2.931,-2.9353,-2.9497,-2.951,-2.9575,-2.9781,-3.0113,-3.0372,-3.0424,-3.0738,-3.0998,-3.0895,-3.0228,-2.9784,-2.9797,-3.0124,-3.0309,-3.0361,-3.0764,-3.0986,-3.0998,-3.1024,-3.0985,-3.1024,-3.0908,-3.1024,-3.1011,-3.0998,-3.0947,-3.096,-3.0973,-3.1024,-3.1024,-3.1024,-3.1024,-3.1024,-3.1024,-3.1024,-3.1024,-3.1024,-3.1024,-3.1024,-3.1024,-3.0856,-3.0401,-3.0803,-3.096,-3.0764,-3.0882,-3.0817,-3.066,-3.0257,-2.9813,-2.9183,-2.8621,-2.8229,-2.8007,-2.8111,-2.7954,-3.6266,-3.6266,-3.6266,-3.6243,-3.624,-3.568,-3.5198,-3.4618,-3.4165,-3.3706,-3.3254,-3.3281,-3.3269,-3.3189,-3.2681,-3.2213,-3.1767,-3.126,-3.0778,-3.0296,-3.0227,-3.0216,-3.0216,-3.0216,-3.017,-3.0125,-3.0125,-3.017,-3.0216,-3.0216,-3.0216,-3.0216,-3.0216,-3.0216,-3.025,-3.0756,-3.1202,-3.1105,-3.1267,-3.1539,-3.1549,-3.119,-3.095,-3.095,-3.0986,-3.1024,-3.0986,-3.096,-3.0934,-3.0934,-3.0856,-3.062,-3.014,-3.0061,-2.9876,-2.9431,-2.9327,-2.9562,-2.9983,-3.0061,-3.0294,-3.0751,-3.083,-3.0934,-3.0869,-3.0934,-3.1024,-3.1011,-3.0869,-3.0828,-3.0828,-3.0777,-3.0869,-3.0882,-3.0934,-3.1024,-3.1024,-3.1024,-3.1024,-3.1024,-3.1024,-3.1024,-3.1024,-3.1024,-3.1024,-3.1024,-3.1024,-3.1024,-3.1024,-3.1024,-3.1024,-3.1024,-3.1024,-3.1024,-3.1024,-3.1024,-3.1024,-3.1024,-3.1011,-3.0998,-3.1011,-3.0973,-3.0947,-3.0921,-3.096,-3.0777,-3.0359,-2.9892,-2.9497,-2.8908,-2.8255,-2.7876,-2.7994,-2.7693,-2.7555,-3.6266,-3.6266,-3.6266,-3.6266,-3.6208,-3.5726,-3.5032,-3.4279,-3.3729,-3.3005,-3.2347,-3.2594,-3.2734,-3.2723,-3.2542,-3.2389,-3.2202,-3.1708,-3.1215,-3.0721,-3.0376,-3.0034,-2.9749,-2.976,-2.976,-2.976,-2.9772,-2.9897,-3.017,-3.0216,-3.0216,-3.0216,-3.0216,-3.0216,-3.0261,-3.0442,-3.0829,-3.1361,-3.1501,-3.1804,-3.2247,-3.1811,-3.1497,-3.1471,-3.1169,-3.1024,-3.1024,-3.1024,-3.1024,-3.1024,-3.1024,-3.0895,-3.0712,-3.0673,-3.0594,-3.0411,-3.0359,-3.0464,-3.0647,-3.0686,-3.0751,-3.0947,-3.1024,-3.1024,-3.1024,-3.1024,-3.1024,-3.1024,-3.1024,-3.1024,-3.1024,-3.1024,-3.1024,-3.1024,-3.1024,-3.1024,-3.1024,-3.1024,-3.1024,-3.1024,-3.1024,-3.1024,-3.1024,-3.1024,-3.1024,-3.1024,-3.1024,-3.1024,-3.1024,-3.1024,-3.1024,-3.1024,-3.1024,-3.1024,-3.1024,-3.1024,-3.1024,-3.1024,-3.1024,-3.1011,-3.1024,-3.1024,-3.096,-3.096,-3.1024,-3.083,-3.0398,-2.9614,-2.917,-2.8621,-2.7968,-2.7863,-2.8072,-2.7837,-2.7706,-3.5708,-3.5708,-3.5708,-3.5719,-3.5674,-3.5346,-3.473,-3.3933,-3.3574,-3.2967,-3.2279,-3.2319,-3.242,-3.2359,-3.2218,-3.2152,-3.2131,-3.1581,-3.1004,-3.046,-2.994,-2.9566,-2.929,-2.9244,-2.9347,-2.9485,-2.9669,-2.9897,-3.017,-3.0216,-3.0216,-3.0216,-3.0216,-3.0216,-3.0216,-3.0397,-3.087,-3.1361,-3.1479,-3.1847,-3.248,-3.2056,-3.1772,-3.1746,-3.1419,-3.1169,-3.1037,-3.1024,-3.1024,-3.1024,-3.1024,-3.1024,-3.1024,-3.1024,-3.1024,-3.1024,-3.1011,-3.1024,-3.1024,-3.1024,-3.0986,-3.1024,-3.1024,-3.1024,-3.1024,-3.1024,-3.1024,-3.1024,-3.1024,-3.1024,-3.1024,-3.1024,-3.1024,-3.1024,-3.1024,-3.1024,-3.1024,-3.1024,-3.1024,-3.1024,-3.1024,-3.1024,-3.1024,-3.1024,-3.1024,-3.1024,-3.1024,-3.1024,-3.1024,-3.1024,-3.1024,-3.1024,-3.1024,-3.1024,-3.1024,-3.1024,-3.1024,-3.1024,-3.1024,-3.1024,-3.1024,-3.1024,-3.1024,-3.1024,-3.0908,-3.0764,-3.0268,-2.9444,-2.8817,-2.8294,-2.7968,-2.7751,-2.7928,-2.802,-2.7811,-3.4536,-3.458,-3.4525,-3.4636,-3.4636,-3.4592,-3.4306,-3.3799,-3.3741,-3.3339,-3.2623,-3.2482,-3.2207,-3.2207,-3.1772,-3.1597,-3.1462,-3.0624,-3.0018,-2.9606,-2.9102,-2.8814,-2.8735,-2.8724,-2.8956,-2.9439,-2.9943,-3.017,-3.0216,-3.0216,-3.0216,-3.0216,-3.0216,-3.0216,-3.0216,-3.0758,-3.1193,-3.1328,-3.1416,-3.1831,-3.2348,-3.2003,-3.1802,-3.1824,-3.1733,-3.1472,-3.1052,-3.1037,-3.1024,-3.1024,-3.1024,-3.1024,-3.1024,-3.1024,-3.1024,-3.1024,-3.1024,-3.1024,-3.1024,-3.1024,-3.1024,-3.1024,-3.1024,-3.1024,-3.1024,-3.1024,-3.1024,-3.1024,-3.0986,-3.0999,-3.1039,-3.1013,-3.1024,-3.1024,-3.1024,-3.1024,-3.1024,-3.1024,-3.1024,-3.1024,-3.1024,-3.1024,-3.1024,-3.1024,-3.1024,-3.1024,-3.1024,-3.1024,-3.1024,-3.1024,-3.1024,-3.1024,-3.1024,-3.1024,-3.1024,-3.1024,-3.1024,-3.1024,-3.1024,-3.1024,-3.1024,-3.1024,-3.1024,-3.1024,-3.1024,-3.0817,-3.015,-2.934,-2.8621,-2.8124,-2.7842,-2.7712,-2.7699,-2.7785,-2.7673,-3.4469,-3.4469,-3.4469,-3.4469,-3.4469,-3.4469,-3.3824,-3.2782,-3.2749,-3.2103,-3.1234,-3.1208,-3.13,-3.1289,-3.1094,-3.1054,-3.0916,-2.9759,-2.9377,-2.9758,-2.9397,-2.8784,-2.8312,-2.8222,-2.8502,-2.9013,-2.9795,-3.0216,-3.017,-3.017,-3.0216,-3.0216,-3.0216,-3.0216,-3.0216,-3.0442,-3.0769,-3.125,-3.1316,-3.169,-3.232,-3.2298,-3.2263,-3.2209,-3.1572,-3.1254,-3.1536,-3.1196,-3.0999,-3.0986,-3.1024,-3.1024,-3.1024,-3.1024,-3.1024,-3.1024,-3.1024,-3.1024,-3.1024,-3.1024,-3.1024,-3.1024,-3.1024,-3.1024,-3.1024,-3.0999,-3.1013,-3.0999,-3.1024,-3.1104,-3.1418,-3.1209,-3.1065,-3.1024,-3.1024,-3.1024,-3.1024,-3.1024,-3.1024,-3.1024,-3.1024,-3.1024,-3.1024,-3.1024,-3.1024,-3.1024,-3.1024,-3.1024,-3.1024,-3.1024,-3.1024,-3.1024,-3.1024,-3.1024,-3.1024,-3.1024,-3.1024,-3.1024,-3.1024,-3.1024,-3.1024,-3.1024,-3.1024,-3.0985,-3.0998,-3.0647,-2.9967,-2.933,-2.8712,-2.8307,-2.8216,-2.7968,-2.7607,-2.7607,-2.7777,-3.3818,-3.3818,-3.3829,-3.3818,-3.3818,-3.3829,-3.3228,-3.2274,-3.22,-3.1572,-3.0788,-3.0744,-3.0785,-3.0733,-3.0599,-3.0495,-3.0348,-2.934,-2.9124,-2.9426,-2.8903,-2.8264,-2.782,-2.794,-2.8128,-2.8538,-2.9279,-2.9658,-2.9658,-2.9658,-2.9749,-2.9897,-2.9943,-3.0034,-3.017,-3.0216,-3.0487,-3.0859,-3.0892,-3.1238,-3.1784,-3.1994,-3.2065,-3.2043,-3.1716,-3.1465,-3.1474,-3.1317,-3.1196,-3.1039,-3.1024,-3.1024,-3.1024,-3.1024,-3.1024,-3.1024,-3.1024,-3.1024,-3.1024,-3.1024,-3.1024,-3.1024,-3.1024,-3.1024,-3.1026,-3.1117,-3.13,-3.13,-3.1535,-3.1757,-3.2032,-3.1875,-3.164,-3.1627,-3.1259,-3.1063,-3.1024,-3.1024,-3.1024,-3.1024,-3.1024,-3.1024,-3.1024,-3.1024,-3.1024,-3.1024,-3.1024,-3.1024,-3.1024,-3.1024,-3.1024,-3.1024,-3.1024,-3.1024,-3.1024,-3.1024,-3.1024,-3.1024,-3.1024,-3.1024,-3.1024,-3.1024,-3.1024,-3.0856,-3.0817,-3.0542,-2.9892,-2.9666,-2.9183,-2.8922,-2.8582,-2.8412,-2.8229,-2.8307,-2.8399,-3.2727,-3.2669,-3.2727,-3.2784,-3.2773,-3.2721,-3.2483,-3.2176,-3.2038,-3.1731,-3.1286,-3.0836,-3.0681,-3.064,-3.0245,-3.0099,-2.9891,-2.9435,-2.8938,-2.8551,-2.7925,-2.7425,-2.7452,-2.7809,-2.8034,-2.8128,-2.8595,-2.8771,-2.8863,-2.8863,-2.8956,-2.9531,-2.9623,-2.976,-3.0125,-3.0216,-3.0216,-3.0306,-3.0261,-3.0623,-3.1217,-3.1371,-3.142,-3.1565,-3.1972,-3.1896,-3.1387,-3.1604,-3.1601,-3.1091,-3.1024,-3.1024,-3.1024,-3.1024,-3.1024,-3.1024,-3.1024,-3.1024,-3.1024,-3.1024,-3.1024,-3.1024,-3.1078,-3.1039,-3.1156,-3.1549,-3.1836,-3.1876,-3.2267,-3.262,-3.2685,-3.2581,-3.2542,-3.2463,-3.1653,-3.1156,-3.1037,-3.1024,-3.1024,-3.1024,-3.1024,-3.1024,-3.1024,-3.1024,-3.1024,-3.1024,-3.1024,-3.1024,-3.1024,-3.1024,-3.1024,-3.1024,-3.1024,-3.1024,-3.1024,-3.1024,-3.1024,-3.1024,-3.1024,-3.1024,-3.1024,-3.1024,-3.1024,-3.0856,-3.0725,-3.0385,-3.0189,-3.0019,-2.964,-2.9183,-2.8974,-2.8943,-2.8904,-2.8869,-2.8856,-3.2669,-3.2669,-3.2669,-3.2669,-3.2618,-3.2328,-3.1965,-3.1569,-3.1258,-3.0926,-3.0475,-3.0308,-3.0245,-3.0203,-3.0099,-2.9994,-2.9818,-2.9166,-2.8773,-2.8493,-2.7665,-2.734,-2.7404,-2.7762,-2.7987,-2.8034,-2.8409,-2.8678,-2.8678,-2.8678,-2.8967,-2.9485,-2.9531,-2.976,-3.0125,-3.0216,-3.0216,-3.0216,-3.0216,-3.0261,-3.0532,-3.1038,-3.1291,-3.1356,-3.1718,-3.1951,-3.2,-3.2302,-3.198,-3.1116,-3.1024,-3.1024,-3.1089,-3.1039,-3.1039,-3.1039,-3.1037,-3.1024,-3.1024,-3.1013,-3.0999,-3.1026,-3.1405,-3.1562,-3.1602,-3.2136,-3.2424,-3.2489,-3.2646,-3.2908,-3.3169,-3.296,-3.2594,-3.2084,-3.1744,-3.1367,-3.1078,-3.1024,-3.1024,-3.1024,-3.1024,-3.1024,-3.1024,-3.1024,-3.1024,-3.1024,-3.1024,-3.1024,-3.1024,-3.1024,-3.1024,-3.1024,-3.1024,-3.1024,-3.1024,-3.1024,-3.1024,-3.1024,-3.1024,-3.1024,-3.1024,-3.1024,-3.1024,-3.0947,-3.0895,-3.0647,-3.0699,-3.0686,-3.0124,-2.9523,-2.964,-2.968,-2.9314,-2.9196,-2.9222,-3.2669,-3.2669,-3.2669,-3.2613,-3.237,-3.2091,-3.1681,-3.1122,-3.0812,-3.0419,-3.0077,-2.9994,-2.9994,-2.9994,-2.9994,-2.9994,-2.987,-2.9032,-2.8638,-2.8462,-2.7676,-2.7351,-2.7357,-2.7631,-2.7726,-2.7715,-2.7998,-2.8175,-2.8362,-2.8398,-2.8828,-2.9393,-2.9531,-2.976,-3.017,-3.0216,-3.0216,-3.0216,-3.0216,-3.0216,-3.0261,-3.0623,-3.1026,-3.1291,-3.1661,-3.2212,-3.2813,-3.2786,-3.2359,-3.1849,-3.1718,-3.1705,-3.1679,-3.1457,-3.1352,-3.1326,-3.1143,-3.1024,-3.1039,-3.1196,-3.1339,-3.1444,-3.1875,-3.215,-3.2306,-3.2725,-3.3064,-3.3077,-3.326,-3.3561,-3.3731,-3.3404,-3.2712,-3.2006,-3.1797,-3.1562,-3.1052,-3.1024,-3.1024,-3.1024,-3.1024,-3.1024,-3.1024,-3.1024,-3.1024,-3.1024,-3.1024,-3.1024,-3.1024,-3.1024,-3.1024,-3.1024,-3.1024,-3.1024,-3.1024,-3.1024,-3.1024,-3.1024,-3.1024,-3.1024,-3.1024,-3.1024,-3.1024,-3.1024,-3.1024,-3.1024,-3.1024,-3.0921,-3.0542,-3.0215,-3.0361,-3.0231,-2.9876,-2.9732,-2.9732,-3.2669,-3.2669,-3.2675,-3.2359,-3.2019,-3.1874,-3.1402,-3.0791,-3.0605,-3.0356,-3.0056,-2.9994,-2.9994,-2.9994,-2.9994,-2.9994,-2.9953,-2.9135,-2.868,-2.8297,-2.7696,-2.732,-2.732,-2.7357,-2.7404,-2.7394,-2.7347,-2.7668,-2.7987,-2.8034,-2.8502,-2.9152,-2.9382,-2.9669,-2.9988,-3.017,-3.0216,-3.0216,-3.0216,-3.0216,-3.0216,-3.0306,-3.0578,-3.1059,-3.1677,-3.24,-3.2922,-3.2924,-3.2615,-3.2749,-3.2737,-3.2581,-3.2542,-3.2136,-3.1928,-3.1784,-3.1483,-3.1182,-3.1235,-3.1653,-3.1823,-3.1954,-3.2463,-3.2777,-3.2894,-3.3326,-3.3666,-3.3666,-3.4123,-3.4241,-3.4201,-3.3822,-3.3012,-3.2124,-3.1863,-3.1445,-3.1143,-3.1024,-3.1024,-3.1024,-3.1024,-3.1024,-3.1024,-3.1024,-3.1024,-3.1024,-3.1024,-3.1024,-3.1024,-3.1024,-3.1024,-3.1024,-3.1024,-3.1024,-3.1024,-3.1024,-3.1024,-3.1024,-3.1024,-3.1024,-3.1024,-3.1024,-3.1024,-3.1024,-3.1024,-3.1024,-3.1024,-3.0856,-3.0686,-3.066,-3.0647,-3.0529,-3.0372,-3.0438,-3.0464,-3.2669,-3.2649,-3.2287,-3.207,-3.1874,-3.1288,-3.0874,-3.0646,-3.0294,-3.0118,-3.0015,-2.9994,-2.9994,-2.9994,-2.9994,-2.9994,-2.9932,-2.9332,-2.8804,-2.8017,-2.7589,-2.733,-2.732,-2.732,-2.732,-2.7404,-2.7678,-2.7904,-2.7987,-2.8034,-2.8269,-2.8817,-2.8956,-2.9152,-2.9623,-2.9988,-3.0216,-3.0216,-3.0216,-3.0216,-3.0216,-3.0216,-3.0306,-3.0623,-3.1238,-3.1896,-3.2395,-3.2461,-3.2667,-3.2995,-3.2977,-3.2829,-3.2777,-3.262,-3.2515,-3.2398,-3.1993,-3.1836,-3.2163,-3.2071,-3.2019,-3.2529,-3.3038,-3.3404,-3.343,-3.3875,-3.4175,-3.4228,-3.4332,-3.4384,-3.4254,-3.3456,-3.2829,-3.2333,-3.1692,-3.1169,-3.1026,-3.1024,-3.1024,-3.1024,-3.1024,-3.1024,-3.1024,-3.1024,-3.1024,-3.1024,-3.1024,-3.1024,-3.1024,-3.1024,-3.1024,-3.1024,-3.1024,-3.1024,-3.1024,-3.1024,-3.1024,-3.1024,-3.1024,-3.1024,-3.1024,-3.1024,-3.1024,-3.1024,-3.1024,-3.1024,-3.1024,-3.1011,-3.0843,-3.0856,-3.0856,-3.0777,-3.0764,-3.0947,-3.1011,-3.2545,-3.2328,-3.2081,-3.174,-3.136,-3.0884,-3.0563,-3.0346,-3.0108,-2.9994,-2.9994,-2.9994,-2.9994,-2.9994,-2.9994,-2.9994,-2.9829,-2.927,-2.8607,-2.7945,-2.7489,-2.733,-2.732,-2.732,-2.732,-2.7347,-2.7526,-2.7762,-2.7951,-2.8034,-2.8222,-2.8678,-2.8678,-2.9013,-2.9439,-2.976,-2.9977,-3.017,-3.0216,-3.0216,-3.0216,-3.0216,-3.0442,-3.0758,-3.1371,-3.1977,-3.2289,-3.2704,-3.3018,-3.3331,-3.3452,-3.3483,-3.3417,-3.326,-3.3117,-3.3025,-3.2581,-3.2372,-3.2542,-3.2712,-3.2816,-3.3091,-3.3639,-3.3875,-3.4005,-3.4267,-3.4371,-3.4397,-3.4371,-3.4306,-3.4018,-3.3287,-3.2698,-3.2189,-3.1535,-3.1026,-3.1024,-3.1024,-3.1024,-3.1024,-3.1024,-3.1024,-3.1024,-3.1024,-3.1024,-3.1024,-3.1024,-3.1024,-3.1024,-3.1024,-3.1024,-3.1024,-3.1024,-3.1024,-3.1024,-3.1024,-3.1024,-3.1024,-3.1024,-3.1024,-3.1024,-3.1024,-3.1024,-3.1024,-3.1024,-3.1024,-3.1024,-3.1024,-3.1024,-3.0985,-3.0934,-3.1011,-3.1024,-3.1024,-3.1024,-3.2339,-3.1967,-3.1843,-3.1381,-3.075,-3.0594,-3.0356,-3.0046,-2.9994,-2.9994,-2.9994,-2.9994,-2.9994,-2.9994,-2.9994,-2.9973,-2.9663,-2.9073,-2.839,-2.7924,-2.7469,-2.734,-2.732,-2.732,-2.732,-2.7299,-2.7489,-2.7678,-2.7904,-2.7987,-2.8175,-2.8538,-2.8724,-2.8921,-2.929,-2.9623,-2.9852,-3.017,-3.0216,-3.0216,-3.0216,-3.0216,-3.0487,-3.0925,-3.1359,-3.1789,-3.2052,-3.25,-3.3086,-3.3398,-3.3937,-3.4189,-3.4168,-3.4018,-3.3718,-3.3692,-3.3156,-3.2999,-3.313,-3.3326,-3.3522,-3.3692,-3.4097,-3.4345,-3.4371,-3.4358,-3.4384,-3.4397,-3.4371,-3.4254,-3.3757,-3.3273,-3.2725,-3.2176,-3.1601,-3.1169,-3.1091,-3.1052,-3.1024,-3.1024,-3.1024,-3.1024,-3.1024,-3.1024,-3.1024,-3.1024,-3.1024,-3.1024,-3.1024,-3.1024,-3.1024,-3.1024,-3.1024,-3.1024,-3.1024,-3.1024,-3.1024,-3.1024,-3.1024,-3.1024,-3.1024,-3.1024,-3.1024,-3.1024,-3.1024,-3.1024,-3.1024,-3.1024,-3.1024,-3.1024,-3.1024,-3.1024,-3.1024,-3.1024,-3.1024,-3.206,-3.1926,-3.1226,-3.0801,-3.0636,-3.0284,-3.0087,-3.0015,-2.9994,-2.9994,-2.9994,-2.9994,-2.9994,-2.9994,-2.9994,-2.9808,-2.9425,-2.8856,-2.8359,-2.7903,-2.7479,-2.732,-2.732,-2.732,-2.732,-2.7404,-2.7584,-2.7867,-2.7904,-2.7987,-2.7998,-2.8175,-2.8549,-2.8839,-2.9059,-2.9566,-2.9943,-3.008,-3.0125,-3.0125,-3.0216,-3.0216,-3.0261,-3.0532,-3.0779,-3.1104,-3.146,-3.1649,-3.2176,-3.3258,-3.3484,-3.3556,-3.3615,-3.3891,-3.4035,-3.4001,-3.3731,-3.3561,-3.3862,-3.3731,-3.3901,-3.4149,-3.4345,-3.4384,-3.4397,-3.4397,-3.4356,-3.4272,-3.4272,-3.4249,-3.4267,-3.3461,-3.3362,-3.2985,-3.2228,-3.1564,-3.1421,-3.1301,-3.0963,-3.0874,-3.0911,-3.1024,-3.1024,-3.1024,-3.1024,-3.1024,-3.1024,-3.1024,-3.1024,-3.1024,-3.1024,-3.1024,-3.1024,-3.1024,-3.1024,-3.1024,-3.1024,-3.1024,-3.1024,-3.1024,-3.1024,-3.1024,-3.1024,-3.1024,-3.1024,-3.1024,-3.1024,-3.1024,-3.1024,-3.1024,-3.1024,-3.1024,-3.1024,-3.1024,-3.1024,-3.1557,-3.1298,-3.0864,-3.0543,-3.0315,-3.0098,-2.9994,-2.9994,-2.9994,-2.9994,-2.9994,-2.9994,-2.9994,-2.9994,-2.9994,-2.9735,-2.9259,-2.8814,-2.8359,-2.7903,-2.7489,-2.732,-2.732,-2.732,-2.732,-2.7357,-2.7536,-2.7678,-2.7631,-2.762,-2.7678,-2.7762,-2.8139,-2.8373,-2.8456,-2.9002,-2.9566,-2.976,-2.9852,-2.9988,-3.017,-3.0216,-3.0216,-3.0261,-3.0578,-3.0937,-3.1205,-3.1725,-3.212,-3.2686,-3.2859,-3.2846,-3.2932,-3.3147,-3.3488,-3.3746,-3.3887,-3.4042,-3.4304,-3.4123,-3.4175,-3.4332,-3.4356,-3.4397,-3.4397,-3.4356,-3.4189,-3.3894,-3.3445,-3.3305,-3.3224,-3.2878,-3.2583,-3.2447,-3.2015,-3.1559,-3.1135,-3.1242,-3.1034,-3.0775,-3.0836,-3.0949,-3.1024,-3.1024,-3.1024,-3.1024,-3.1024,-3.1024,-3.1024,-3.1024,-3.1024,-3.1024,-3.1024,-3.1024,-3.1024,-3.1024,-3.1024,-3.1024,-3.1024,-3.1024,-3.1024,-3.1024,-3.1024,-3.1024,-3.1024,-3.1024,-3.1024,-3.1024,-3.1024,-3.1024,-3.1024,-3.1024,-3.1024,-3.1024,-3.1024,-3.1019,-3.0688,-3.0584,-3.0336,-3.0025,-2.9994,-2.9994,-2.9994,-2.9994,-2.9994,-2.9994,-2.9994,-2.9994,-2.9963,-2.9829,-2.9549,-2.9042,-2.8576,-2.8193,-2.7759,-2.7438,-2.732,-2.732,-2.732,-2.732,-2.7309,-2.7357,-2.732,-2.7357,-2.7357,-2.7309,-2.7499,-2.7809,-2.7987,-2.8128,-2.8585,-2.8967,-2.9336,-2.9531,-2.976,-3.008,-3.0216,-3.0216,-3.0216,-3.0758,-3.1071,-3.1306,-3.1681,-3.2052,-3.2271,-3.2345,-3.2271,-3.2152,-3.2227,-3.25,-3.3,-3.3586,-3.3924,-3.3911,-3.3856,-3.3691,-3.3742,-3.3924,-3.3924,-3.3911,-3.37,-3.367,-3.3215,-3.276,-3.2432,-3.2469,-3.2001,-3.1816,-3.1838,-3.1843,-3.163,-3.1135,-3.1005,-3.1138,-3.0994,-3.0901,-3.0911,-3.0986,-3.1024,-3.1024,-3.1024,-3.1024,-3.1024,-3.1024,-3.1024,-3.1024,-3.1024,-3.1024,-3.1024,-3.1024,-3.1024,-3.1024,-3.1024,-3.1024,-3.1024,-3.1024,-3.1024,-3.1024,-3.1024,-3.1024,-3.1024,-3.1024,-3.1024,-3.1024,-3.1024,-3.1024,-3.1024,-3.1024,-3.1024,-3.1024,-3.0739,-3.0646,-3.0243,-3.0046,-2.9994,-2.9994,-2.9994,-2.9994,-2.9994,-2.9994,-2.9994,-2.9994,-2.9994,-2.988,-2.9559,-2.8928,-2.8289,-2.8051,-2.7841,-2.7448,-2.7361,-2.732,-2.732,-2.732,-2.732,-2.732,-2.732,-2.732,-2.732,-2.732,-2.732,-2.7404,-2.7715,-2.7987,-2.794,-2.8445,-2.8967,-2.9393,-2.9531,-2.976,-3.008,-3.017,-3.0216,-3.0216,-3.0397,-3.0758,-3.1217,-3.1516,-3.1725,-3.2171,-3.2215,-3.1965,-3.1637,-3.2008,-3.1889,-3.1889,-3.2108,-3.2575,-3.2661,-3.2791,-3.2778,-3.2821,-3.2735,-3.2618,-3.2735,-3.2692,-3.2618,-3.25,-3.2271,-3.214,-3.204,-3.211,-3.2117,-3.2081,-3.1965,-3.18,-3.1458,-3.1198,-3.1306,-3.0943,-3.0811,-3.0911,-3.1024,-3.1024,-3.1024,-3.1024,-3.1024,-3.1024,-3.1024,-3.1024,-3.1024,-3.1024,-3.1024,-3.1024,-3.1024,-3.1024,-3.1024,-3.1024,-3.1024,-3.1024,-3.1024,-3.1024,-3.1024,-3.1024,-3.1024,-3.1024,-3.1024,-3.1024,-3.1024,-3.1024,-3.1024,-3.1024,-3.1024,-3.1024,-3.1024,-3.0294,-3.0284,-3.0077,-2.9994,-2.9994,-2.9994,-2.9994,-2.9994,-2.9994,-2.9994,-2.9994,-2.9994,-2.986,-2.9591,-2.9363,-2.8804,-2.8041,-2.7855,-2.7676,-2.7382,-2.732,-2.732,-2.732,-2.732,-2.732,-2.732,-2.732,-2.732,-2.732,-2.732,-2.732,-2.7357,-2.7715,-2.7809,-2.7762,-2.8362,-2.8781,-2.9163,-2.952,-2.9852,-2.9897,-3.0034,-3.008,-2.984,-3.0442,-3.0892,-3.1172,-3.1306,-3.1427,-3.1637,-3.1403,-3.1003,-3.0791,-3.0913,-3.0925,-3.0791,-3.0925,-3.1492,-3.2183,-3.2215,-3.2215,-3.2258,-3.2258,-3.2345,-3.2215,-3.1921,-3.1725,-3.1725,-3.1327,-3.1181,-3.1181,-3.1092,-3.1125,-3.1248,-3.1743,-3.1325,-3.1211,-3.1666,-3.1538,-3.1097,-3.0723,-3.0786,-3.0862,-3.0874,-3.0911,-3.1024,-3.1024,-3.1024,-3.1024,-3.1024,-3.1024,-3.1024,-3.1024,-3.1024,-3.1024,-3.1024,-3.1024,-3.1024,-3.1024,-3.1024,-3.1024,-3.1024,-3.1024,-3.1024,-3.1024,-3.1024,-3.1024,-3.1024,-3.1024,-3.1024,-3.1024,-3.1024,-3.1024,-3.1024,-3.1024,-2.9994,-2.9994,-2.9994,-2.9994,-2.9994,-2.9994,-2.9994,-2.9994,-2.9994,-2.9994,-2.9963,-2.986,-2.9559,-2.9166,-2.8938,-2.8421,-2.7769,-2.7759,-2.7572,-2.7403,-2.732,-2.732,-2.732,-2.732,-2.732,-2.732,-2.732,-2.732,-2.732,-2.732,-2.732,-2.732,-2.7584,-2.762,-2.7584,-2.7914,-2.8373,-2.8595,-2.9301,-2.9531,-2.9428,-2.9612,-2.9669,-2.9852,-3.0306,-3.0892,-3.0982,-3.0802,-3.0802,-3.0713,-3.0397,-3.0068,-2.9886,-3.0023,-3.0125,-3.008,-3.0159,-3.0611,-3.1258,-3.1613,-3.1789,-3.1789,-3.1789,-3.1569,-3.1569,-3.1282,-3.1038,-3.1026,-3.0668,-3.0352,-3.0216,-3.0261,-3.0385,-3.0685,-3.1017,-3.056,-3.035,-3.1085,-3.1248,-3.0646,-3.0379,-3.0496,-3.0585,-3.066,-3.0785,-3.0949,-3.1024,-3.1024,-3.1024,-3.1024,-3.1024,-3.1024,-3.1024,-3.1024,-3.1024,-3.1024,-3.1024,-3.1024,-3.1024,-3.1024,-3.1024,-3.1024,-3.1024,-3.1024,-3.1024,-3.1024,-3.1024,-3.1024,-3.1024,-3.1024,-3.1024,-3.1024,-3.1024,-3.1024,-3.1024,-2.9994,-2.9994,-2.9994,-2.9994,-2.9994,-2.9994,-2.9994,-2.9994,-2.9994,-2.9973,-2.987,-2.9559,-2.9145,-2.868,-2.8297,-2.7883,-2.7382,-2.7361,-2.7351,-2.734,-2.732,-2.732,-2.732,-2.732,-2.732,-2.732,-2.732,-2.732,-2.732,-2.732,-2.732,-2.7357,-2.7452,-2.7357,-2.7394,-2.7631,-2.7951,-2.8269,-2.8828,-2.8967,-2.8817,-2.891,-2.9059,-2.9393,-2.9577,-2.9806,-3.0216,-2.9932,-2.9749,-2.9749,-2.9612,-2.9474,-2.9336,-2.9531,-2.9669,-2.9806,-2.9806,-3.0159,-3.0566,-3.0701,-3.0476,-3.0397,-3.0476,-3.0656,-3.0701,-3.0476,-3.0306,-3.0397,-3.0261,-3.0261,-3.0216,-3.0216,-3.0216,-3.0395,-3.0667,-3.0656,-3.057,-3.0913,-3.0951,-3.0183,-3.0179,-3.0671,-3.0932,-3.1151,-3.0915,-3.1027,-3.1024,-3.1024,-3.1024,-3.1024,-3.1024,-3.1024,-3.1024,-3.1024,-3.1024,-3.1024,-3.1024,-3.1024,-3.1024,-3.1024,-3.1024,-3.1024,-3.1024,-3.1024,-3.1024,-3.1024,-3.1024,-3.1024,-3.1024,-3.1024,-3.1024,-3.1024,-3.1024,-3.1024,-3.1024,-2.9994,-2.9994,-2.9994,-2.9994,-2.9994,-2.9994,-2.9994,-2.9994,-2.9994,-2.9818,-2.957,-2.9352,-2.8887,-2.8307,-2.8028,-2.7676,-2.7351,-2.732,-2.732,-2.732,-2.732,-2.732,-2.732,-2.732,-2.732,-2.732,-2.732,-2.732,-2.732,-2.732,-2.732,-2.732,-2.732,-2.732,-2.7357,-2.7536,-2.7904,-2.8269,-2.8549,-2.8595,-2.8362,-2.8585,-2.8678,-2.8549,-2.8978,-2.9117,-2.9233,-2.9095,-2.9002,-2.9002,-2.9002,-2.9013,-2.9059,-2.9336,-2.9566,-2.9749,-2.9795,-2.9943,-3.008,-3.017,-3.0216,-3.0216,-3.0216,-3.0216,-3.0216,-3.0216,-3.0216,-3.0216,-3.0216,-3.0216,-3.0216,-3.0216,-3.025,-3.0316,-3.0378,-3.0543,-3.0684,-3.0874,-3.1027,-3.0474,-3.087,-3.1436,-3.1639,-3.1824,-3.1434,-3.1106,-3.1052,-3.1024,-3.1024,-3.1024,-3.1024,-3.1024,-3.1024,-3.1024,-3.1024,-3.1024,-3.1024,-3.1024,-3.1024,-3.1024,-3.1024,-3.1024,-3.1024,-3.1024,-3.1024,-3.1024,-3.1024,-3.1024,-3.1024,-3.1024,-3.1024,-3.1024,-3.1024,-3.1024,-3.1024,-2.9994,-2.9994,-2.9994,-2.9994,-2.9994,-2.9994,-2.9994,-2.9994,-2.9994,-2.9735,-2.929,-2.9032,-2.8566,-2.8028,-2.7738,-2.7583,-2.7361,-2.732,-2.732,-2.732,-2.732,-2.732,-2.732,-2.732,-2.732,-2.732,-2.732,-2.732,-2.732,-2.732,-2.732,-2.732,-2.732,-2.732,-2.7357,-2.7631,-2.7998,-2.8222,-2.8269,-2.8175,-2.7857,-2.8034,-2.8315,-2.8045,-2.842,-2.8653,-2.8678,-2.8678,-2.8631,-2.8678,-2.8781,-2.8828,-2.9013,-2.9198,-2.9439,-2.9658,-2.9795,-2.984,-2.9988,-3.0125,-3.017,-3.0216,-3.0216,-3.0216,-3.0216,-3.0216,-3.0216,-3.0216,-3.0216,-3.0216,-3.0216,-3.0216,-3.0216,-3.026,-3.0292,-3.0363,-3.0369,-3.0537,-3.0821,-3.0886,-3.1241,-3.1322,-3.1624,-3.1733,-3.1798,-3.1354,-3.1104,-3.1026,-3.1024,-3.1024,-3.1024,-3.1024,-3.1024,-3.1024,-3.1024,-3.1024,-3.1024,-3.1024,-3.1024,-3.1024,-3.1024,-3.1024,-3.1024,-3.1024,-3.1024,-3.1024,-3.1024,-3.1024,-3.1024,-3.1024,-3.1024,-3.1024,-3.1024,-3.1024,-3.1024,-2.9953,-2.9994,-2.9953,-2.9942,-2.9911,-2.9984,-2.9984,-2.9911,-2.988,-2.9611,-2.9083,-2.8411,-2.8017,-2.78,-2.751,-2.7392,-2.734,-2.732,-2.732,-2.732,-2.732,-2.732,-2.732,-2.732,-2.732,-2.732,-2.732,-2.732,-2.732,-2.732,-2.732,-2.732,-2.732,-2.732,-2.732,-2.732,-2.7357,-2.7357,-2.7452,-2.7452,-2.7452,-2.7489,-2.7668,-2.7857,-2.7951,-2.8175,-2.8258,-2.8128,-2.8175,-2.8351,-2.8466,-2.8466,-2.8326,-2.8653,-2.8828,-2.891,-2.8921,-2.9117,-2.9485,-2.9897,-3.0034,-2.9988,-2.984,-2.9977,-3.0125,-3.017,-3.017,-3.017,-3.0216,-3.0216,-3.0216,-3.0216,-3.0216,-3.0238,-3.0225,-3.0269,-3.0277,-3.0287,-3.06,-3.0996,-3.0821,-3.0707,-3.1135,-3.1486,-3.185,-3.168,-3.1287,-3.1117,-3.1104,-3.1117,-3.1169,-3.1024,-3.1024,-3.1024,-3.1024,-3.1024,-3.1024,-3.1024,-3.1024,-3.1024,-3.1024,-3.1024,-3.1024,-3.1024,-3.1024,-3.1024,-3.1024,-3.1024,-3.1024,-3.1024,-3.1024,-3.1024,-3.1024,-3.1024,-3.1024,-2.9083,-2.9073,-2.9073,-2.9083,-2.9177,-2.9756,-2.9829,-2.9518,-2.9208,-2.8825,-2.8411,-2.7948,-2.7728,-2.75,-2.7434,-2.732,-2.732,-2.732,-2.732,-2.732,-2.732,-2.732,-2.732,-2.732,-2.732,-2.732,-2.732,-2.732,-2.732,-2.732,-2.732,-2.732,-2.732,-2.732,-2.732,-2.732,-2.732,-2.732,-2.732,-2.732,-2.732,-2.7309,-2.7394,-2.7536,-2.7584,-2.7668,-2.7857,-2.7668,-2.7762,-2.7904,-2.8008,-2.7961,-2.7951,-2.8269,-2.8409,-2.8585,-2.8735,-2.8781,-2.8967,-2.9152,-2.9187,-2.9233,-2.9279,-2.9417,-2.9658,-2.9715,-2.9897,-3.0068,-3.008,-3.008,-3.0216,-3.017,-3.017,-3.0216,-3.0215,-3.0215,-3.0226,-3.0237,-3.0436,-3.0968,-3.1049,-3.1582,-3.2035,-3.1805,-3.1986,-3.2159,-3.1823,-3.1474,-3.1369,-3.1433,-3.1471,-3.113,-3.1024,-3.1024,-3.0986,-3.0823,-3.0911,-3.1024,-3.1024,-3.1024,-3.1024,-3.1024,-3.1024,-3.1024,-3.1024,-3.1024,-3.1024,-3.1024,-3.1024,-3.1024,-3.1024,-3.1024,-3.1024,-3.1024,-3.1024,-2.8618,-2.8618,-2.8618,-2.8618,-2.8711,-2.9259,-2.9332,-2.9001,-2.8576,-2.8193,-2.7896,-2.7779,-2.7552,-2.7372,-2.732,-2.732,-2.732,-2.732,-2.732,-2.732,-2.732,-2.732,-2.732,-2.732,-2.732,-2.732,-2.732,-2.732,-2.732,-2.732,-2.732,-2.732,-2.732,-2.732,-2.732,-2.732,-2.732,-2.732,-2.732,-2.732,-2.732,-2.732,-2.732,-2.7357,-2.7357,-2.7357,-2.732,-2.7309,-2.7347,-2.7441,-2.7584,-2.7678,-2.7904,-2.8034,-2.8175,-2.8409,-2.8445,-2.8456,-2.8456,-2.8233,-2.8269,-2.8211,-2.8445,-2.8817,-2.9141,-2.9198,-2.9336,-2.952,-2.9703,-2.9703,-2.9703,-2.9749,-2.984,-2.9852,-2.9988,-2.9988,-3.0216,-3.0216,-3.0442,-3.097,-3.1323,-3.2035,-3.2455,-3.2428,-3.2215,-3.2301,-3.2347,-3.1882,-3.1396,-3.128,-3.1139,-3.0752,-3.0508,-3.0432,-3.047,-3.0508,-3.0659,-3.0949,-3.1024,-3.1024,-3.1024,-3.1024,-3.1024,-3.1024,-3.1024,-3.1024,-3.1024,-3.1024,-3.1024,-3.1024,-3.1024,-3.1024,-3.1024,-3.0947,-3.0908,-2.8556,-2.8566,-2.8566,-2.8524,-2.8556,-2.8556,-2.8576,-2.8535,-2.811,-2.7893,-2.7862,-2.7448,-2.7351,-2.733,-2.732,-2.732,-2.732,-2.732,-2.732,-2.732,-2.732,-2.732,-2.732,-2.732,-2.732,-2.732,-2.732,-2.732,-2.732,-2.732,-2.732,-2.732,-2.732,-2.732,-2.732,-2.732,-2.732,-2.732,-2.732,-2.732,-2.732,-2.732,-2.732,-2.732,-2.732,-2.732,-2.732,-2.7309,-2.7489,-2.7668,-2.7904,-2.7904,-2.7951,-2.7998,-2.7998,-2.7998,-2.7987,-2.7998,-2.7951,-2.7631,-2.7547,-2.7678,-2.8128,-2.8491,-2.8678,-2.8724,-2.8817,-2.891,-2.9048,-2.891,-2.8817,-2.9002,-2.9152,-2.9336,-2.9577,-2.9806,-3.0125,-3.0306,-3.0532,-3.0857,-3.1042,-3.1416,-3.1424,-3.1536,-3.1705,-3.1468,-3.1272,-3.0742,-3.0363,-3.034,-3.0113,-2.9763,-2.9639,-2.9678,-2.9832,-3.0266,-3.0621,-3.0973,-3.0986,-3.1024,-3.1024,-3.1024,-3.1024,-3.1024,-3.1024,-3.1024,-3.1024,-3.1024,-3.1024,-3.1024,-3.1024,-3.1024,-3.1024,-3.0803,-3.0751,-2.7703,-2.7703,-2.7655,-2.7655,-2.7693,-2.7714,-2.7821,-2.8038,-2.7655,-2.7458,-2.7427,-2.7372,-2.732,-2.732,-2.732,-2.732,-2.732,-2.732,-2.732,-2.732,-2.732,-2.732,-2.732,-2.732,-2.732,-2.732,-2.732,-2.732,-2.732,-2.732,-2.732,-2.732,-2.732,-2.732,-2.732,-2.732,-2.732,-2.732,-2.732,-2.732,-2.732,-2.732,-2.732,-2.732,-2.732,-2.732,-2.732,-2.732,-2.7452,-2.7499,-2.7547,-2.7499,-2.7489,-2.7489,-2.7489,-2.7489,-2.7489,-2.7489,-2.7489,-2.7404,-2.732,-2.732,-2.7631,-2.7857,-2.8081,-2.8222,-2.8362,-2.8398,-2.8538,-2.8585,-2.8631,-2.8735,-2.8967,-2.9301,-2.9531,-2.976,-3.0034,-3.0261,-3.0487,-3.0519,-3.0751,-3.0616,-3.0608,-3.07,-3.0817,-3.0506,-3.0102,-2.9662,-2.9355,-2.9335,-2.9365,-2.9034,-2.9172,-2.9328,-2.9922,-3.0394,-3.0697,-3.0936,-3.0986,-3.0986,-3.1024,-3.1024,-3.1024,-3.1024,-3.1024,-3.1024,-3.1024,-3.1024,-3.1024,-3.1024,-3.1024,-3.1024,-3.0947,-3.0725,-3.0673,-2.732,-2.732,-2.732,-2.732,-2.732,-2.732,-2.7438,-2.7583,-2.7423,-2.732,-2.732,-2.732,-2.732,-2.732,-2.732,-2.732,-2.732,-2.732,-2.732,-2.732,-2.732,-2.732,-2.732,-2.732,-2.732,-2.732,-2.732,-2.732,-2.732,-2.732,-2.732,-2.732,-2.732,-2.732,-2.732,-2.732,-2.732,-2.732,-2.732,-2.732,-2.732,-2.732,-2.732,-2.732,-2.732,-2.732,-2.732,-2.732,-2.732,-2.732,-2.732,-2.732,-2.7309,-2.7309,-2.7309,-2.7357,-2.7357,-2.7357,-2.7357,-2.7357,-2.732,-2.732,-2.732,-2.7441,-2.7573,-2.7715,-2.7857,-2.7987,-2.8222,-2.8398,-2.8502,-2.8642,-2.9071,-2.9439,-2.9577,-2.9715,-2.9943,-3.017,-3.0227,-3.0214,-3.0128,-2.9954,-2.995,-3.0025,-2.9918,-2.9594,-2.9337,-2.8975,-2.8633,-2.8427,-2.8586,-2.8562,-2.8831,-2.9106,-2.9729,-3.0152,-3.0343,-3.0583,-3.0898,-3.0911,-3.0986,-3.1024,-3.1024,-3.1024,-3.1024,-3.1024,-3.1024,-3.1024,-3.1024,-3.1024,-3.1024,-3.1024,-3.0843,-3.0542,-3.0581,-2.732,-2.732,-2.732,-2.732,-2.732,-2.732,-2.732,-2.732,-2.732,-2.732,-2.732,-2.732,-2.732,-2.732,-2.732,-2.732,-2.732,-2.732,-2.732,-2.732,-2.732,-2.732,-2.732,-2.732,-2.732,-2.732,-2.732,-2.732,-2.732,-2.732,-2.732,-2.732,-2.732,-2.732,-2.732,-2.732,-2.732,-2.732,-2.732,-2.732,-2.732,-2.732,-2.732,-2.732,-2.732,-2.732,-2.732,-2.732,-2.732,-2.732,-2.732,-2.732,-2.732,-2.732,-2.732,-2.732,-2.732,-2.732,-2.732,-2.732,-2.732,-2.732,-2.732,-2.7357,-2.7404,-2.7441,-2.7584,-2.7631,-2.7857,-2.794,-2.7998,-2.8315,-2.8735,-2.9163,-2.9393,-2.9715,-3.0034,-3.0136,-3.0112,-2.9997,-2.9616,-2.941,-2.9129,-2.9155,-2.8957,-2.8688,-2.8595,-2.8387,-2.8076,-2.7759,-2.7894,-2.8111,-2.8486,-2.8791,-2.9055,-2.9445,-2.9793,-3.0114,-3.0508,-3.071,-3.0621,-3.0785,-3.1024,-3.1024,-3.1024,-3.1024,-3.1024,-3.1024,-3.1024,-3.1024,-3.1024,-3.1024,-3.079,-3.0464,-3.0555,-2.732,-2.732,-2.732,-2.732,-2.732,-2.732,-2.732,-2.732,-2.732,-2.732,-2.732,-2.732,-2.732,-2.732,-2.732,-2.732,-2.732,-2.732,-2.732,-2.732,-2.732,-2.732,-2.732,-2.732,-2.732,-2.732,-2.732,-2.732,-2.732,-2.732,-2.732,-2.732,-2.732,-2.732,-2.732,-2.732,-2.732,-2.732,-2.732,-2.732,-2.732,-2.732,-2.732,-2.732,-2.732,-2.732,-2.732,-2.732,-2.732,-2.732,-2.732,-2.732,-2.732,-2.732,-2.732,-2.732,-2.732,-2.732,-2.732,-2.732,-2.732,-2.732,-2.732,-2.732,-2.732,-2.732,-2.7309,-2.7357,-2.7441,-2.7489,-2.7668,-2.8045,-2.8409,-2.8828,-2.9244,-2.9658,-3.008,-3.0045,-3.001,-2.9699,-2.9263,-2.8919,-2.8609,-2.8287,-2.7966,-2.7931,-2.81,-2.7996,-2.7674,-2.7375,-2.7439,-2.7667,-2.8099,-2.8407,-2.8633,-2.8976,-2.9394,-2.9639,-2.9999,-3.0152,-3.0305,-3.0672,-3.1024,-3.1024,-3.1024,-3.1024,-3.1024,-3.1024,-3.1024,-3.1024,-3.1024,-3.1024,-3.0803,-3.0516,-3.0647,-2.732,-2.732,-2.732,-2.732,-2.732,-2.732,-2.732,-2.732,-2.732,-2.732,-2.732,-2.732,-2.732,-2.732,-2.732,-2.732,-2.732,-2.732,-2.732,-2.732,-2.732,-2.732,-2.732,-2.732,-2.732,-2.732,-2.732,-2.732,-2.732,-2.732,-2.732,-2.732,-2.732,-2.732,-2.732,-2.732,-2.732,-2.732,-2.732,-2.732,-2.732,-2.732,-2.732,-2.732,-2.732,-2.732,-2.732,-2.732,-2.732,-2.732,-2.732,-2.732,-2.732,-2.732,-2.732,-2.732,-2.732,-2.732,-2.732,-2.732,-2.732,-2.732,-2.732,-2.732,-2.732,-2.732,-2.732,-2.7357,-2.7678,-2.7762,-2.7951,-2.8233,-2.8502,-2.8828,-2.8967,-2.9244,-2.9612,-2.9772,-2.9909,-2.9998,-2.9596,-2.9251,-2.8953,-2.8654,-2.831,-2.7931,-2.8031,-2.7805,-2.7461,-2.719,-2.719,-2.7313,-2.7777,-2.8099,-2.8367,-2.8752,-2.916,-2.9367,-2.9523,-3.0114,-3.0508,-3.0785,-3.1024,-3.1024,-3.1024,-3.1024,-3.1024,-3.1024,-3.1024,-3.1024,-3.1024,-3.1024,-3.0777,-3.0607,-3.0686,-2.732,-2.732,-2.732,-2.732,-2.732,-2.732,-2.732,-2.732,-2.732,-2.732,-2.732,-2.732,-2.732,-2.732,-2.732,-2.732,-2.732,-2.732,-2.732,-2.732,-2.732,-2.732,-2.732,-2.732,-2.732,-2.732,-2.732,-2.732,-2.732,-2.732,-2.732,-2.732,-2.732,-2.732,-2.732,-2.732,-2.732,-2.732,-2.732,-2.732,-2.732,-2.732,-2.732,-2.732,-2.732,-2.732,-2.732,-2.732,-2.732,-2.732,-2.732,-2.732,-2.732,-2.732,-2.732,-2.732,-2.732,-2.732,-2.732,-2.732,-2.732,-2.732,-2.732,-2.732,-2.732,-2.732,-2.732,-2.7452,-2.7726,-2.7904,-2.8045,-2.8233,-2.8456,-2.8689,-2.8781,-2.9059,-2.9336,-2.9612,-2.9875,-3.0113,-2.9802,-2.9447,-2.9251,-2.8964,-2.8586,-2.8195,-2.7931,-2.7656,-2.7396,-2.727,-2.719,-2.7272,-2.7545,-2.7869,-2.8018,-2.8247,-2.8621,-2.9015,-2.925,-3.0075,-3.071,-3.0911,-3.1024,-3.1024,-3.1024,-3.0986,-3.0986,-3.1024,-3.1024,-3.1024,-3.1024,-3.1024,-3.0908,-3.0764,-3.0699,-2.732,-2.732,-2.732,-2.732,-2.732,-2.732,-2.732,-2.732,-2.732,-2.732,-2.732,-2.732,-2.732,-2.732,-2.732,-2.732,-2.732,-2.732,-2.732,-2.732,-2.732,-2.732,-2.732,-2.732,-2.732,-2.732,-2.732,-2.732,-2.732,-2.732,-2.732,-2.732,-2.732,-2.732,-2.732,-2.732,-2.732,-2.732,-2.732,-2.732,-2.732,-2.732,-2.732,-2.732,-2.732,-2.732,-2.732,-2.732,-2.732,-2.732,-2.732,-2.732,-2.732,-2.732,-2.732,-2.732,-2.732,-2.732,-2.732,-2.732,-2.732,-2.732,-2.732,-2.732,-2.732,-2.732,-2.732,-2.732,-2.7499,-2.7499,-2.7631,-2.7904,-2.8128,-2.8409,-2.8595,-2.9244,-2.976,-2.9886,-3.0023,-2.9895,-2.9584,-2.9447,-2.9435,-2.9091,-2.8689,-2.8425,-2.8379,-2.808,-2.7483,-2.7316,-2.719,-2.7272,-2.7394,-2.7313,-2.7383,-2.7505,-2.7846,-2.8355,-2.8937,-2.969,-3.0355,-3.0911,-3.0986,-3.0785,-3.0861,-3.0898,-3.0949,-3.1024,-3.1024,-3.1024,-3.1024,-3.0973,-3.0934,-3.0908,-3.0843]}]]